<?xml version="1.0" encoding="UTF-8" standalone="no" ?>
<gpx xmlns="http://www.topografix.com/GPX/1/1" xmlns:xsi="http://www.w3.org/2001/XMLSchema-instance" xsi:schemaLocation="http://www.topografix.com/GPX/1/1 http://www.topografix.com/GPX/1/1/gpx.xsd" version="1.1" creator="VisuGPX - https://www.visugpx.com">
  <metadata>
    <name>pepoy40</name>
    <desc><![CDATA[rando vtt fort agreable]]></desc>
  </metadata>
  <trk>
    <name><![CDATA[pepouey40]]></name>
    <trkseg>
      <trkpt lat="43.17351" lon="0.08007">
        <ele>377.454834</ele>
        <time>2010-10-17T07:17:31Z</time>
      </trkpt>
      <trkpt lat="43.17336" lon="0.07964">
        <ele>377.9354248</ele>
        <time>2010-10-17T07:17:39Z</time>
      </trkpt>
      <trkpt lat="43.17321" lon="0.07914">
        <ele>377.9354248</ele>
        <time>2010-10-17T07:17:48Z</time>
      </trkpt>
      <trkpt lat="43.17311" lon="0.07858">
        <ele>377.454834</ele>
        <time>2010-10-17T07:17:57Z</time>
      </trkpt>
      <trkpt lat="43.17307" lon="0.07799">
        <ele>376.4935303</ele>
        <time>2010-10-17T07:18:06Z</time>
      </trkpt>
      <trkpt lat="43.17306" lon="0.0773">
        <ele>376.0128174</ele>
        <time>2010-10-17T07:18:16Z</time>
      </trkpt>
      <trkpt lat="43.17307" lon="0.07664">
        <ele>376.0128174</ele>
        <time>2010-10-17T07:18:25Z</time>
      </trkpt>
      <trkpt lat="43.17303" lon="0.07576">
        <ele>375.5321045</ele>
        <time>2010-10-17T07:18:37Z</time>
      </trkpt>
      <trkpt lat="43.17294" lon="0.07499">
        <ele>375.0515137</ele>
        <time>2010-10-17T07:18:47Z</time>
      </trkpt>
      <trkpt lat="43.17285" lon="0.07416">
        <ele>374.0900879</ele>
        <time>2010-10-17T07:18:57Z</time>
      </trkpt>
      <trkpt lat="43.1727" lon="0.07352">
        <ele>374.0900879</ele>
        <time>2010-10-17T07:19:05Z</time>
      </trkpt>
      <trkpt lat="43.17245" lon="0.07268">
        <ele>373.6094971</ele>
        <time>2010-10-17T07:19:16Z</time>
      </trkpt>
      <trkpt lat="43.17234" lon="0.07225">
        <ele>373.6094971</ele>
        <time>2010-10-17T07:19:22Z</time>
      </trkpt>
      <trkpt lat="43.1723" lon="0.07215">
        <ele>373.6094971</ele>
        <time>2010-10-17T07:19:24Z</time>
      </trkpt>
      <trkpt lat="43.17204" lon="0.072">
        <ele>375.0515137</ele>
        <time>2010-10-17T07:19:30Z</time>
      </trkpt>
      <trkpt lat="43.17174" lon="0.07186">
        <ele>375.5321045</ele>
        <time>2010-10-17T07:19:38Z</time>
      </trkpt>
      <trkpt lat="43.17148" lon="0.07173">
        <ele>376.4935303</ele>
        <time>2010-10-17T07:19:45Z</time>
      </trkpt>
      <trkpt lat="43.17132" lon="0.0717">
        <ele>376.4935303</ele>
        <time>2010-10-17T07:19:49Z</time>
      </trkpt>
      <trkpt lat="43.17105" lon="0.07171">
        <ele>377.9354248</ele>
        <time>2010-10-17T07:19:56Z</time>
      </trkpt>
      <trkpt lat="43.17097" lon="0.07172">
        <ele>377.9354248</ele>
        <time>2010-10-17T07:19:58Z</time>
      </trkpt>
      <trkpt lat="43.17075" lon="0.07178">
        <ele>378.4161377</ele>
        <time>2010-10-17T07:20:03Z</time>
      </trkpt>
      <trkpt lat="43.17043" lon="0.07199">
        <ele>378.4161377</ele>
        <time>2010-10-17T07:20:12Z</time>
      </trkpt>
      <trkpt lat="43.1701" lon="0.07225">
        <ele>379.3774414</ele>
        <time>2010-10-17T07:20:22Z</time>
      </trkpt>
      <trkpt lat="43.16989" lon="0.07241">
        <ele>379.3774414</ele>
        <time>2010-10-17T07:20:30Z</time>
      </trkpt>
      <trkpt lat="43.16973" lon="0.07241">
        <ele>379.8580322</ele>
        <time>2010-10-17T07:20:35Z</time>
      </trkpt>
      <trkpt lat="43.16955" lon="0.07247">
        <ele>379.8580322</ele>
        <time>2010-10-17T07:20:40Z</time>
      </trkpt>
      <trkpt lat="43.16923" lon="0.07267">
        <ele>381.3000488</ele>
        <time>2010-10-17T07:20:49Z</time>
      </trkpt>
      <trkpt lat="43.16899" lon="0.07284">
        <ele>382.2613525</ele>
        <time>2010-10-17T07:20:56Z</time>
      </trkpt>
      <trkpt lat="43.16866" lon="0.07309">
        <ele>383.7032471</ele>
        <time>2010-10-17T07:21:06Z</time>
      </trkpt>
      <trkpt lat="43.16844" lon="0.07329">
        <ele>384.6647949</ele>
        <time>2010-10-17T07:21:14Z</time>
      </trkpt>
      <trkpt lat="43.16808" lon="0.07363">
        <ele>384.6647949</ele>
        <time>2010-10-17T07:21:26Z</time>
      </trkpt>
      <trkpt lat="43.16776" lon="0.07385">
        <ele>385.1453857</ele>
        <time>2010-10-17T07:21:36Z</time>
      </trkpt>
      <trkpt lat="43.16738" lon="0.07408">
        <ele>385.6259766</ele>
        <time>2010-10-17T07:21:47Z</time>
      </trkpt>
      <trkpt lat="43.16706" lon="0.07423">
        <ele>386.5874023</ele>
        <time>2010-10-17T07:21:56Z</time>
      </trkpt>
      <trkpt lat="43.16673" lon="0.07439">
        <ele>387.0679932</ele>
        <time>2010-10-17T07:22:05Z</time>
      </trkpt>
      <trkpt lat="43.16633" lon="0.07462">
        <ele>388.5100098</ele>
        <time>2010-10-17T07:22:16Z</time>
      </trkpt>
      <trkpt lat="43.16606" lon="0.07481">
        <ele>388.0292969</ele>
        <time>2010-10-17T07:22:24Z</time>
      </trkpt>
      <trkpt lat="43.16579" lon="0.07498">
        <ele>387.548584</ele>
        <time>2010-10-17T07:22:32Z</time>
      </trkpt>
      <trkpt lat="43.1657" lon="0.07511">
        <ele>386.5874023</ele>
        <time>2010-10-17T07:22:36Z</time>
      </trkpt>
      <trkpt lat="43.16569" lon="0.07534">
        <ele>387.0679932</ele>
        <time>2010-10-17T07:22:40Z</time>
      </trkpt>
      <trkpt lat="43.16562" lon="0.07545">
        <ele>386.1066895</ele>
        <time>2010-10-17T07:22:44Z</time>
      </trkpt>
      <trkpt lat="43.16558" lon="0.07545">
        <ele>386.1066895</ele>
        <time>2010-10-17T07:22:45Z</time>
      </trkpt>
      <trkpt lat="43.16525" lon="0.07549">
        <ele>388.5100098</ele>
        <time>2010-10-17T07:22:54Z</time>
      </trkpt>
      <trkpt lat="43.165" lon="0.0755">
        <ele>389.9519043</ele>
        <time>2010-10-17T07:23:01Z</time>
      </trkpt>
      <trkpt lat="43.16473" lon="0.07552">
        <ele>392.3553467</ele>
        <time>2010-10-17T07:23:09Z</time>
      </trkpt>
      <trkpt lat="43.16441" lon="0.07554">
        <ele>394.2779541</ele>
        <time>2010-10-17T07:23:18Z</time>
      </trkpt>
      <trkpt lat="43.16427" lon="0.07557">
        <ele>394.2779541</ele>
        <time>2010-10-17T07:23:22Z</time>
      </trkpt>
      <trkpt lat="43.16387" lon="0.07561">
        <ele>395.2391357</ele>
        <time>2010-10-17T07:23:32Z</time>
      </trkpt>
      <trkpt lat="43.16346" lon="0.07564">
        <ele>397.1617432</ele>
        <time>2010-10-17T07:23:42Z</time>
      </trkpt>
      <trkpt lat="43.1631" lon="0.07569">
        <ele>397.6424561</ele>
        <time>2010-10-17T07:23:50Z</time>
      </trkpt>
      <trkpt lat="43.16279" lon="0.07574">
        <ele>397.6424561</ele>
        <time>2010-10-17T07:23:57Z</time>
      </trkpt>
      <trkpt lat="43.16258" lon="0.07577">
        <ele>398.1231689</ele>
        <time>2010-10-17T07:24:02Z</time>
      </trkpt>
      <trkpt lat="43.16244" lon="0.07569">
        <ele>397.6424561</ele>
        <time>2010-10-17T07:24:06Z</time>
      </trkpt>
      <trkpt lat="43.16241" lon="0.07565">
        <ele>397.6424561</ele>
        <time>2010-10-17T07:24:07Z</time>
      </trkpt>
      <trkpt lat="43.16223" lon="0.07555">
        <ele>398.1231689</ele>
        <time>2010-10-17T07:24:12Z</time>
      </trkpt>
      <trkpt lat="43.1622" lon="0.07557">
        <ele>398.1231689</ele>
        <time>2010-10-17T07:24:13Z</time>
      </trkpt>
      <trkpt lat="43.1619" lon="0.07575">
        <ele>398.6037598</ele>
        <time>2010-10-17T07:24:21Z</time>
      </trkpt>
      <trkpt lat="43.16172" lon="0.07575">
        <ele>399.0843506</ele>
        <time>2010-10-17T07:24:26Z</time>
      </trkpt>
      <trkpt lat="43.16131" lon="0.07576">
        <ele>399.5650635</ele>
        <time>2010-10-17T07:24:36Z</time>
      </trkpt>
      <trkpt lat="43.16098" lon="0.07577">
        <ele>400.0458984</ele>
        <time>2010-10-17T07:24:44Z</time>
      </trkpt>
      <trkpt lat="43.16068" lon="0.07577">
        <ele>401.9685059</ele>
        <time>2010-10-17T07:24:52Z</time>
      </trkpt>
      <trkpt lat="43.16041" lon="0.07576">
        <ele>403.4104004</ele>
        <time>2010-10-17T07:24:59Z</time>
      </trkpt>
      <trkpt lat="43.16008" lon="0.07568">
        <ele>405.8137207</ele>
        <time>2010-10-17T07:25:08Z</time>
      </trkpt>
      <trkpt lat="43.15984" lon="0.07555">
        <ele>407.7363281</ele>
        <time>2010-10-17T07:25:15Z</time>
      </trkpt>
      <trkpt lat="43.1598" lon="0.07553">
        <ele>408.217041</ele>
        <time>2010-10-17T07:25:16Z</time>
      </trkpt>
      <trkpt lat="43.15946" lon="0.07535">
        <ele>409.6590576</ele>
        <time>2010-10-17T07:25:25Z</time>
      </trkpt>
      <trkpt lat="43.15917" lon="0.0752">
        <ele>410.1396484</ele>
        <time>2010-10-17T07:25:33Z</time>
      </trkpt>
      <trkpt lat="43.15881" lon="0.07502">
        <ele>410.1396484</ele>
        <time>2010-10-17T07:25:42Z</time>
      </trkpt>
      <trkpt lat="43.15869" lon="0.07493">
        <ele>409.6590576</ele>
        <time>2010-10-17T07:25:45Z</time>
      </trkpt>
      <trkpt lat="43.15844" lon="0.0746">
        <ele>409.6590576</ele>
        <time>2010-10-17T07:25:52Z</time>
      </trkpt>
      <trkpt lat="43.15827" lon="0.07425">
        <ele>411.1009521</ele>
        <time>2010-10-17T07:25:58Z</time>
      </trkpt>
      <trkpt lat="43.15815" lon="0.07395">
        <ele>412.0622559</ele>
        <time>2010-10-17T07:26:03Z</time>
      </trkpt>
      <trkpt lat="43.15802" lon="0.07389">
        <ele>413.0235596</ele>
        <time>2010-10-17T07:26:07Z</time>
      </trkpt>
      <trkpt lat="43.15796" lon="0.07396">
        <ele>413.0235596</ele>
        <time>2010-10-17T07:26:09Z</time>
      </trkpt>
      <trkpt lat="43.15769" lon="0.07433">
        <ele>412.5428467</ele>
        <time>2010-10-17T07:26:17Z</time>
      </trkpt>
      <trkpt lat="43.15733" lon="0.07461">
        <ele>413.0235596</ele>
        <time>2010-10-17T07:26:25Z</time>
      </trkpt>
      <trkpt lat="43.15686" lon="0.07502">
        <ele>413.0235596</ele>
        <time>2010-10-17T07:26:36Z</time>
      </trkpt>
      <trkpt lat="43.15646" lon="0.07536">
        <ele>413.9848633</ele>
        <time>2010-10-17T07:26:45Z</time>
      </trkpt>
      <trkpt lat="43.15617" lon="0.07564">
        <ele>414.946167</ele>
        <time>2010-10-17T07:26:52Z</time>
      </trkpt>
      <trkpt lat="43.15591" lon="0.07604">
        <ele>415.4268799</ele>
        <time>2010-10-17T07:27:00Z</time>
      </trkpt>
      <trkpt lat="43.15577" lon="0.0761">
        <ele>415.4268799</ele>
        <time>2010-10-17T07:27:04Z</time>
      </trkpt>
      <trkpt lat="43.15573" lon="0.07608">
        <ele>415.4268799</ele>
        <time>2010-10-17T07:27:05Z</time>
      </trkpt>
      <trkpt lat="43.15534" lon="0.07588">
        <ele>414.946167</ele>
        <time>2010-10-17T07:27:15Z</time>
      </trkpt>
      <trkpt lat="43.15496" lon="0.07573">
        <ele>416.3881836</ele>
        <time>2010-10-17T07:27:24Z</time>
      </trkpt>
      <trkpt lat="43.1546" lon="0.07562">
        <ele>417.3496094</ele>
        <time>2010-10-17T07:27:33Z</time>
      </trkpt>
      <trkpt lat="43.15426" lon="0.0755">
        <ele>418.310791</ele>
        <time>2010-10-17T07:27:42Z</time>
      </trkpt>
      <trkpt lat="43.15398" lon="0.07535">
        <ele>420.2333984</ele>
        <time>2010-10-17T07:27:50Z</time>
      </trkpt>
      <trkpt lat="43.15369" lon="0.07518">
        <ele>423.1174316</ele>
        <time>2010-10-17T07:27:59Z</time>
      </trkpt>
      <trkpt lat="43.15353" lon="0.07506">
        <ele>425.0401611</ele>
        <time>2010-10-17T07:28:05Z</time>
      </trkpt>
      <trkpt lat="43.15344" lon="0.07506">
        <ele>424.5594482</ele>
        <time>2010-10-17T07:28:08Z</time>
      </trkpt>
      <trkpt lat="43.15326" lon="0.07523">
        <ele>423.1174316</ele>
        <time>2010-10-17T07:28:12Z</time>
      </trkpt>
      <trkpt lat="43.15302" lon="0.07553">
        <ele>419.2722168</ele>
        <time>2010-10-17T07:28:16Z</time>
      </trkpt>
      <trkpt lat="43.15282" lon="0.07581">
        <ele>416.3881836</ele>
        <time>2010-10-17T07:28:19Z</time>
      </trkpt>
      <trkpt lat="43.15253" lon="0.07645">
        <ele>412.0622559</ele>
        <time>2010-10-17T07:28:24Z</time>
      </trkpt>
      <trkpt lat="43.15249" lon="0.0766">
        <ele>411.581665</ele>
        <time>2010-10-17T07:28:25Z</time>
      </trkpt>
      <trkpt lat="43.15231" lon="0.07742">
        <ele>411.581665</ele>
        <time>2010-10-17T07:28:31Z</time>
      </trkpt>
      <trkpt lat="43.15222" lon="0.07784">
        <ele>412.5428467</ele>
        <time>2010-10-17T07:28:35Z</time>
      </trkpt>
      <trkpt lat="43.15216" lon="0.07812">
        <ele>413.5042725</ele>
        <time>2010-10-17T07:28:39Z</time>
      </trkpt>
      <trkpt lat="43.1521" lon="0.07835">
        <ele>414.946167</ele>
        <time>2010-10-17T07:28:44Z</time>
      </trkpt>
      <trkpt lat="43.15203" lon="0.07863">
        <ele>416.8688965</ele>
        <time>2010-10-17T07:28:51Z</time>
      </trkpt>
      <trkpt lat="43.15197" lon="0.07884">
        <ele>417.8302002</ele>
        <time>2010-10-17T07:28:56Z</time>
      </trkpt>
      <trkpt lat="43.15187" lon="0.07917">
        <ele>417.3496094</ele>
        <time>2010-10-17T07:29:02Z</time>
      </trkpt>
      <trkpt lat="43.15182" lon="0.07931">
        <ele>417.3496094</ele>
        <time>2010-10-17T07:29:05Z</time>
      </trkpt>
      <trkpt lat="43.15175" lon="0.07927">
        <ele>417.3496094</ele>
        <time>2010-10-17T07:29:08Z</time>
      </trkpt>
      <trkpt lat="43.15176" lon="0.07909">
        <ele>417.8302002</ele>
        <time>2010-10-17T07:29:12Z</time>
      </trkpt>
      <trkpt lat="43.15168" lon="0.079">
        <ele>419.2722168</ele>
        <time>2010-10-17T07:29:15Z</time>
      </trkpt>
      <trkpt lat="43.15165" lon="0.079">
        <ele>419.7528076</ele>
        <time>2010-10-17T07:29:16Z</time>
      </trkpt>
      <trkpt lat="43.15143" lon="0.07906">
        <ele>422.6367188</ele>
        <time>2010-10-17T07:29:24Z</time>
      </trkpt>
      <trkpt lat="43.1512" lon="0.07916">
        <ele>425.0401611</ele>
        <time>2010-10-17T07:29:32Z</time>
      </trkpt>
      <trkpt lat="43.15099" lon="0.07931">
        <ele>426.9627686</ele>
        <time>2010-10-17T07:29:40Z</time>
      </trkpt>
      <trkpt lat="43.15082" lon="0.07938">
        <ele>428.4046631</ele>
        <time>2010-10-17T07:29:47Z</time>
      </trkpt>
      <trkpt lat="43.15054" lon="0.0794">
        <ele>430.8079834</ele>
        <time>2010-10-17T07:29:57Z</time>
      </trkpt>
      <trkpt lat="43.15031" lon="0.07941">
        <ele>431.769165</ele>
        <time>2010-10-17T07:30:06Z</time>
      </trkpt>
      <trkpt lat="43.15012" lon="0.07937">
        <ele>432.7307129</ele>
        <time>2010-10-17T07:30:13Z</time>
      </trkpt>
      <trkpt lat="43.14982" lon="0.07935">
        <ele>434.6533203</ele>
        <time>2010-10-17T07:30:23Z</time>
      </trkpt>
      <trkpt lat="43.14956" lon="0.07934">
        <ele>436.0952148</ele>
        <time>2010-10-17T07:30:32Z</time>
      </trkpt>
      <trkpt lat="43.14926" lon="0.07933">
        <ele>438.0178223</ele>
        <time>2010-10-17T07:30:42Z</time>
      </trkpt>
      <trkpt lat="43.14907" lon="0.07924">
        <ele>438.979126</ele>
        <time>2010-10-17T07:30:49Z</time>
      </trkpt>
      <trkpt lat="43.14887" lon="0.07906">
        <ele>440.4212646</ele>
        <time>2010-10-17T07:30:57Z</time>
      </trkpt>
      <trkpt lat="43.14865" lon="0.07884">
        <ele>441.3824463</ele>
        <time>2010-10-17T07:31:05Z</time>
      </trkpt>
      <trkpt lat="43.14841" lon="0.07862">
        <ele>442.8244629</ele>
        <time>2010-10-17T07:31:13Z</time>
      </trkpt>
      <trkpt lat="43.14816" lon="0.07839">
        <ele>443.7857666</ele>
        <time>2010-10-17T07:31:21Z</time>
      </trkpt>
      <trkpt lat="43.14799" lon="0.07821">
        <ele>444.2664795</ele>
        <time>2010-10-17T07:31:27Z</time>
      </trkpt>
      <trkpt lat="43.14766" lon="0.07787">
        <ele>445.708374</ele>
        <time>2010-10-17T07:31:38Z</time>
      </trkpt>
      <trkpt lat="43.14745" lon="0.07774">
        <ele>446.1890869</ele>
        <time>2010-10-17T07:31:45Z</time>
      </trkpt>
      <trkpt lat="43.14723" lon="0.07762">
        <ele>447.1502686</ele>
        <time>2010-10-17T07:31:53Z</time>
      </trkpt>
      <trkpt lat="43.14699" lon="0.07747">
        <ele>448.5924072</ele>
        <time>2010-10-17T07:32:02Z</time>
      </trkpt>
      <trkpt lat="43.14679" lon="0.07738">
        <ele>449.5537109</ele>
        <time>2010-10-17T07:32:10Z</time>
      </trkpt>
      <trkpt lat="43.14659" lon="0.07727">
        <ele>450.9956055</ele>
        <time>2010-10-17T07:32:18Z</time>
      </trkpt>
      <trkpt lat="43.14634" lon="0.07716">
        <ele>452.4376221</ele>
        <time>2010-10-17T07:32:27Z</time>
      </trkpt>
      <trkpt lat="43.14606" lon="0.07703">
        <ele>454.3602295</ele>
        <time>2010-10-17T07:32:38Z</time>
      </trkpt>
      <trkpt lat="43.14592" lon="0.07702">
        <ele>455.3215332</ele>
        <time>2010-10-17T07:32:43Z</time>
      </trkpt>
      <trkpt lat="43.14583" lon="0.07724">
        <ele>455.3215332</ele>
        <time>2010-10-17T07:32:50Z</time>
      </trkpt>
      <trkpt lat="43.14579" lon="0.07736">
        <ele>454.8408203</ele>
        <time>2010-10-17T07:32:53Z</time>
      </trkpt>
      <trkpt lat="43.14569" lon="0.07737">
        <ele>454.8408203</ele>
        <time>2010-10-17T07:32:57Z</time>
      </trkpt>
      <trkpt lat="43.14549" lon="0.07713">
        <ele>456.7635498</ele>
        <time>2010-10-17T07:33:06Z</time>
      </trkpt>
      <trkpt lat="43.14524" lon="0.07685">
        <ele>458.6861572</ele>
        <time>2010-10-17T07:33:17Z</time>
      </trkpt>
      <trkpt lat="43.14505" lon="0.07666">
        <ele>460.1281738</ele>
        <time>2010-10-17T07:33:25Z</time>
      </trkpt>
      <trkpt lat="43.14485" lon="0.07658">
        <ele>460.6087646</ele>
        <time>2010-10-17T07:33:32Z</time>
      </trkpt>
      <trkpt lat="43.14457" lon="0.07655">
        <ele>461.5701904</ele>
        <time>2010-10-17T07:33:42Z</time>
      </trkpt>
      <trkpt lat="43.14437" lon="0.07652">
        <ele>463.012085</ele>
        <time>2010-10-17T07:33:50Z</time>
      </trkpt>
      <trkpt lat="43.14417" lon="0.07648">
        <ele>465.4155273</ele>
        <time>2010-10-17T07:33:58Z</time>
      </trkpt>
      <trkpt lat="43.14404" lon="0.07644">
        <ele>467.3381348</ele>
        <time>2010-10-17T07:34:04Z</time>
      </trkpt>
      <trkpt lat="43.1439" lon="0.07635">
        <ele>468.2993164</ele>
        <time>2010-10-17T07:34:10Z</time>
      </trkpt>
      <trkpt lat="43.14381" lon="0.0763">
        <ele>469.741333</ele>
        <time>2010-10-17T07:34:14Z</time>
      </trkpt>
      <trkpt lat="43.14365" lon="0.07619">
        <ele>468.7800293</ele>
        <time>2010-10-17T07:34:21Z</time>
      </trkpt>
      <trkpt lat="43.14349" lon="0.07608">
        <ele>469.2607422</ele>
        <time>2010-10-17T07:34:28Z</time>
      </trkpt>
      <trkpt lat="43.14332" lon="0.07597">
        <ele>470.7026367</ele>
        <time>2010-10-17T07:34:35Z</time>
      </trkpt>
      <trkpt lat="43.14305" lon="0.0758">
        <ele>473.1060791</ele>
        <time>2010-10-17T07:34:46Z</time>
      </trkpt>
      <trkpt lat="43.14281" lon="0.07565">
        <ele>474.5479736</ele>
        <time>2010-10-17T07:34:56Z</time>
      </trkpt>
      <trkpt lat="43.14256" lon="0.0755">
        <ele>476.4705811</ele>
        <time>2010-10-17T07:35:07Z</time>
      </trkpt>
      <trkpt lat="43.1424" lon="0.0754">
        <ele>478.3931885</ele>
        <time>2010-10-17T07:35:15Z</time>
      </trkpt>
      <trkpt lat="43.14219" lon="0.07527">
        <ele>480.7966309</ele>
        <time>2010-10-17T07:35:25Z</time>
      </trkpt>
      <trkpt lat="43.14194" lon="0.07512">
        <ele>484.1611328</ele>
        <time>2010-10-17T07:35:37Z</time>
      </trkpt>
      <trkpt lat="43.14174" lon="0.07501">
        <ele>485.1224365</ele>
        <time>2010-10-17T07:35:46Z</time>
      </trkpt>
      <trkpt lat="43.1415" lon="0.07487">
        <ele>486.5644531</ele>
        <time>2010-10-17T07:35:56Z</time>
      </trkpt>
      <trkpt lat="43.14129" lon="0.07474">
        <ele>488.0064697</ele>
        <time>2010-10-17T07:36:06Z</time>
      </trkpt>
      <trkpt lat="43.14106" lon="0.0746">
        <ele>489.9290771</ele>
        <time>2010-10-17T07:36:17Z</time>
      </trkpt>
      <trkpt lat="43.14088" lon="0.07448">
        <ele>491.8516846</ele>
        <time>2010-10-17T07:36:25Z</time>
      </trkpt>
      <trkpt lat="43.14071" lon="0.07438">
        <ele>493.774292</ele>
        <time>2010-10-17T07:36:33Z</time>
      </trkpt>
      <trkpt lat="43.14053" lon="0.07427">
        <ele>495.6968994</ele>
        <time>2010-10-17T07:36:42Z</time>
      </trkpt>
      <trkpt lat="43.14041" lon="0.0742">
        <ele>498.1003418</ele>
        <time>2010-10-17T07:36:49Z</time>
      </trkpt>
      <trkpt lat="43.14034" lon="0.07416">
        <ele>500.0229492</ele>
        <time>2010-10-17T07:36:53Z</time>
      </trkpt>
      <trkpt lat="43.14027" lon="0.07412">
        <ele>501.4648438</ele>
        <time>2010-10-17T07:36:57Z</time>
      </trkpt>
      <trkpt lat="43.14017" lon="0.07407">
        <ele>503.3874512</ele>
        <time>2010-10-17T07:37:03Z</time>
      </trkpt>
      <trkpt lat="43.14005" lon="0.07398">
        <ele>504.8294678</ele>
        <time>2010-10-17T07:37:11Z</time>
      </trkpt>
      <trkpt lat="43.1399" lon="0.07389">
        <ele>506.7520752</ele>
        <time>2010-10-17T07:37:20Z</time>
      </trkpt>
      <trkpt lat="43.13974" lon="0.07379">
        <ele>508.6746826</ele>
        <time>2010-10-17T07:37:31Z</time>
      </trkpt>
      <trkpt lat="43.13958" lon="0.0737">
        <ele>510.59729</ele>
        <time>2010-10-17T07:37:41Z</time>
      </trkpt>
      <trkpt lat="43.13947" lon="0.07363">
        <ele>512.0394287</ele>
        <time>2010-10-17T07:37:48Z</time>
      </trkpt>
      <trkpt lat="43.13938" lon="0.07358">
        <ele>513.4814453</ele>
        <time>2010-10-17T07:37:55Z</time>
      </trkpt>
      <trkpt lat="43.13927" lon="0.07352">
        <ele>514.9233398</ele>
        <time>2010-10-17T07:38:03Z</time>
      </trkpt>
      <trkpt lat="43.13913" lon="0.07343">
        <ele>517.807251</ele>
        <time>2010-10-17T07:38:14Z</time>
      </trkpt>
      <trkpt lat="43.13902" lon="0.07332">
        <ele>518.7685547</ele>
        <time>2010-10-17T07:38:22Z</time>
      </trkpt>
      <trkpt lat="43.13893" lon="0.07314">
        <ele>519.7298584</ele>
        <time>2010-10-17T07:38:30Z</time>
      </trkpt>
      <trkpt lat="43.13884" lon="0.07286">
        <ele>519.7298584</ele>
        <time>2010-10-17T07:38:39Z</time>
      </trkpt>
      <trkpt lat="43.13876" lon="0.07263">
        <ele>520.2105713</ele>
        <time>2010-10-17T07:38:47Z</time>
      </trkpt>
      <trkpt lat="43.13869" lon="0.07244">
        <ele>522.1331787</ele>
        <time>2010-10-17T07:38:55Z</time>
      </trkpt>
      <trkpt lat="43.13868" lon="0.07238">
        <ele>522.6138916</ele>
        <time>2010-10-17T07:39:00Z</time>
      </trkpt>
      <trkpt lat="43.13867" lon="0.07237">
        <ele>523.5751953</ele>
        <time>2010-10-17T07:39:09Z</time>
      </trkpt>
      <trkpt lat="43.13866" lon="0.0724">
        <ele>525.0172119</ele>
        <time>2010-10-17T07:39:51Z</time>
      </trkpt>
      <trkpt lat="43.13867" lon="0.07242">
        <ele>518.2878418</ele>
        <time>2010-10-17T07:40:19Z</time>
      </trkpt>
      <trkpt lat="43.13866" lon="0.07244">
        <ele>518.7685547</ele>
        <time>2010-10-17T07:40:29Z</time>
      </trkpt>
      <trkpt lat="43.13864" lon="0.07245">
        <ele>518.7685547</ele>
        <time>2010-10-17T07:40:37Z</time>
      </trkpt>
      <trkpt lat="43.13863" lon="0.07245">
        <ele>518.2878418</ele>
        <time>2010-10-17T07:40:43Z</time>
      </trkpt>
      <trkpt lat="43.1386" lon="0.07243">
        <ele>518.7685547</ele>
        <time>2010-10-17T07:41:26Z</time>
      </trkpt>
      <trkpt lat="43.13861" lon="0.07245">
        <ele>520.2105713</ele>
        <time>2010-10-17T07:41:51Z</time>
      </trkpt>
      <trkpt lat="43.13861" lon="0.07247">
        <ele>521.1719971</ele>
        <time>2010-10-17T07:41:55Z</time>
      </trkpt>
      <trkpt lat="43.13862" lon="0.07253">
        <ele>521.6525879</ele>
        <time>2010-10-17T07:41:59Z</time>
      </trkpt>
      <trkpt lat="43.13855" lon="0.0728">
        <ele>523.5751953</ele>
        <time>2010-10-17T07:42:09Z</time>
      </trkpt>
      <trkpt lat="43.13848" lon="0.07314">
        <ele>523.5751953</ele>
        <time>2010-10-17T07:42:19Z</time>
      </trkpt>
      <trkpt lat="43.13838" lon="0.07344">
        <ele>524.536499</ele>
        <time>2010-10-17T07:42:27Z</time>
      </trkpt>
      <trkpt lat="43.1383" lon="0.0738">
        <ele>524.0557861</ele>
        <time>2010-10-17T07:42:35Z</time>
      </trkpt>
      <trkpt lat="43.13818" lon="0.07423">
        <ele>522.6138916</ele>
        <time>2010-10-17T07:42:44Z</time>
      </trkpt>
      <trkpt lat="43.13803" lon="0.07471">
        <ele>521.6525879</ele>
        <time>2010-10-17T07:42:53Z</time>
      </trkpt>
      <trkpt lat="43.13787" lon="0.07522">
        <ele>521.6525879</ele>
        <time>2010-10-17T07:43:02Z</time>
      </trkpt>
      <trkpt lat="43.13768" lon="0.07591">
        <ele>522.1331787</ele>
        <time>2010-10-17T07:43:14Z</time>
      </trkpt>
      <trkpt lat="43.13751" lon="0.07661">
        <ele>523.0946045</ele>
        <time>2010-10-17T07:43:26Z</time>
      </trkpt>
      <trkpt lat="43.13741" lon="0.077">
        <ele>524.0557861</ele>
        <time>2010-10-17T07:43:33Z</time>
      </trkpt>
      <trkpt lat="43.13727" lon="0.07756">
        <ele>525.4978027</ele>
        <time>2010-10-17T07:43:43Z</time>
      </trkpt>
      <trkpt lat="43.13718" lon="0.07783">
        <ele>525.9783936</ele>
        <time>2010-10-17T07:43:48Z</time>
      </trkpt>
      <trkpt lat="43.13706" lon="0.07821">
        <ele>526.9398193</ele>
        <time>2010-10-17T07:43:55Z</time>
      </trkpt>
      <trkpt lat="43.13697" lon="0.0787">
        <ele>526.4591064</ele>
        <time>2010-10-17T07:44:03Z</time>
      </trkpt>
      <trkpt lat="43.13693" lon="0.07897">
        <ele>526.4591064</ele>
        <time>2010-10-17T07:44:07Z</time>
      </trkpt>
      <trkpt lat="43.13677" lon="0.07957">
        <ele>525.9783936</ele>
        <time>2010-10-17T07:44:16Z</time>
      </trkpt>
      <trkpt lat="43.13656" lon="0.0801">
        <ele>525.4978027</ele>
        <time>2010-10-17T07:44:24Z</time>
      </trkpt>
      <trkpt lat="43.13633" lon="0.08061">
        <ele>525.4978027</ele>
        <time>2010-10-17T07:44:32Z</time>
      </trkpt>
      <trkpt lat="43.13604" lon="0.08124">
        <ele>525.4978027</ele>
        <time>2010-10-17T07:44:42Z</time>
      </trkpt>
      <trkpt lat="43.13567" lon="0.08203">
        <ele>525.9783936</ele>
        <time>2010-10-17T07:44:55Z</time>
      </trkpt>
      <trkpt lat="43.13542" lon="0.08248">
        <ele>526.4591064</ele>
        <time>2010-10-17T07:45:03Z</time>
      </trkpt>
      <trkpt lat="43.13512" lon="0.08287">
        <ele>526.4591064</ele>
        <time>2010-10-17T07:45:12Z</time>
      </trkpt>
      <trkpt lat="43.1348" lon="0.08331">
        <ele>528.3818359</ele>
        <time>2010-10-17T07:45:23Z</time>
      </trkpt>
      <trkpt lat="43.13466" lon="0.08336">
        <ele>529.3431396</ele>
        <time>2010-10-17T07:45:27Z</time>
      </trkpt>
      <trkpt lat="43.13451" lon="0.08344">
        <ele>531.2657471</ele>
        <time>2010-10-17T07:45:32Z</time>
      </trkpt>
      <trkpt lat="43.13427" lon="0.08357">
        <ele>532.7077637</ele>
        <time>2010-10-17T07:45:40Z</time>
      </trkpt>
      <trkpt lat="43.13402" lon="0.08373">
        <ele>534.6303711</ele>
        <time>2010-10-17T07:45:49Z</time>
      </trkpt>
      <trkpt lat="43.13371" lon="0.08395">
        <ele>536.0723877</ele>
        <time>2010-10-17T07:46:01Z</time>
      </trkpt>
      <trkpt lat="43.13346" lon="0.08412">
        <ele>537.5142822</ele>
        <time>2010-10-17T07:46:11Z</time>
      </trkpt>
      <trkpt lat="43.13334" lon="0.08423">
        <ele>538.9562988</ele>
        <time>2010-10-17T07:46:17Z</time>
      </trkpt>
      <trkpt lat="43.13314" lon="0.0844">
        <ele>540.3983154</ele>
        <time>2010-10-17T07:46:26Z</time>
      </trkpt>
      <trkpt lat="43.133" lon="0.08456">
        <ele>540.8789063</ele>
        <time>2010-10-17T07:46:34Z</time>
      </trkpt>
      <trkpt lat="43.13283" lon="0.0847">
        <ele>542.3209229</ele>
        <time>2010-10-17T07:46:42Z</time>
      </trkpt>
      <trkpt lat="43.13262" lon="0.0849">
        <ele>544.7242432</ele>
        <time>2010-10-17T07:46:52Z</time>
      </trkpt>
      <trkpt lat="43.13243" lon="0.08508">
        <ele>547.6081543</ele>
        <time>2010-10-17T07:47:01Z</time>
      </trkpt>
      <trkpt lat="43.13224" lon="0.0852">
        <ele>550.0114746</ele>
        <time>2010-10-17T07:47:10Z</time>
      </trkpt>
      <trkpt lat="43.13207" lon="0.08523">
        <ele>550.4921875</ele>
        <time>2010-10-17T07:47:17Z</time>
      </trkpt>
      <trkpt lat="43.13182" lon="0.08526">
        <ele>551.4533691</ele>
        <time>2010-10-17T07:47:27Z</time>
      </trkpt>
      <trkpt lat="43.13157" lon="0.08529">
        <ele>553.8566895</ele>
        <time>2010-10-17T07:47:38Z</time>
      </trkpt>
      <trkpt lat="43.13135" lon="0.08533">
        <ele>555.7792969</ele>
        <time>2010-10-17T07:47:48Z</time>
      </trkpt>
      <trkpt lat="43.13117" lon="0.08534">
        <ele>557.2214355</ele>
        <time>2010-10-17T07:47:56Z</time>
      </trkpt>
      <trkpt lat="43.13098" lon="0.08523">
        <ele>557.2214355</ele>
        <time>2010-10-17T07:48:03Z</time>
      </trkpt>
      <trkpt lat="43.13064" lon="0.08505">
        <ele>557.2214355</ele>
        <time>2010-10-17T07:48:13Z</time>
      </trkpt>
      <trkpt lat="43.13044" lon="0.08497">
        <ele>557.7021484</ele>
        <time>2010-10-17T07:48:20Z</time>
      </trkpt>
      <trkpt lat="43.13023" lon="0.08498">
        <ele>558.1828613</ele>
        <time>2010-10-17T07:48:27Z</time>
      </trkpt>
      <trkpt lat="43.13004" lon="0.08507">
        <ele>558.6633301</ele>
        <time>2010-10-17T07:48:35Z</time>
      </trkpt>
      <trkpt lat="43.1298" lon="0.08517">
        <ele>559.144043</ele>
        <time>2010-10-17T07:48:44Z</time>
      </trkpt>
      <trkpt lat="43.12959" lon="0.08523">
        <ele>558.6633301</ele>
        <time>2010-10-17T07:48:52Z</time>
      </trkpt>
      <trkpt lat="43.12943" lon="0.08528">
        <ele>558.6633301</ele>
        <time>2010-10-17T07:48:58Z</time>
      </trkpt>
      <trkpt lat="43.12925" lon="0.08537">
        <ele>559.6247559</ele>
        <time>2010-10-17T07:49:06Z</time>
      </trkpt>
      <trkpt lat="43.12923" lon="0.08541">
        <ele>560.1052246</ele>
        <time>2010-10-17T07:49:08Z</time>
      </trkpt>
      <trkpt lat="43.12922" lon="0.08559">
        <ele>562.9892578</ele>
        <time>2010-10-17T07:49:16Z</time>
      </trkpt>
      <trkpt lat="43.12917" lon="0.08574">
        <ele>565.3925781</ele>
        <time>2010-10-17T07:49:25Z</time>
      </trkpt>
      <trkpt lat="43.12914" lon="0.08589">
        <ele>567.3151855</ele>
        <time>2010-10-17T07:49:33Z</time>
      </trkpt>
      <trkpt lat="43.1291" lon="0.0861">
        <ele>570.6796875</ele>
        <time>2010-10-17T07:49:43Z</time>
      </trkpt>
      <trkpt lat="43.12907" lon="0.08627">
        <ele>571.6408691</ele>
        <time>2010-10-17T07:49:51Z</time>
      </trkpt>
      <trkpt lat="43.12899" lon="0.08637">
        <ele>572.6025391</ele>
        <time>2010-10-17T07:49:58Z</time>
      </trkpt>
      <trkpt lat="43.12883" lon="0.08639">
        <ele>574.0444336</ele>
        <time>2010-10-17T07:50:05Z</time>
      </trkpt>
      <trkpt lat="43.12865" lon="0.08642">
        <ele>575.4863281</ele>
        <time>2010-10-17T07:50:12Z</time>
      </trkpt>
      <trkpt lat="43.12843" lon="0.08645">
        <ele>576.9284668</ele>
        <time>2010-10-17T07:50:22Z</time>
      </trkpt>
      <trkpt lat="43.12827" lon="0.08646">
        <ele>577.4091797</ele>
        <time>2010-10-17T07:50:29Z</time>
      </trkpt>
      <trkpt lat="43.12823" lon="0.08658">
        <ele>577.4091797</ele>
        <time>2010-10-17T07:50:34Z</time>
      </trkpt>
      <trkpt lat="43.12826" lon="0.08689">
        <ele>576.4477539</ele>
        <time>2010-10-17T07:50:43Z</time>
      </trkpt>
      <trkpt lat="43.12828" lon="0.08717">
        <ele>575.0058594</ele>
        <time>2010-10-17T07:50:50Z</time>
      </trkpt>
      <trkpt lat="43.12821" lon="0.08724">
        <ele>574.5251465</ele>
        <time>2010-10-17T07:50:54Z</time>
      </trkpt>
      <trkpt lat="43.12816" lon="0.08722">
        <ele>574.5251465</ele>
        <time>2010-10-17T07:50:56Z</time>
      </trkpt>
      <trkpt lat="43.12786" lon="0.08713">
        <ele>574.5251465</ele>
        <time>2010-10-17T07:51:07Z</time>
      </trkpt>
      <trkpt lat="43.12759" lon="0.08708">
        <ele>574.5251465</ele>
        <time>2010-10-17T07:51:16Z</time>
      </trkpt>
      <trkpt lat="43.12737" lon="0.08704">
        <ele>574.5251465</ele>
        <time>2010-10-17T07:51:23Z</time>
      </trkpt>
      <trkpt lat="43.12734" lon="0.08704">
        <ele>574.0444336</ele>
        <time>2010-10-17T07:51:24Z</time>
      </trkpt>
      <trkpt lat="43.12725" lon="0.08701">
        <ele>573.5639648</ele>
        <time>2010-10-17T07:51:26Z</time>
      </trkpt>
      <trkpt lat="43.12703" lon="0.08693">
        <ele>571.1604004</ele>
        <time>2010-10-17T07:51:30Z</time>
      </trkpt>
      <trkpt lat="43.12689" lon="0.08696">
        <ele>569.237793</ele>
        <time>2010-10-17T07:51:33Z</time>
      </trkpt>
      <trkpt lat="43.12686" lon="0.08716">
        <ele>567.3151855</ele>
        <time>2010-10-17T07:51:36Z</time>
      </trkpt>
      <trkpt lat="43.12687" lon="0.08724">
        <ele>566.8344727</ele>
        <time>2010-10-17T07:51:37Z</time>
      </trkpt>
      <trkpt lat="43.12693" lon="0.08769">
        <ele>562.9892578</ele>
        <time>2010-10-17T07:51:43Z</time>
      </trkpt>
      <trkpt lat="43.12694" lon="0.08778">
        <ele>562.5085449</ele>
        <time>2010-10-17T07:51:45Z</time>
      </trkpt>
      <trkpt lat="43.12686" lon="0.08776">
        <ele>561.5473633</ele>
        <time>2010-10-17T07:51:49Z</time>
      </trkpt>
      <trkpt lat="43.12683" lon="0.08772">
        <ele>561.5473633</ele>
        <time>2010-10-17T07:51:50Z</time>
      </trkpt>
      <trkpt lat="43.12677" lon="0.08762">
        <ele>562.0280762</ele>
        <time>2010-10-17T07:51:52Z</time>
      </trkpt>
      <trkpt lat="43.12659" lon="0.08738">
        <ele>562.5085449</ele>
        <time>2010-10-17T07:51:57Z</time>
      </trkpt>
      <trkpt lat="43.12649" lon="0.08717">
        <ele>562.5085449</ele>
        <time>2010-10-17T07:52:01Z</time>
      </trkpt>
      <trkpt lat="43.12639" lon="0.0867">
        <ele>562.5085449</ele>
        <time>2010-10-17T07:52:09Z</time>
      </trkpt>
      <trkpt lat="43.12632" lon="0.08639">
        <ele>561.5473633</ele>
        <time>2010-10-17T07:52:15Z</time>
      </trkpt>
      <trkpt lat="43.12629" lon="0.08635">
        <ele>561.0666504</ele>
        <time>2010-10-17T07:52:16Z</time>
      </trkpt>
      <trkpt lat="43.1261" lon="0.0862">
        <ele>559.144043</ele>
        <time>2010-10-17T07:52:20Z</time>
      </trkpt>
      <trkpt lat="43.12599" lon="0.08615">
        <ele>558.6633301</ele>
        <time>2010-10-17T07:52:22Z</time>
      </trkpt>
      <trkpt lat="43.12562" lon="0.08614">
        <ele>556.7407227</ele>
        <time>2010-10-17T07:52:28Z</time>
      </trkpt>
      <trkpt lat="43.12557" lon="0.08616">
        <ele>556.7407227</ele>
        <time>2010-10-17T07:52:29Z</time>
      </trkpt>
      <trkpt lat="43.12534" lon="0.08628">
        <ele>556.7407227</ele>
        <time>2010-10-17T07:52:34Z</time>
      </trkpt>
      <trkpt lat="43.12516" lon="0.08636">
        <ele>557.2214355</ele>
        <time>2010-10-17T07:52:40Z</time>
      </trkpt>
      <trkpt lat="43.12495" lon="0.08644">
        <ele>559.144043</ele>
        <time>2010-10-17T07:52:48Z</time>
      </trkpt>
      <trkpt lat="43.12478" lon="0.08657">
        <ele>559.144043</ele>
        <time>2010-10-17T07:52:54Z</time>
      </trkpt>
      <trkpt lat="43.12453" lon="0.08682">
        <ele>559.144043</ele>
        <time>2010-10-17T07:53:03Z</time>
      </trkpt>
      <trkpt lat="43.12433" lon="0.08703">
        <ele>560.1052246</ele>
        <time>2010-10-17T07:53:11Z</time>
      </trkpt>
      <trkpt lat="43.12417" lon="0.08709">
        <ele>560.5859375</ele>
        <time>2010-10-17T07:53:17Z</time>
      </trkpt>
      <trkpt lat="43.12404" lon="0.08707">
        <ele>561.0666504</ele>
        <time>2010-10-17T07:53:24Z</time>
      </trkpt>
      <trkpt lat="43.12394" lon="0.087">
        <ele>560.5859375</ele>
        <time>2010-10-17T07:53:30Z</time>
      </trkpt>
      <trkpt lat="43.12386" lon="0.08688">
        <ele>562.5085449</ele>
        <time>2010-10-17T07:53:36Z</time>
      </trkpt>
      <trkpt lat="43.1238" lon="0.0868">
        <ele>562.0280762</ele>
        <time>2010-10-17T07:53:40Z</time>
      </trkpt>
      <trkpt lat="43.1237" lon="0.0867">
        <ele>561.0666504</ele>
        <time>2010-10-17T07:53:46Z</time>
      </trkpt>
      <trkpt lat="43.12352" lon="0.08665">
        <ele>564.4311523</ele>
        <time>2010-10-17T07:53:53Z</time>
      </trkpt>
      <trkpt lat="43.12336" lon="0.08668">
        <ele>569.237793</ele>
        <time>2010-10-17T07:54:00Z</time>
      </trkpt>
      <trkpt lat="43.12326" lon="0.08672">
        <ele>570.6796875</ele>
        <time>2010-10-17T07:54:06Z</time>
      </trkpt>
      <trkpt lat="43.12313" lon="0.08675">
        <ele>572.6025391</ele>
        <time>2010-10-17T07:54:13Z</time>
      </trkpt>
      <trkpt lat="43.12297" lon="0.08684">
        <ele>570.6796875</ele>
        <time>2010-10-17T07:54:21Z</time>
      </trkpt>
      <trkpt lat="43.12288" lon="0.08698">
        <ele>572.1218262</ele>
        <time>2010-10-17T07:54:26Z</time>
      </trkpt>
      <trkpt lat="43.12277" lon="0.08712">
        <ele>576.4477539</ele>
        <time>2010-10-17T07:54:31Z</time>
      </trkpt>
      <trkpt lat="43.12268" lon="0.08726">
        <ele>579.8122559</ele>
        <time>2010-10-17T07:54:36Z</time>
      </trkpt>
      <trkpt lat="43.12259" lon="0.08742">
        <ele>580.2929688</ele>
        <time>2010-10-17T07:54:42Z</time>
      </trkpt>
      <trkpt lat="43.12251" lon="0.08752">
        <ele>581.7348633</ele>
        <time>2010-10-17T07:54:47Z</time>
      </trkpt>
      <trkpt lat="43.1224" lon="0.08756">
        <ele>581.2543945</ele>
        <time>2010-10-17T07:54:52Z</time>
      </trkpt>
      <trkpt lat="43.12225" lon="0.08752">
        <ele>579.8122559</ele>
        <time>2010-10-17T07:54:59Z</time>
      </trkpt>
      <trkpt lat="43.1221" lon="0.08752">
        <ele>578.8510742</ele>
        <time>2010-10-17T07:55:05Z</time>
      </trkpt>
      <trkpt lat="43.12196" lon="0.08763">
        <ele>580.2929688</ele>
        <time>2010-10-17T07:55:11Z</time>
      </trkpt>
      <trkpt lat="43.12189" lon="0.08775">
        <ele>581.2543945</ele>
        <time>2010-10-17T07:55:17Z</time>
      </trkpt>
      <trkpt lat="43.12182" lon="0.08794">
        <ele>582.2155762</ele>
        <time>2010-10-17T07:55:25Z</time>
      </trkpt>
      <trkpt lat="43.12176" lon="0.08811">
        <ele>582.2155762</ele>
        <time>2010-10-17T07:55:33Z</time>
      </trkpt>
      <trkpt lat="43.1217" lon="0.0883">
        <ele>584.1381836</ele>
        <time>2010-10-17T07:55:42Z</time>
      </trkpt>
      <trkpt lat="43.12161" lon="0.08845">
        <ele>586.5415039</ele>
        <time>2010-10-17T07:55:51Z</time>
      </trkpt>
      <trkpt lat="43.1215" lon="0.08847">
        <ele>588.4643555</ele>
        <time>2010-10-17T07:55:58Z</time>
      </trkpt>
      <trkpt lat="43.12139" lon="0.08842">
        <ele>589.90625</ele>
        <time>2010-10-17T07:56:04Z</time>
      </trkpt>
      <trkpt lat="43.12124" lon="0.08837">
        <ele>590.8674316</ele>
        <time>2010-10-17T07:56:11Z</time>
      </trkpt>
      <trkpt lat="43.12115" lon="0.08829">
        <ele>591.8288574</ele>
        <time>2010-10-17T07:56:17Z</time>
      </trkpt>
      <trkpt lat="43.12104" lon="0.08814">
        <ele>591.3481445</ele>
        <time>2010-10-17T07:56:22Z</time>
      </trkpt>
      <trkpt lat="43.12093" lon="0.08781">
        <ele>587.5026855</ele>
        <time>2010-10-17T07:56:27Z</time>
      </trkpt>
      <trkpt lat="43.12082" lon="0.08747">
        <ele>584.1381836</ele>
        <time>2010-10-17T07:56:31Z</time>
      </trkpt>
      <trkpt lat="43.12064" lon="0.08723">
        <ele>583.1767578</ele>
        <time>2010-10-17T07:56:35Z</time>
      </trkpt>
      <trkpt lat="43.12057" lon="0.08721">
        <ele>582.6962891</ele>
        <time>2010-10-17T07:56:36Z</time>
      </trkpt>
      <trkpt lat="43.12026" lon="0.08712">
        <ele>581.2543945</ele>
        <time>2010-10-17T07:56:41Z</time>
      </trkpt>
      <trkpt lat="43.12001" lon="0.08693">
        <ele>577.8896484</ele>
        <time>2010-10-17T07:56:45Z</time>
      </trkpt>
      <trkpt lat="43.11959" lon="0.0864">
        <ele>571.1604004</ele>
        <time>2010-10-17T07:56:51Z</time>
      </trkpt>
      <trkpt lat="43.11934" lon="0.08611">
        <ele>566.3537598</ele>
        <time>2010-10-17T07:56:54Z</time>
      </trkpt>
      <trkpt lat="43.11875" lon="0.08573">
        <ele>557.2214355</ele>
        <time>2010-10-17T07:56:59Z</time>
      </trkpt>
      <trkpt lat="43.11831" lon="0.08539">
        <ele>551.934082</ele>
        <time>2010-10-17T07:57:03Z</time>
      </trkpt>
      <trkpt lat="43.11807" lon="0.08519">
        <ele>550.9726563</ele>
        <time>2010-10-17T07:57:06Z</time>
      </trkpt>
      <trkpt lat="43.11798" lon="0.08512">
        <ele>550.9726563</ele>
        <time>2010-10-17T07:57:08Z</time>
      </trkpt>
      <trkpt lat="43.11789" lon="0.08519">
        <ele>551.4533691</ele>
        <time>2010-10-17T07:57:12Z</time>
      </trkpt>
      <trkpt lat="43.11788" lon="0.08524">
        <ele>551.4533691</ele>
        <time>2010-10-17T07:57:13Z</time>
      </trkpt>
      <trkpt lat="43.11786" lon="0.08559">
        <ele>552.4145508</ele>
        <time>2010-10-17T07:57:19Z</time>
      </trkpt>
      <trkpt lat="43.11789" lon="0.08588">
        <ele>551.934082</ele>
        <time>2010-10-17T07:57:24Z</time>
      </trkpt>
      <trkpt lat="43.11779" lon="0.08595">
        <ele>551.934082</ele>
        <time>2010-10-17T07:57:28Z</time>
      </trkpt>
      <trkpt lat="43.11744" lon="0.0859">
        <ele>550.4921875</ele>
        <time>2010-10-17T07:57:36Z</time>
      </trkpt>
      <trkpt lat="43.11729" lon="0.08594">
        <ele>550.4921875</ele>
        <time>2010-10-17T07:57:40Z</time>
      </trkpt>
      <trkpt lat="43.11723" lon="0.08613">
        <ele>550.4921875</ele>
        <time>2010-10-17T07:57:44Z</time>
      </trkpt>
      <trkpt lat="43.11713" lon="0.08658">
        <ele>550.4921875</ele>
        <time>2010-10-17T07:57:51Z</time>
      </trkpt>
      <trkpt lat="43.11706" lon="0.08703">
        <ele>550.9726563</ele>
        <time>2010-10-17T07:57:57Z</time>
      </trkpt>
      <trkpt lat="43.11703" lon="0.08736">
        <ele>550.4921875</ele>
        <time>2010-10-17T07:58:01Z</time>
      </trkpt>
      <trkpt lat="43.11692" lon="0.08766">
        <ele>548.5693359</ele>
        <time>2010-10-17T07:58:05Z</time>
      </trkpt>
      <trkpt lat="43.11655" lon="0.08791">
        <ele>545.204834</ele>
        <time>2010-10-17T07:58:10Z</time>
      </trkpt>
      <trkpt lat="43.11635" lon="0.08798">
        <ele>543.7628174</ele>
        <time>2010-10-17T07:58:12Z</time>
      </trkpt>
      <trkpt lat="43.11609" lon="0.08829">
        <ele>538.475708</ele>
        <time>2010-10-17T07:58:16Z</time>
      </trkpt>
      <trkpt lat="43.11605" lon="0.08838">
        <ele>538.475708</ele>
        <time>2010-10-17T07:58:17Z</time>
      </trkpt>
      <trkpt lat="43.11596" lon="0.0888">
        <ele>535.1109619</ele>
        <time>2010-10-17T07:58:22Z</time>
      </trkpt>
      <trkpt lat="43.11593" lon="0.08911">
        <ele>535.1109619</ele>
        <time>2010-10-17T07:58:26Z</time>
      </trkpt>
      <trkpt lat="43.11585" lon="0.08945">
        <ele>534.1496582</ele>
        <time>2010-10-17T07:58:30Z</time>
      </trkpt>
      <trkpt lat="43.11575" lon="0.0897">
        <ele>531.7463379</ele>
        <time>2010-10-17T07:58:33Z</time>
      </trkpt>
      <trkpt lat="43.11567" lon="0.09008">
        <ele>527.901001</ele>
        <time>2010-10-17T07:58:37Z</time>
      </trkpt>
      <trkpt lat="43.11557" lon="0.0903">
        <ele>524.0557861</ele>
        <time>2010-10-17T07:58:40Z</time>
      </trkpt>
      <trkpt lat="43.11544" lon="0.09052">
        <ele>520.2105713</ele>
        <time>2010-10-17T07:58:43Z</time>
      </trkpt>
      <trkpt lat="43.11533" lon="0.09083">
        <ele>516.8459473</ele>
        <time>2010-10-17T07:58:48Z</time>
      </trkpt>
      <trkpt lat="43.11529" lon="0.09103">
        <ele>514.442627</ele>
        <time>2010-10-17T07:58:50Z</time>
      </trkpt>
      <trkpt lat="43.11535" lon="0.09148">
        <ele>509.6361084</ele>
        <time>2010-10-17T07:58:55Z</time>
      </trkpt>
      <trkpt lat="43.11538" lon="0.09161">
        <ele>508.1940918</ele>
        <time>2010-10-17T07:58:57Z</time>
      </trkpt>
      <trkpt lat="43.11543" lon="0.092">
        <ele>501.9455566</ele>
        <time>2010-10-17T07:59:02Z</time>
      </trkpt>
      <trkpt lat="43.11551" lon="0.09218">
        <ele>497.6196289</ele>
        <time>2010-10-17T07:59:06Z</time>
      </trkpt>
      <trkpt lat="43.11558" lon="0.0922">
        <ele>495.6968994</ele>
        <time>2010-10-17T07:59:08Z</time>
      </trkpt>
      <trkpt lat="43.11556" lon="0.09246">
        <ele>489.4483643</ele>
        <time>2010-10-17T07:59:12Z</time>
      </trkpt>
      <trkpt lat="43.11543" lon="0.09281">
        <ele>487.0450439</ele>
        <time>2010-10-17T07:59:16Z</time>
      </trkpt>
      <trkpt lat="43.11529" lon="0.09302">
        <ele>487.0450439</ele>
        <time>2010-10-17T07:59:20Z</time>
      </trkpt>
      <trkpt lat="43.11526" lon="0.09325">
        <ele>486.0837402</ele>
        <time>2010-10-17T07:59:24Z</time>
      </trkpt>
      <trkpt lat="43.11529" lon="0.09353">
        <ele>492.3323975</ele>
        <time>2010-10-17T07:59:31Z</time>
      </trkpt>
      <trkpt lat="43.11537" lon="0.09378">
        <ele>492.3323975</ele>
        <time>2010-10-17T07:59:37Z</time>
      </trkpt>
      <trkpt lat="43.11545" lon="0.09396">
        <ele>493.2935791</ele>
        <time>2010-10-17T07:59:40Z</time>
      </trkpt>
      <trkpt lat="43.11557" lon="0.09415">
        <ele>492.8129883</ele>
        <time>2010-10-17T07:59:43Z</time>
      </trkpt>
      <trkpt lat="43.11568" lon="0.09445">
        <ele>491.3709717</ele>
        <time>2010-10-17T07:59:47Z</time>
      </trkpt>
      <trkpt lat="43.11569" lon="0.09453">
        <ele>490.40979</ele>
        <time>2010-10-17T07:59:48Z</time>
      </trkpt>
      <trkpt lat="43.11565" lon="0.09504">
        <ele>488.0064697</ele>
        <time>2010-10-17T07:59:54Z</time>
      </trkpt>
      <trkpt lat="43.11562" lon="0.09566">
        <ele>484.6418457</ele>
        <time>2010-10-17T08:00:01Z</time>
      </trkpt>
      <trkpt lat="43.11563" lon="0.09623">
        <ele>481.7578125</ele>
        <time>2010-10-17T08:00:07Z</time>
      </trkpt>
      <trkpt lat="43.11558" lon="0.09696">
        <ele>477.4318848</ele>
        <time>2010-10-17T08:00:14Z</time>
      </trkpt>
      <trkpt lat="43.11548" lon="0.09774">
        <ele>476.4705811</ele>
        <time>2010-10-17T08:00:21Z</time>
      </trkpt>
      <trkpt lat="43.11549" lon="0.09826">
        <ele>475.5092773</ele>
        <time>2010-10-17T08:00:26Z</time>
      </trkpt>
      <trkpt lat="43.11551" lon="0.09896">
        <ele>474.0672607</ele>
        <time>2010-10-17T08:00:34Z</time>
      </trkpt>
      <trkpt lat="43.11554" lon="0.09944">
        <ele>472.1446533</ele>
        <time>2010-10-17T08:00:40Z</time>
      </trkpt>
      <trkpt lat="43.11554" lon="0.09999">
        <ele>472.1446533</ele>
        <time>2010-10-17T08:00:47Z</time>
      </trkpt>
      <trkpt lat="43.11555" lon="0.10006">
        <ele>472.1446533</ele>
        <time>2010-10-17T08:00:48Z</time>
      </trkpt>
      <trkpt lat="43.11557" lon="0.10035">
        <ele>472.1446533</ele>
        <time>2010-10-17T08:00:52Z</time>
      </trkpt>
      <trkpt lat="43.11564" lon="0.10069">
        <ele>472.6253662</ele>
        <time>2010-10-17T08:00:57Z</time>
      </trkpt>
      <trkpt lat="43.11567" lon="0.10096">
        <ele>472.1446533</ele>
        <time>2010-10-17T08:01:01Z</time>
      </trkpt>
      <trkpt lat="43.1157" lon="0.1011">
        <ele>472.1446533</ele>
        <time>2010-10-17T08:01:03Z</time>
      </trkpt>
      <trkpt lat="43.11573" lon="0.10123">
        <ele>471.6639404</ele>
        <time>2010-10-17T08:01:05Z</time>
      </trkpt>
      <trkpt lat="43.11593" lon="0.10169">
        <ele>470.2219238</ele>
        <time>2010-10-17T08:01:12Z</time>
      </trkpt>
      <trkpt lat="43.11619" lon="0.10216">
        <ele>470.7026367</ele>
        <time>2010-10-17T08:01:20Z</time>
      </trkpt>
      <trkpt lat="43.11641" lon="0.10241">
        <ele>470.2219238</ele>
        <time>2010-10-17T08:01:25Z</time>
      </trkpt>
      <trkpt lat="43.11673" lon="0.10277">
        <ele>467.3381348</ele>
        <time>2010-10-17T08:01:31Z</time>
      </trkpt>
      <trkpt lat="43.11696" lon="0.10308">
        <ele>465.8961182</ele>
        <time>2010-10-17T08:01:35Z</time>
      </trkpt>
      <trkpt lat="43.11711" lon="0.10353">
        <ele>466.8574219</ele>
        <time>2010-10-17T08:01:40Z</time>
      </trkpt>
      <trkpt lat="43.11726" lon="0.10397">
        <ele>467.3381348</ele>
        <time>2010-10-17T08:01:46Z</time>
      </trkpt>
      <trkpt lat="43.11747" lon="0.10442">
        <ele>466.8574219</ele>
        <time>2010-10-17T08:01:53Z</time>
      </trkpt>
      <trkpt lat="43.11757" lon="0.10466">
        <ele>466.8574219</ele>
        <time>2010-10-17T08:01:57Z</time>
      </trkpt>
      <trkpt lat="43.11761" lon="0.10489">
        <ele>467.3381348</ele>
        <time>2010-10-17T08:02:01Z</time>
      </trkpt>
      <trkpt lat="43.11765" lon="0.10537">
        <ele>465.4155273</ele>
        <time>2010-10-17T08:02:07Z</time>
      </trkpt>
      <trkpt lat="43.11766" lon="0.106">
        <ele>462.0507813</ele>
        <time>2010-10-17T08:02:13Z</time>
      </trkpt>
      <trkpt lat="43.11766" lon="0.10649">
        <ele>459.647583</ele>
        <time>2010-10-17T08:02:17Z</time>
      </trkpt>
      <trkpt lat="43.11754" lon="0.10709">
        <ele>458.2055664</ele>
        <time>2010-10-17T08:02:22Z</time>
      </trkpt>
      <trkpt lat="43.11733" lon="0.10778">
        <ele>459.1668701</ele>
        <time>2010-10-17T08:02:29Z</time>
      </trkpt>
      <trkpt lat="43.11713" lon="0.10846">
        <ele>460.6087646</ele>
        <time>2010-10-17T08:02:37Z</time>
      </trkpt>
      <trkpt lat="43.1169" lon="0.10919">
        <ele>460.1281738</ele>
        <time>2010-10-17T08:02:47Z</time>
      </trkpt>
      <trkpt lat="43.11678" lon="0.10958">
        <ele>461.0894775</ele>
        <time>2010-10-17T08:02:53Z</time>
      </trkpt>
      <trkpt lat="43.11661" lon="0.10971">
        <ele>459.647583</ele>
        <time>2010-10-17T08:02:58Z</time>
      </trkpt>
      <trkpt lat="43.11625" lon="0.10998">
        <ele>460.1281738</ele>
        <time>2010-10-17T08:03:08Z</time>
      </trkpt>
      <trkpt lat="43.11598" lon="0.11019">
        <ele>460.1281738</ele>
        <time>2010-10-17T08:03:16Z</time>
      </trkpt>
      <trkpt lat="43.11574" lon="0.11034">
        <ele>460.6087646</ele>
        <time>2010-10-17T08:03:23Z</time>
      </trkpt>
      <trkpt lat="43.11553" lon="0.11048">
        <ele>461.0894775</ele>
        <time>2010-10-17T08:03:30Z</time>
      </trkpt>
      <trkpt lat="43.11528" lon="0.11068">
        <ele>461.0894775</ele>
        <time>2010-10-17T08:03:39Z</time>
      </trkpt>
      <trkpt lat="43.11511" lon="0.1108">
        <ele>461.5701904</ele>
        <time>2010-10-17T08:03:46Z</time>
      </trkpt>
      <trkpt lat="43.11508" lon="0.11081">
        <ele>461.5701904</ele>
        <time>2010-10-17T08:03:48Z</time>
      </trkpt>
      <trkpt lat="43.11504" lon="0.11079">
        <ele>462.5313721</ele>
        <time>2010-10-17T08:03:51Z</time>
      </trkpt>
      <trkpt lat="43.11499" lon="0.11059">
        <ele>464.4541016</ele>
        <time>2010-10-17T08:04:01Z</time>
      </trkpt>
      <trkpt lat="43.11494" lon="0.11048">
        <ele>467.3381348</ele>
        <time>2010-10-17T08:04:08Z</time>
      </trkpt>
      <trkpt lat="43.11491" lon="0.11034">
        <ele>465.8961182</ele>
        <time>2010-10-17T08:04:15Z</time>
      </trkpt>
      <trkpt lat="43.11492" lon="0.11028">
        <ele>465.8961182</ele>
        <time>2010-10-17T08:04:19Z</time>
      </trkpt>
      <trkpt lat="43.11499" lon="0.11014">
        <ele>465.8961182</ele>
        <time>2010-10-17T08:04:28Z</time>
      </trkpt>
      <trkpt lat="43.11501" lon="0.11006">
        <ele>462.0507813</ele>
        <time>2010-10-17T08:04:35Z</time>
      </trkpt>
      <trkpt lat="43.11503" lon="0.11002">
        <ele>467.3381348</ele>
        <time>2010-10-17T08:04:44Z</time>
      </trkpt>
      <trkpt lat="43.1151" lon="0.10994">
        <ele>472.6253662</ele>
        <time>2010-10-17T08:04:51Z</time>
      </trkpt>
      <trkpt lat="43.11512" lon="0.10986">
        <ele>473.1060791</ele>
        <time>2010-10-17T08:04:57Z</time>
      </trkpt>
      <trkpt lat="43.11516" lon="0.10983">
        <ele>475.5092773</ele>
        <time>2010-10-17T08:05:00Z</time>
      </trkpt>
      <trkpt lat="43.11525" lon="0.10973">
        <ele>476.9512939</ele>
        <time>2010-10-17T08:05:07Z</time>
      </trkpt>
      <trkpt lat="43.11525" lon="0.10967">
        <ele>475.9898682</ele>
        <time>2010-10-17T08:05:10Z</time>
      </trkpt>
      <trkpt lat="43.11528" lon="0.10956">
        <ele>477.4318848</ele>
        <time>2010-10-17T08:05:16Z</time>
      </trkpt>
      <trkpt lat="43.11531" lon="0.10945">
        <ele>478.8739014</ele>
        <time>2010-10-17T08:05:22Z</time>
      </trkpt>
      <trkpt lat="43.11535" lon="0.10934">
        <ele>480.7966309</ele>
        <time>2010-10-17T08:05:30Z</time>
      </trkpt>
      <trkpt lat="43.11536" lon="0.10927">
        <ele>479.835083</ele>
        <time>2010-10-17T08:05:37Z</time>
      </trkpt>
      <trkpt lat="43.11534" lon="0.1092">
        <ele>480.315918</ele>
        <time>2010-10-17T08:05:43Z</time>
      </trkpt>
      <trkpt lat="43.11532" lon="0.10912">
        <ele>482.7192383</ele>
        <time>2010-10-17T08:05:49Z</time>
      </trkpt>
      <trkpt lat="43.11529" lon="0.10903">
        <ele>481.7578125</ele>
        <time>2010-10-17T08:05:55Z</time>
      </trkpt>
      <trkpt lat="43.11527" lon="0.10896">
        <ele>485.6030273</ele>
        <time>2010-10-17T08:06:01Z</time>
      </trkpt>
      <trkpt lat="43.11524" lon="0.10889">
        <ele>487.5256348</ele>
        <time>2010-10-17T08:06:07Z</time>
      </trkpt>
      <trkpt lat="43.11522" lon="0.10881">
        <ele>490.8903809</ele>
        <time>2010-10-17T08:06:14Z</time>
      </trkpt>
      <trkpt lat="43.1152" lon="0.10875">
        <ele>491.8516846</ele>
        <time>2010-10-17T08:06:19Z</time>
      </trkpt>
      <trkpt lat="43.11518" lon="0.10868">
        <ele>495.6968994</ele>
        <time>2010-10-17T08:06:25Z</time>
      </trkpt>
      <trkpt lat="43.11515" lon="0.10856">
        <ele>495.6968994</ele>
        <time>2010-10-17T08:06:33Z</time>
      </trkpt>
      <trkpt lat="43.11513" lon="0.1085">
        <ele>497.6196289</ele>
        <time>2010-10-17T08:06:38Z</time>
      </trkpt>
      <trkpt lat="43.11511" lon="0.1084">
        <ele>495.2161865</ele>
        <time>2010-10-17T08:06:44Z</time>
      </trkpt>
      <trkpt lat="43.1151" lon="0.10836">
        <ele>498.1003418</ele>
        <time>2010-10-17T08:06:50Z</time>
      </trkpt>
      <trkpt lat="43.11508" lon="0.1083">
        <ele>499.5422363</ele>
        <time>2010-10-17T08:06:56Z</time>
      </trkpt>
      <trkpt lat="43.11504" lon="0.10824">
        <ele>499.5422363</ele>
        <time>2010-10-17T08:07:02Z</time>
      </trkpt>
      <trkpt lat="43.11503" lon="0.10823">
        <ele>500.0229492</ele>
        <time>2010-10-17T08:07:03Z</time>
      </trkpt>
      <trkpt lat="43.11497" lon="0.10814">
        <ele>503.3874512</ele>
        <time>2010-10-17T08:07:11Z</time>
      </trkpt>
      <trkpt lat="43.11495" lon="0.1081">
        <ele>502.4261475</ele>
        <time>2010-10-17T08:07:17Z</time>
      </trkpt>
      <trkpt lat="43.11489" lon="0.10804">
        <ele>500.0229492</ele>
        <time>2010-10-17T08:07:25Z</time>
      </trkpt>
      <trkpt lat="43.11484" lon="0.10798">
        <ele>502.9067383</ele>
        <time>2010-10-17T08:07:32Z</time>
      </trkpt>
      <trkpt lat="43.11478" lon="0.10795">
        <ele>506.7520752</ele>
        <time>2010-10-17T08:07:38Z</time>
      </trkpt>
      <trkpt lat="43.11474" lon="0.10789">
        <ele>501.9455566</ele>
        <time>2010-10-17T08:07:44Z</time>
      </trkpt>
      <trkpt lat="43.11467" lon="0.1078">
        <ele>504.8294678</ele>
        <time>2010-10-17T08:07:51Z</time>
      </trkpt>
      <trkpt lat="43.11462" lon="0.1077">
        <ele>502.9067383</ele>
        <time>2010-10-17T08:07:57Z</time>
      </trkpt>
      <trkpt lat="43.11461" lon="0.10768">
        <ele>501.4648438</ele>
        <time>2010-10-17T08:07:58Z</time>
      </trkpt>
      <trkpt lat="43.11455" lon="0.10751">
        <ele>500.0229492</ele>
        <time>2010-10-17T08:08:06Z</time>
      </trkpt>
      <trkpt lat="43.11454" lon="0.10749">
        <ele>498.1003418</ele>
        <time>2010-10-17T08:08:07Z</time>
      </trkpt>
      <trkpt lat="43.11445" lon="0.1074">
        <ele>491.3709717</ele>
        <time>2010-10-17T08:08:13Z</time>
      </trkpt>
      <trkpt lat="43.11432" lon="0.10734">
        <ele>496.6583252</ele>
        <time>2010-10-17T08:08:20Z</time>
      </trkpt>
      <trkpt lat="43.11421" lon="0.1073">
        <ele>504.348877</ele>
        <time>2010-10-17T08:08:28Z</time>
      </trkpt>
      <trkpt lat="43.11408" lon="0.10727">
        <ele>507.2327881</ele>
        <time>2010-10-17T08:08:36Z</time>
      </trkpt>
      <trkpt lat="43.114" lon="0.10722">
        <ele>510.1166992</ele>
        <time>2010-10-17T08:08:42Z</time>
      </trkpt>
      <trkpt lat="43.11391" lon="0.1072">
        <ele>512.5200195</ele>
        <time>2010-10-17T08:08:49Z</time>
      </trkpt>
      <trkpt lat="43.11383" lon="0.10719">
        <ele>512.5200195</ele>
        <time>2010-10-17T08:08:55Z</time>
      </trkpt>
      <trkpt lat="43.11376" lon="0.10717">
        <ele>514.442627</ele>
        <time>2010-10-17T08:09:03Z</time>
      </trkpt>
      <trkpt lat="43.11365" lon="0.10715">
        <ele>518.2878418</ele>
        <time>2010-10-17T08:09:10Z</time>
      </trkpt>
      <trkpt lat="43.11355" lon="0.10712">
        <ele>520.2105713</ele>
        <time>2010-10-17T08:09:18Z</time>
      </trkpt>
      <trkpt lat="43.11344" lon="0.10709">
        <ele>523.5751953</ele>
        <time>2010-10-17T08:09:27Z</time>
      </trkpt>
      <trkpt lat="43.11334" lon="0.10707">
        <ele>525.4978027</ele>
        <time>2010-10-17T08:09:34Z</time>
      </trkpt>
      <trkpt lat="43.11326" lon="0.10705">
        <ele>528.8625488</ele>
        <time>2010-10-17T08:09:41Z</time>
      </trkpt>
      <trkpt lat="43.11317" lon="0.10705">
        <ele>530.7851563</ele>
        <time>2010-10-17T08:09:48Z</time>
      </trkpt>
      <trkpt lat="43.11308" lon="0.10706">
        <ele>532.2270508</ele>
        <time>2010-10-17T08:09:55Z</time>
      </trkpt>
      <trkpt lat="43.11297" lon="0.10707">
        <ele>538.9562988</ele>
        <time>2010-10-17T08:10:02Z</time>
      </trkpt>
      <trkpt lat="43.11282" lon="0.10708">
        <ele>543.2821045</ele>
        <time>2010-10-17T08:10:10Z</time>
      </trkpt>
      <trkpt lat="43.11276" lon="0.1071">
        <ele>542.3209229</ele>
        <time>2010-10-17T08:10:16Z</time>
      </trkpt>
      <trkpt lat="43.11263" lon="0.10711">
        <ele>540.3983154</ele>
        <time>2010-10-17T08:10:23Z</time>
      </trkpt>
      <trkpt lat="43.11252" lon="0.1071">
        <ele>541.84021</ele>
        <time>2010-10-17T08:10:29Z</time>
      </trkpt>
      <trkpt lat="43.11243" lon="0.10712">
        <ele>540.3983154</ele>
        <time>2010-10-17T08:10:36Z</time>
      </trkpt>
      <trkpt lat="43.11236" lon="0.10713">
        <ele>536.5531006</ele>
        <time>2010-10-17T08:10:41Z</time>
      </trkpt>
      <trkpt lat="43.11223" lon="0.10713">
        <ele>535.5915527</ele>
        <time>2010-10-17T08:10:48Z</time>
      </trkpt>
      <trkpt lat="43.11203" lon="0.10708">
        <ele>536.5531006</ele>
        <time>2010-10-17T08:10:55Z</time>
      </trkpt>
      <trkpt lat="43.112" lon="0.10709">
        <ele>536.5531006</ele>
        <time>2010-10-17T08:10:56Z</time>
      </trkpt>
      <trkpt lat="43.11187" lon="0.10715">
        <ele>536.5531006</ele>
        <time>2010-10-17T08:11:02Z</time>
      </trkpt>
      <trkpt lat="43.11184" lon="0.10716">
        <ele>536.5531006</ele>
        <time>2010-10-17T08:11:04Z</time>
      </trkpt>
      <trkpt lat="43.11171" lon="0.10711">
        <ele>538.9562988</ele>
        <time>2010-10-17T08:11:11Z</time>
      </trkpt>
      <trkpt lat="43.11164" lon="0.10714">
        <ele>540.8789063</ele>
        <time>2010-10-17T08:11:16Z</time>
      </trkpt>
      <trkpt lat="43.11154" lon="0.10719">
        <ele>541.84021</ele>
        <time>2010-10-17T08:11:23Z</time>
      </trkpt>
      <trkpt lat="43.11151" lon="0.1072">
        <ele>541.84021</ele>
        <time>2010-10-17T08:11:25Z</time>
      </trkpt>
      <trkpt lat="43.11145" lon="0.10719">
        <ele>542.8015137</ele>
        <time>2010-10-17T08:11:29Z</time>
      </trkpt>
      <trkpt lat="43.11137" lon="0.1071">
        <ele>541.3594971</ele>
        <time>2010-10-17T08:11:36Z</time>
      </trkpt>
      <trkpt lat="43.11134" lon="0.10706">
        <ele>538.475708</ele>
        <time>2010-10-17T08:11:40Z</time>
      </trkpt>
      <trkpt lat="43.11123" lon="0.10703">
        <ele>538.9562988</ele>
        <time>2010-10-17T08:11:46Z</time>
      </trkpt>
      <trkpt lat="43.11116" lon="0.10703">
        <ele>539.4368896</ele>
        <time>2010-10-17T08:11:51Z</time>
      </trkpt>
      <trkpt lat="43.11105" lon="0.10708">
        <ele>543.7628174</ele>
        <time>2010-10-17T08:11:58Z</time>
      </trkpt>
      <trkpt lat="43.11094" lon="0.10711">
        <ele>548.0888672</ele>
        <time>2010-10-17T08:12:04Z</time>
      </trkpt>
      <trkpt lat="43.11084" lon="0.10718">
        <ele>550.0114746</ele>
        <time>2010-10-17T08:12:10Z</time>
      </trkpt>
      <trkpt lat="43.11068" lon="0.10728">
        <ele>551.4533691</ele>
        <time>2010-10-17T08:12:19Z</time>
      </trkpt>
      <trkpt lat="43.11056" lon="0.10735">
        <ele>552.4145508</ele>
        <time>2010-10-17T08:12:26Z</time>
      </trkpt>
      <trkpt lat="43.11037" lon="0.10747">
        <ele>553.3759766</ele>
        <time>2010-10-17T08:12:36Z</time>
      </trkpt>
      <trkpt lat="43.11019" lon="0.10759">
        <ele>554.8178711</ele>
        <time>2010-10-17T08:12:46Z</time>
      </trkpt>
      <trkpt lat="43.11" lon="0.10773">
        <ele>555.298584</ele>
        <time>2010-10-17T08:12:55Z</time>
      </trkpt>
      <trkpt lat="43.10976" lon="0.10794">
        <ele>554.8178711</ele>
        <time>2010-10-17T08:13:05Z</time>
      </trkpt>
      <trkpt lat="43.10964" lon="0.10805">
        <ele>553.8566895</ele>
        <time>2010-10-17T08:13:09Z</time>
      </trkpt>
      <trkpt lat="43.10945" lon="0.10805">
        <ele>553.8566895</ele>
        <time>2010-10-17T08:13:14Z</time>
      </trkpt>
      <trkpt lat="43.10933" lon="0.10793">
        <ele>552.4145508</ele>
        <time>2010-10-17T08:13:18Z</time>
      </trkpt>
      <trkpt lat="43.10925" lon="0.10773">
        <ele>550.0114746</ele>
        <time>2010-10-17T08:13:23Z</time>
      </trkpt>
      <trkpt lat="43.10919" lon="0.10758">
        <ele>546.1662598</ele>
        <time>2010-10-17T08:13:27Z</time>
      </trkpt>
      <trkpt lat="43.1091" lon="0.10733">
        <ele>544.2436523</ele>
        <time>2010-10-17T08:13:33Z</time>
      </trkpt>
      <trkpt lat="43.10899" lon="0.10708">
        <ele>540.8789063</ele>
        <time>2010-10-17T08:13:40Z</time>
      </trkpt>
      <trkpt lat="43.1089" lon="0.10693">
        <ele>539.4368896</ele>
        <time>2010-10-17T08:13:46Z</time>
      </trkpt>
      <trkpt lat="43.10871" lon="0.10678">
        <ele>542.3209229</ele>
        <time>2010-10-17T08:13:51Z</time>
      </trkpt>
      <trkpt lat="43.10844" lon="0.10687">
        <ele>542.3209229</ele>
        <time>2010-10-17T08:13:55Z</time>
      </trkpt>
      <trkpt lat="43.1081" lon="0.10695">
        <ele>539.4368896</ele>
        <time>2010-10-17T08:13:59Z</time>
      </trkpt>
      <trkpt lat="43.10806" lon="0.10688">
        <ele>540.8789063</ele>
        <time>2010-10-17T08:14:01Z</time>
      </trkpt>
      <trkpt lat="43.1081" lon="0.10676">
        <ele>540.8789063</ele>
        <time>2010-10-17T08:14:04Z</time>
      </trkpt>
      <trkpt lat="43.10809" lon="0.10672">
        <ele>542.3209229</ele>
        <time>2010-10-17T08:14:06Z</time>
      </trkpt>
      <trkpt lat="43.10812" lon="0.10657">
        <ele>537.5142822</ele>
        <time>2010-10-17T08:14:13Z</time>
      </trkpt>
      <trkpt lat="43.10811" lon="0.1065">
        <ele>537.0336914</ele>
        <time>2010-10-17T08:14:17Z</time>
      </trkpt>
      <trkpt lat="43.10814" lon="0.10635">
        <ele>535.1109619</ele>
        <time>2010-10-17T08:14:25Z</time>
      </trkpt>
      <trkpt lat="43.10815" lon="0.10631">
        <ele>532.7077637</ele>
        <time>2010-10-17T08:14:27Z</time>
      </trkpt>
      <trkpt lat="43.10814" lon="0.10612">
        <ele>528.3818359</ele>
        <time>2010-10-17T08:14:36Z</time>
      </trkpt>
      <trkpt lat="43.10814" lon="0.106">
        <ele>526.4591064</ele>
        <time>2010-10-17T08:14:42Z</time>
      </trkpt>
      <trkpt lat="43.10814" lon="0.10587">
        <ele>525.0172119</ele>
        <time>2010-10-17T08:14:48Z</time>
      </trkpt>
      <trkpt lat="43.10812" lon="0.10577">
        <ele>531.7463379</ele>
        <time>2010-10-17T08:14:54Z</time>
      </trkpt>
      <trkpt lat="43.10812" lon="0.10562">
        <ele>533.6689453</ele>
        <time>2010-10-17T08:15:01Z</time>
      </trkpt>
      <trkpt lat="43.10811" lon="0.10544">
        <ele>536.5531006</ele>
        <time>2010-10-17T08:15:10Z</time>
      </trkpt>
      <trkpt lat="43.10812" lon="0.10529">
        <ele>538.475708</ele>
        <time>2010-10-17T08:15:17Z</time>
      </trkpt>
      <trkpt lat="43.10811" lon="0.10513">
        <ele>545.6855469</ele>
        <time>2010-10-17T08:15:24Z</time>
      </trkpt>
      <trkpt lat="43.10813" lon="0.10499">
        <ele>554.8178711</ele>
        <time>2010-10-17T08:15:32Z</time>
      </trkpt>
      <trkpt lat="43.10813" lon="0.10494">
        <ele>554.8178711</ele>
        <time>2010-10-17T08:15:35Z</time>
      </trkpt>
      <trkpt lat="43.10803" lon="0.10486">
        <ele>560.1052246</ele>
        <time>2010-10-17T08:15:43Z</time>
      </trkpt>
      <trkpt lat="43.10788" lon="0.10477">
        <ele>563.9504395</ele>
        <time>2010-10-17T08:15:52Z</time>
      </trkpt>
      <trkpt lat="43.10778" lon="0.1047">
        <ele>564.9118652</ele>
        <time>2010-10-17T08:15:58Z</time>
      </trkpt>
      <trkpt lat="43.10767" lon="0.10463">
        <ele>567.3151855</ele>
        <time>2010-10-17T08:16:06Z</time>
      </trkpt>
      <trkpt lat="43.10757" lon="0.10457">
        <ele>569.237793</ele>
        <time>2010-10-17T08:16:13Z</time>
      </trkpt>
      <trkpt lat="43.10746" lon="0.10449">
        <ele>571.1604004</ele>
        <time>2010-10-17T08:16:21Z</time>
      </trkpt>
      <trkpt lat="43.10735" lon="0.10439">
        <ele>573.083252</ele>
        <time>2010-10-17T08:16:30Z</time>
      </trkpt>
      <trkpt lat="43.10728" lon="0.10431">
        <ele>574.5251465</ele>
        <time>2010-10-17T08:16:37Z</time>
      </trkpt>
      <trkpt lat="43.10717" lon="0.10419">
        <ele>575.4863281</ele>
        <time>2010-10-17T08:16:46Z</time>
      </trkpt>
      <trkpt lat="43.10705" lon="0.10406">
        <ele>575.4863281</ele>
        <time>2010-10-17T08:16:52Z</time>
      </trkpt>
      <trkpt lat="43.10689" lon="0.1039">
        <ele>574.5251465</ele>
        <time>2010-10-17T08:16:59Z</time>
      </trkpt>
      <trkpt lat="43.10672" lon="0.10372">
        <ele>572.6025391</ele>
        <time>2010-10-17T08:17:06Z</time>
      </trkpt>
      <trkpt lat="43.10657" lon="0.10358">
        <ele>568.7570801</ele>
        <time>2010-10-17T08:17:11Z</time>
      </trkpt>
      <trkpt lat="43.10628" lon="0.10338">
        <ele>565.873291</ele>
        <time>2010-10-17T08:17:18Z</time>
      </trkpt>
      <trkpt lat="43.106" lon="0.10324">
        <ele>563.4699707</ele>
        <time>2010-10-17T08:17:23Z</time>
      </trkpt>
      <trkpt lat="43.1058" lon="0.10326">
        <ele>563.4699707</ele>
        <time>2010-10-17T08:17:28Z</time>
      </trkpt>
      <trkpt lat="43.10575" lon="0.10333">
        <ele>563.9504395</ele>
        <time>2010-10-17T08:17:30Z</time>
      </trkpt>
      <trkpt lat="43.10559" lon="0.10364">
        <ele>564.4311523</ele>
        <time>2010-10-17T08:17:37Z</time>
      </trkpt>
      <trkpt lat="43.10538" lon="0.10405">
        <ele>567.3151855</ele>
        <time>2010-10-17T08:17:44Z</time>
      </trkpt>
      <trkpt lat="43.10533" lon="0.10418">
        <ele>567.7956543</ele>
        <time>2010-10-17T08:17:46Z</time>
      </trkpt>
      <trkpt lat="43.10522" lon="0.10421">
        <ele>567.3151855</ele>
        <time>2010-10-17T08:17:50Z</time>
      </trkpt>
      <trkpt lat="43.10521" lon="0.10418">
        <ele>567.3151855</ele>
        <time>2010-10-17T08:17:51Z</time>
      </trkpt>
      <trkpt lat="43.10518" lon="0.10408">
        <ele>568.7570801</ele>
        <time>2010-10-17T08:17:55Z</time>
      </trkpt>
      <trkpt lat="43.10504" lon="0.10403">
        <ele>572.1218262</ele>
        <time>2010-10-17T08:18:03Z</time>
      </trkpt>
      <trkpt lat="43.1049" lon="0.10409">
        <ele>573.5639648</ele>
        <time>2010-10-17T08:18:10Z</time>
      </trkpt>
      <trkpt lat="43.10473" lon="0.10424">
        <ele>574.5251465</ele>
        <time>2010-10-17T08:18:18Z</time>
      </trkpt>
      <trkpt lat="43.10451" lon="0.10446">
        <ele>575.4863281</ele>
        <time>2010-10-17T08:18:28Z</time>
      </trkpt>
      <trkpt lat="43.10426" lon="0.1047">
        <ele>577.4091797</ele>
        <time>2010-10-17T08:18:39Z</time>
      </trkpt>
      <trkpt lat="43.10408" lon="0.1049">
        <ele>579.8122559</ele>
        <time>2010-10-17T08:18:49Z</time>
      </trkpt>
      <trkpt lat="43.10393" lon="0.10505">
        <ele>582.2155762</ele>
        <time>2010-10-17T08:18:58Z</time>
      </trkpt>
      <trkpt lat="43.10378" lon="0.1052">
        <ele>584.1381836</ele>
        <time>2010-10-17T08:19:06Z</time>
      </trkpt>
      <trkpt lat="43.10364" lon="0.10532">
        <ele>585.5800781</ele>
        <time>2010-10-17T08:19:14Z</time>
      </trkpt>
      <trkpt lat="43.10345" lon="0.10546">
        <ele>587.5026855</ele>
        <time>2010-10-17T08:19:24Z</time>
      </trkpt>
      <trkpt lat="43.10328" lon="0.10555">
        <ele>588.4643555</ele>
        <time>2010-10-17T08:19:33Z</time>
      </trkpt>
      <trkpt lat="43.10308" lon="0.10565">
        <ele>588.9450684</ele>
        <time>2010-10-17T08:19:43Z</time>
      </trkpt>
      <trkpt lat="43.10288" lon="0.10575">
        <ele>587.5026855</ele>
        <time>2010-10-17T08:19:52Z</time>
      </trkpt>
      <trkpt lat="43.10273" lon="0.10586">
        <ele>588.4643555</ele>
        <time>2010-10-17T08:19:59Z</time>
      </trkpt>
      <trkpt lat="43.10262" lon="0.10596">
        <ele>588.9450684</ele>
        <time>2010-10-17T08:20:05Z</time>
      </trkpt>
      <trkpt lat="43.10247" lon="0.10605">
        <ele>589.4255371</ele>
        <time>2010-10-17T08:20:12Z</time>
      </trkpt>
      <trkpt lat="43.10227" lon="0.10614">
        <ele>590.3869629</ele>
        <time>2010-10-17T08:20:19Z</time>
      </trkpt>
      <trkpt lat="43.10212" lon="0.1062">
        <ele>589.4255371</ele>
        <time>2010-10-17T08:20:24Z</time>
      </trkpt>
      <trkpt lat="43.10186" lon="0.10637">
        <ele>588.4643555</ele>
        <time>2010-10-17T08:20:34Z</time>
      </trkpt>
      <trkpt lat="43.10163" lon="0.10652">
        <ele>587.5026855</ele>
        <time>2010-10-17T08:20:43Z</time>
      </trkpt>
      <trkpt lat="43.10148" lon="0.10662">
        <ele>586.5415039</ele>
        <time>2010-10-17T08:20:47Z</time>
      </trkpt>
      <trkpt lat="43.10122" lon="0.10663">
        <ele>582.6962891</ele>
        <time>2010-10-17T08:20:52Z</time>
      </trkpt>
      <trkpt lat="43.10107" lon="0.10665">
        <ele>580.2929688</ele>
        <time>2010-10-17T08:20:55Z</time>
      </trkpt>
      <trkpt lat="43.10089" lon="0.10667">
        <ele>578.3703613</ele>
        <time>2010-10-17T08:20:59Z</time>
      </trkpt>
      <trkpt lat="43.10079" lon="0.10666">
        <ele>577.4091797</ele>
        <time>2010-10-17T08:21:01Z</time>
      </trkpt>
      <trkpt lat="43.10056" lon="0.10674">
        <ele>578.3703613</ele>
        <time>2010-10-17T08:21:07Z</time>
      </trkpt>
      <trkpt lat="43.10033" lon="0.10681">
        <ele>578.8510742</ele>
        <time>2010-10-17T08:21:13Z</time>
      </trkpt>
      <trkpt lat="43.10017" lon="0.10682">
        <ele>578.8510742</ele>
        <time>2010-10-17T08:21:18Z</time>
      </trkpt>
      <trkpt lat="43.09999" lon="0.10684">
        <ele>579.8122559</ele>
        <time>2010-10-17T08:21:26Z</time>
      </trkpt>
      <trkpt lat="43.09984" lon="0.10686">
        <ele>581.2543945</ele>
        <time>2010-10-17T08:21:34Z</time>
      </trkpt>
      <trkpt lat="43.09973" lon="0.10688">
        <ele>582.6962891</ele>
        <time>2010-10-17T08:21:40Z</time>
      </trkpt>
      <trkpt lat="43.09961" lon="0.10689">
        <ele>584.1381836</ele>
        <time>2010-10-17T08:21:48Z</time>
      </trkpt>
      <trkpt lat="43.09945" lon="0.1069">
        <ele>585.5800781</ele>
        <time>2010-10-17T08:21:58Z</time>
      </trkpt>
      <trkpt lat="43.0994" lon="0.10688">
        <ele>586.5415039</ele>
        <time>2010-10-17T08:22:01Z</time>
      </trkpt>
      <trkpt lat="43.09938" lon="0.10672">
        <ele>588.4643555</ele>
        <time>2010-10-17T08:22:08Z</time>
      </trkpt>
      <trkpt lat="43.09936" lon="0.10656">
        <ele>589.90625</ele>
        <time>2010-10-17T08:22:15Z</time>
      </trkpt>
      <trkpt lat="43.09929" lon="0.10642">
        <ele>590.3869629</ele>
        <time>2010-10-17T08:22:22Z</time>
      </trkpt>
      <trkpt lat="43.09922" lon="0.10641">
        <ele>590.3869629</ele>
        <time>2010-10-17T08:22:27Z</time>
      </trkpt>
      <trkpt lat="43.0992" lon="0.10642">
        <ele>590.3869629</ele>
        <time>2010-10-17T08:22:28Z</time>
      </trkpt>
      <trkpt lat="43.09915" lon="0.10658">
        <ele>591.3481445</ele>
        <time>2010-10-17T08:22:36Z</time>
      </trkpt>
      <trkpt lat="43.09912" lon="0.10663">
        <ele>592.7902832</ele>
        <time>2010-10-17T08:22:41Z</time>
      </trkpt>
      <trkpt lat="43.09911" lon="0.10664">
        <ele>592.3095703</ele>
        <time>2010-10-17T08:22:42Z</time>
      </trkpt>
      <trkpt lat="43.0991" lon="0.10669">
        <ele>594.2321777</ele>
        <time>2010-10-17T08:22:48Z</time>
      </trkpt>
      <trkpt lat="43.09909" lon="0.1067">
        <ele>595.1933594</ele>
        <time>2010-10-17T08:22:57Z</time>
      </trkpt>
      <trkpt lat="43.09907" lon="0.10674">
        <ele>596.1547852</ele>
        <time>2010-10-17T08:23:02Z</time>
      </trkpt>
      <trkpt lat="43.099" lon="0.10683">
        <ele>598.0773926</ele>
        <time>2010-10-17T08:23:10Z</time>
      </trkpt>
      <trkpt lat="43.09889" lon="0.10689">
        <ele>600.4807129</ele>
        <time>2010-10-17T08:23:19Z</time>
      </trkpt>
      <trkpt lat="43.09877" lon="0.10694">
        <ele>602.4030762</ele>
        <time>2010-10-17T08:23:28Z</time>
      </trkpt>
      <trkpt lat="43.09865" lon="0.107">
        <ele>604.3261719</ele>
        <time>2010-10-17T08:23:36Z</time>
      </trkpt>
      <trkpt lat="43.09852" lon="0.10704">
        <ele>606.2485352</ele>
        <time>2010-10-17T08:23:45Z</time>
      </trkpt>
      <trkpt lat="43.09842" lon="0.10708">
        <ele>606.729248</ele>
        <time>2010-10-17T08:23:52Z</time>
      </trkpt>
      <trkpt lat="43.09834" lon="0.10712">
        <ele>606.729248</ele>
        <time>2010-10-17T08:23:59Z</time>
      </trkpt>
      <trkpt lat="43.09827" lon="0.10714">
        <ele>607.2099609</ele>
        <time>2010-10-17T08:24:05Z</time>
      </trkpt>
      <trkpt lat="43.0981" lon="0.10721">
        <ele>607.6906738</ele>
        <time>2010-10-17T08:24:16Z</time>
      </trkpt>
      <trkpt lat="43.098" lon="0.10727">
        <ele>609.6132813</ele>
        <time>2010-10-17T08:24:23Z</time>
      </trkpt>
      <trkpt lat="43.09789" lon="0.10732">
        <ele>609.6132813</ele>
        <time>2010-10-17T08:24:30Z</time>
      </trkpt>
      <trkpt lat="43.09783" lon="0.10735">
        <ele>610.5744629</ele>
        <time>2010-10-17T08:24:36Z</time>
      </trkpt>
      <trkpt lat="43.09772" lon="0.10735">
        <ele>612.0166016</ele>
        <time>2010-10-17T08:24:44Z</time>
      </trkpt>
      <trkpt lat="43.09764" lon="0.10734">
        <ele>614.9003906</ele>
        <time>2010-10-17T08:24:51Z</time>
      </trkpt>
      <trkpt lat="43.09754" lon="0.10736">
        <ele>615.3811035</ele>
        <time>2010-10-17T08:24:58Z</time>
      </trkpt>
      <trkpt lat="43.09752" lon="0.10737">
        <ele>615.8618164</ele>
        <time>2010-10-17T08:25:00Z</time>
      </trkpt>
      <trkpt lat="43.09742" lon="0.10737">
        <ele>618.2648926</ele>
        <time>2010-10-17T08:25:08Z</time>
      </trkpt>
      <trkpt lat="43.09731" lon="0.10737">
        <ele>620.1877441</ele>
        <time>2010-10-17T08:25:17Z</time>
      </trkpt>
      <trkpt lat="43.09718" lon="0.10742">
        <ele>620.1877441</ele>
        <time>2010-10-17T08:25:25Z</time>
      </trkpt>
      <trkpt lat="43.09709" lon="0.1075">
        <ele>619.7070313</ele>
        <time>2010-10-17T08:25:31Z</time>
      </trkpt>
      <trkpt lat="43.09691" lon="0.1077">
        <ele>619.2263184</ele>
        <time>2010-10-17T08:25:39Z</time>
      </trkpt>
      <trkpt lat="43.09681" lon="0.10788">
        <ele>620.1877441</ele>
        <time>2010-10-17T08:25:46Z</time>
      </trkpt>
      <trkpt lat="43.09673" lon="0.10806">
        <ele>620.668457</ele>
        <time>2010-10-17T08:25:53Z</time>
      </trkpt>
      <trkpt lat="43.0966" lon="0.10826">
        <ele>624.5136719</ele>
        <time>2010-10-17T08:26:02Z</time>
      </trkpt>
      <trkpt lat="43.09644" lon="0.10842">
        <ele>626.4362793</ele>
        <time>2010-10-17T08:26:12Z</time>
      </trkpt>
      <trkpt lat="43.09639" lon="0.10833">
        <ele>627.3977051</ele>
        <time>2010-10-17T08:26:17Z</time>
      </trkpt>
      <trkpt lat="43.09645" lon="0.10806">
        <ele>627.8781738</ele>
        <time>2010-10-17T08:26:26Z</time>
      </trkpt>
      <trkpt lat="43.09649" lon="0.10782">
        <ele>628.3588867</ele>
        <time>2010-10-17T08:26:35Z</time>
      </trkpt>
      <trkpt lat="43.09652" lon="0.10757">
        <ele>629.8007813</ele>
        <time>2010-10-17T08:26:45Z</time>
      </trkpt>
      <trkpt lat="43.09651" lon="0.10741">
        <ele>629.3200684</ele>
        <time>2010-10-17T08:26:52Z</time>
      </trkpt>
      <trkpt lat="43.09651" lon="0.10724">
        <ele>629.8007813</ele>
        <time>2010-10-17T08:27:00Z</time>
      </trkpt>
      <trkpt lat="43.0965" lon="0.1071">
        <ele>629.8007813</ele>
        <time>2010-10-17T08:27:06Z</time>
      </trkpt>
      <trkpt lat="43.09648" lon="0.10692">
        <ele>629.8007813</ele>
        <time>2010-10-17T08:27:14Z</time>
      </trkpt>
      <trkpt lat="43.09645" lon="0.10672">
        <ele>629.8007813</ele>
        <time>2010-10-17T08:27:22Z</time>
      </trkpt>
      <trkpt lat="43.09641" lon="0.10652">
        <ele>629.8007813</ele>
        <time>2010-10-17T08:27:30Z</time>
      </trkpt>
      <trkpt lat="43.09631" lon="0.10626">
        <ele>630.762207</ele>
        <time>2010-10-17T08:27:40Z</time>
      </trkpt>
      <trkpt lat="43.09615" lon="0.106">
        <ele>631.7233887</ele>
        <time>2010-10-17T08:27:49Z</time>
      </trkpt>
      <trkpt lat="43.09594" lon="0.10577">
        <ele>631.7233887</ele>
        <time>2010-10-17T08:27:58Z</time>
      </trkpt>
      <trkpt lat="43.09573" lon="0.10559">
        <ele>631.7233887</ele>
        <time>2010-10-17T08:28:06Z</time>
      </trkpt>
      <trkpt lat="43.09557" lon="0.10536">
        <ele>632.2041016</ele>
        <time>2010-10-17T08:28:14Z</time>
      </trkpt>
      <trkpt lat="43.09538" lon="0.10504">
        <ele>633.6459961</ele>
        <time>2010-10-17T08:28:25Z</time>
      </trkpt>
      <trkpt lat="43.09521" lon="0.10478">
        <ele>635.0881348</ele>
        <time>2010-10-17T08:28:35Z</time>
      </trkpt>
      <trkpt lat="43.09507" lon="0.10455">
        <ele>637.0107422</ele>
        <time>2010-10-17T08:28:43Z</time>
      </trkpt>
      <trkpt lat="43.0949" lon="0.10427">
        <ele>639.4140625</ele>
        <time>2010-10-17T08:28:53Z</time>
      </trkpt>
      <trkpt lat="43.09481" lon="0.10412">
        <ele>638.9335938</ele>
        <time>2010-10-17T08:28:59Z</time>
      </trkpt>
      <trkpt lat="43.0947" lon="0.10386">
        <ele>637.4914551</ele>
        <time>2010-10-17T08:29:07Z</time>
      </trkpt>
      <trkpt lat="43.09458" lon="0.10335">
        <ele>635.5686035</ele>
        <time>2010-10-17T08:29:15Z</time>
      </trkpt>
      <trkpt lat="43.09449" lon="0.10282">
        <ele>635.0881348</ele>
        <time>2010-10-17T08:29:23Z</time>
      </trkpt>
      <trkpt lat="43.09444" lon="0.10238">
        <ele>634.6074219</ele>
        <time>2010-10-17T08:29:31Z</time>
      </trkpt>
      <trkpt lat="43.09435" lon="0.10192">
        <ele>632.6848145</ele>
        <time>2010-10-17T08:29:40Z</time>
      </trkpt>
      <trkpt lat="43.0943" lon="0.10145">
        <ele>632.6848145</ele>
        <time>2010-10-17T08:29:49Z</time>
      </trkpt>
      <trkpt lat="43.09438" lon="0.10112">
        <ele>632.6848145</ele>
        <time>2010-10-17T08:29:56Z</time>
      </trkpt>
      <trkpt lat="43.09442" lon="0.10086">
        <ele>634.126709</ele>
        <time>2010-10-17T08:30:03Z</time>
      </trkpt>
      <trkpt lat="43.09442" lon="0.1006">
        <ele>635.5686035</ele>
        <time>2010-10-17T08:30:10Z</time>
      </trkpt>
      <trkpt lat="43.09442" lon="0.10038">
        <ele>636.5302734</ele>
        <time>2010-10-17T08:30:16Z</time>
      </trkpt>
      <trkpt lat="43.09448" lon="0.10015">
        <ele>635.5686035</ele>
        <time>2010-10-17T08:30:22Z</time>
      </trkpt>
      <trkpt lat="43.09457" lon="0.09981">
        <ele>634.6074219</ele>
        <time>2010-10-17T08:30:29Z</time>
      </trkpt>
      <trkpt lat="43.09465" lon="0.09943">
        <ele>632.6848145</ele>
        <time>2010-10-17T08:30:35Z</time>
      </trkpt>
      <trkpt lat="43.09477" lon="0.09887">
        <ele>630.762207</ele>
        <time>2010-10-17T08:30:42Z</time>
      </trkpt>
      <trkpt lat="43.09479" lon="0.09845">
        <ele>630.2814941</ele>
        <time>2010-10-17T08:30:47Z</time>
      </trkpt>
      <trkpt lat="43.09475" lon="0.09818">
        <ele>630.762207</ele>
        <time>2010-10-17T08:30:51Z</time>
      </trkpt>
      <trkpt lat="43.09473" lon="0.09785">
        <ele>631.7233887</ele>
        <time>2010-10-17T08:30:58Z</time>
      </trkpt>
      <trkpt lat="43.0947" lon="0.09761">
        <ele>633.1652832</ele>
        <time>2010-10-17T08:31:05Z</time>
      </trkpt>
      <trkpt lat="43.09468" lon="0.09741">
        <ele>636.0495605</ele>
        <time>2010-10-17T08:31:11Z</time>
      </trkpt>
      <trkpt lat="43.09467" lon="0.0972">
        <ele>638.9335938</ele>
        <time>2010-10-17T08:31:18Z</time>
      </trkpt>
      <trkpt lat="43.09466" lon="0.09705">
        <ele>639.4140625</ele>
        <time>2010-10-17T08:31:24Z</time>
      </trkpt>
      <trkpt lat="43.09463" lon="0.09683">
        <ele>642.2980957</ele>
        <time>2010-10-17T08:31:32Z</time>
      </trkpt>
      <trkpt lat="43.09459" lon="0.09657">
        <ele>645.1818848</ele>
        <time>2010-10-17T08:31:38Z</time>
      </trkpt>
      <trkpt lat="43.09456" lon="0.09636">
        <ele>646.6240234</ele>
        <time>2010-10-17T08:31:42Z</time>
      </trkpt>
      <trkpt lat="43.09454" lon="0.09616">
        <ele>646.6240234</ele>
        <time>2010-10-17T08:31:45Z</time>
      </trkpt>
      <trkpt lat="43.09453" lon="0.09602">
        <ele>645.1818848</ele>
        <time>2010-10-17T08:31:47Z</time>
      </trkpt>
      <trkpt lat="43.09444" lon="0.0954">
        <ele>646.1433105</ele>
        <time>2010-10-17T08:31:54Z</time>
      </trkpt>
      <trkpt lat="43.09436" lon="0.0951">
        <ele>646.6240234</ele>
        <time>2010-10-17T08:31:57Z</time>
      </trkpt>
      <trkpt lat="43.0942" lon="0.09444">
        <ele>641.3366699</ele>
        <time>2010-10-17T08:32:03Z</time>
      </trkpt>
      <trkpt lat="43.09405" lon="0.09359">
        <ele>634.6074219</ele>
        <time>2010-10-17T08:32:11Z</time>
      </trkpt>
      <trkpt lat="43.09399" lon="0.09328">
        <ele>633.1652832</ele>
        <time>2010-10-17T08:32:15Z</time>
      </trkpt>
      <trkpt lat="43.09396" lon="0.09314">
        <ele>631.7233887</ele>
        <time>2010-10-17T08:32:19Z</time>
      </trkpt>
      <trkpt lat="43.09395" lon="0.09312">
        <ele>631.2429199</ele>
        <time>2010-10-17T08:32:20Z</time>
      </trkpt>
      <trkpt lat="43.09389" lon="0.09316">
        <ele>631.7233887</ele>
        <time>2010-10-17T08:32:25Z</time>
      </trkpt>
      <trkpt lat="43.09388" lon="0.09317">
        <ele>631.7233887</ele>
        <time>2010-10-17T08:32:26Z</time>
      </trkpt>
      <trkpt lat="43.0938" lon="0.09332">
        <ele>634.126709</ele>
        <time>2010-10-17T08:32:35Z</time>
      </trkpt>
      <trkpt lat="43.09374" lon="0.09344">
        <ele>634.6074219</ele>
        <time>2010-10-17T08:32:43Z</time>
      </trkpt>
      <trkpt lat="43.0937" lon="0.09346">
        <ele>634.6074219</ele>
        <time>2010-10-17T08:32:46Z</time>
      </trkpt>
      <trkpt lat="43.09364" lon="0.09339">
        <ele>635.5686035</ele>
        <time>2010-10-17T08:32:51Z</time>
      </trkpt>
      <trkpt lat="43.09351" lon="0.09326">
        <ele>637.4914551</ele>
        <time>2010-10-17T08:33:00Z</time>
      </trkpt>
      <trkpt lat="43.09338" lon="0.09315">
        <ele>638.9335938</ele>
        <time>2010-10-17T08:33:08Z</time>
      </trkpt>
      <trkpt lat="43.09325" lon="0.09303">
        <ele>640.3754883</ele>
        <time>2010-10-17T08:33:17Z</time>
      </trkpt>
      <trkpt lat="43.09311" lon="0.09289">
        <ele>641.3366699</ele>
        <time>2010-10-17T08:33:26Z</time>
      </trkpt>
      <trkpt lat="43.09299" lon="0.0928">
        <ele>641.3366699</ele>
        <time>2010-10-17T08:33:33Z</time>
      </trkpt>
      <trkpt lat="43.0929" lon="0.09281">
        <ele>640.855957</ele>
        <time>2010-10-17T08:33:39Z</time>
      </trkpt>
      <trkpt lat="43.09276" lon="0.09284">
        <ele>638.4528809</ele>
        <time>2010-10-17T08:33:44Z</time>
      </trkpt>
      <trkpt lat="43.09274" lon="0.09283">
        <ele>637.972168</ele>
        <time>2010-10-17T08:33:45Z</time>
      </trkpt>
      <trkpt lat="43.09267" lon="0.09261">
        <ele>636.0495605</ele>
        <time>2010-10-17T08:33:49Z</time>
      </trkpt>
      <trkpt lat="43.09262" lon="0.09219">
        <ele>635.0881348</ele>
        <time>2010-10-17T08:33:55Z</time>
      </trkpt>
      <trkpt lat="43.09248" lon="0.09176">
        <ele>634.6074219</ele>
        <time>2010-10-17T08:34:02Z</time>
      </trkpt>
      <trkpt lat="43.09234" lon="0.09137">
        <ele>635.5686035</ele>
        <time>2010-10-17T08:34:10Z</time>
      </trkpt>
      <trkpt lat="43.09232" lon="0.09109">
        <ele>637.4914551</ele>
        <time>2010-10-17T08:34:16Z</time>
      </trkpt>
      <trkpt lat="43.09235" lon="0.09083">
        <ele>637.4914551</ele>
        <time>2010-10-17T08:34:22Z</time>
      </trkpt>
      <trkpt lat="43.09239" lon="0.09046">
        <ele>636.0495605</ele>
        <time>2010-10-17T08:34:28Z</time>
      </trkpt>
      <trkpt lat="43.09243" lon="0.08997">
        <ele>633.6459961</ele>
        <time>2010-10-17T08:34:34Z</time>
      </trkpt>
      <trkpt lat="43.09245" lon="0.08947">
        <ele>631.7233887</ele>
        <time>2010-10-17T08:34:40Z</time>
      </trkpt>
      <trkpt lat="43.09245" lon="0.08931">
        <ele>631.2429199</ele>
        <time>2010-10-17T08:34:42Z</time>
      </trkpt>
      <trkpt lat="43.09243" lon="0.08916">
        <ele>630.762207</ele>
        <time>2010-10-17T08:34:44Z</time>
      </trkpt>
      <trkpt lat="43.09241" lon="0.08877">
        <ele>627.8781738</ele>
        <time>2010-10-17T08:34:51Z</time>
      </trkpt>
      <trkpt lat="43.0924" lon="0.0885">
        <ele>625.9555664</ele>
        <time>2010-10-17T08:34:56Z</time>
      </trkpt>
      <trkpt lat="43.09245" lon="0.08827">
        <ele>624.5136719</ele>
        <time>2010-10-17T08:35:01Z</time>
      </trkpt>
      <trkpt lat="43.09252" lon="0.08808">
        <ele>624.032959</ele>
        <time>2010-10-17T08:35:05Z</time>
      </trkpt>
      <trkpt lat="43.09255" lon="0.08804">
        <ele>623.0717773</ele>
        <time>2010-10-17T08:35:06Z</time>
      </trkpt>
      <trkpt lat="43.09264" lon="0.08794">
        <ele>620.668457</ele>
        <time>2010-10-17T08:35:09Z</time>
      </trkpt>
      <trkpt lat="43.09279" lon="0.08803">
        <ele>618.2648926</ele>
        <time>2010-10-17T08:35:13Z</time>
      </trkpt>
      <trkpt lat="43.09293" lon="0.08819">
        <ele>616.822998</ele>
        <time>2010-10-17T08:35:16Z</time>
      </trkpt>
      <trkpt lat="43.09317" lon="0.0883">
        <ele>612.4970703</ele>
        <time>2010-10-17T08:35:20Z</time>
      </trkpt>
      <trkpt lat="43.09336" lon="0.08831">
        <ele>610.5744629</ele>
        <time>2010-10-17T08:35:22Z</time>
      </trkpt>
      <trkpt lat="43.09372" lon="0.08823">
        <ele>609.1325684</ele>
        <time>2010-10-17T08:35:26Z</time>
      </trkpt>
      <trkpt lat="43.09398" lon="0.08813">
        <ele>609.1325684</ele>
        <time>2010-10-17T08:35:31Z</time>
      </trkpt>
      <trkpt lat="43.09418" lon="0.08804">
        <ele>611.0551758</ele>
        <time>2010-10-17T08:35:38Z</time>
      </trkpt>
      <trkpt lat="43.09436" lon="0.08802">
        <ele>610.09375</ele>
        <time>2010-10-17T08:35:44Z</time>
      </trkpt>
      <trkpt lat="43.09441" lon="0.08802">
        <ele>609.1325684</ele>
        <time>2010-10-17T08:35:45Z</time>
      </trkpt>
      <trkpt lat="43.09483" lon="0.0881">
        <ele>601.9226074</ele>
        <time>2010-10-17T08:35:52Z</time>
      </trkpt>
      <trkpt lat="43.09519" lon="0.08811">
        <ele>600.4807129</ele>
        <time>2010-10-17T08:35:58Z</time>
      </trkpt>
      <trkpt lat="43.09528" lon="0.0881">
        <ele>600.4807129</ele>
        <time>2010-10-17T08:36:00Z</time>
      </trkpt>
      <trkpt lat="43.09552" lon="0.08809">
        <ele>601.9226074</ele>
        <time>2010-10-17T08:36:07Z</time>
      </trkpt>
      <trkpt lat="43.09559" lon="0.0881">
        <ele>601.4418945</ele>
        <time>2010-10-17T08:36:09Z</time>
      </trkpt>
      <trkpt lat="43.0959" lon="0.08819">
        <ele>600</ele>
        <time>2010-10-17T08:36:16Z</time>
      </trkpt>
      <trkpt lat="43.09596" lon="0.08822">
        <ele>599.5192871</ele>
        <time>2010-10-17T08:36:18Z</time>
      </trkpt>
      <trkpt lat="43.09614" lon="0.08842">
        <ele>596.1547852</ele>
        <time>2010-10-17T08:36:22Z</time>
      </trkpt>
      <trkpt lat="43.09641" lon="0.08874">
        <ele>593.7514648</ele>
        <time>2010-10-17T08:36:26Z</time>
      </trkpt>
      <trkpt lat="43.09677" lon="0.08906">
        <ele>591.8288574</ele>
        <time>2010-10-17T08:36:31Z</time>
      </trkpt>
      <trkpt lat="43.09701" lon="0.08923">
        <ele>592.7902832</ele>
        <time>2010-10-17T08:36:35Z</time>
      </trkpt>
      <trkpt lat="43.09714" lon="0.08936">
        <ele>593.270752</ele>
        <time>2010-10-17T08:36:39Z</time>
      </trkpt>
      <trkpt lat="43.09731" lon="0.08953">
        <ele>590.8674316</ele>
        <time>2010-10-17T08:36:45Z</time>
      </trkpt>
      <trkpt lat="43.09745" lon="0.08967">
        <ele>588.4643555</ele>
        <time>2010-10-17T08:36:48Z</time>
      </trkpt>
      <trkpt lat="43.09768" lon="0.08992">
        <ele>585.5800781</ele>
        <time>2010-10-17T08:36:52Z</time>
      </trkpt>
      <trkpt lat="43.09775" lon="0.08998">
        <ele>584.6188965</ele>
        <time>2010-10-17T08:36:53Z</time>
      </trkpt>
      <trkpt lat="43.09807" lon="0.09024">
        <ele>581.2543945</ele>
        <time>2010-10-17T08:36:58Z</time>
      </trkpt>
      <trkpt lat="43.09813" lon="0.0903">
        <ele>580.7736816</ele>
        <time>2010-10-17T08:36:59Z</time>
      </trkpt>
      <trkpt lat="43.09822" lon="0.09041">
        <ele>579.331543</ele>
        <time>2010-10-17T08:37:01Z</time>
      </trkpt>
      <trkpt lat="43.0984" lon="0.09058">
        <ele>576.9284668</ele>
        <time>2010-10-17T08:37:05Z</time>
      </trkpt>
      <trkpt lat="43.09863" lon="0.0907">
        <ele>572.1218262</ele>
        <time>2010-10-17T08:37:11Z</time>
      </trkpt>
      <trkpt lat="43.0988" lon="0.09074">
        <ele>567.3151855</ele>
        <time>2010-10-17T08:37:15Z</time>
      </trkpt>
      <trkpt lat="43.09909" lon="0.09076">
        <ele>561.0666504</ele>
        <time>2010-10-17T08:37:20Z</time>
      </trkpt>
      <trkpt lat="43.0994" lon="0.09063">
        <ele>555.7792969</ele>
        <time>2010-10-17T08:37:27Z</time>
      </trkpt>
      <trkpt lat="43.09957" lon="0.09052">
        <ele>555.7792969</ele>
        <time>2010-10-17T08:37:33Z</time>
      </trkpt>
      <trkpt lat="43.09964" lon="0.09047">
        <ele>556.2600098</ele>
        <time>2010-10-17T08:37:37Z</time>
      </trkpt>
      <trkpt lat="43.0998" lon="0.09036">
        <ele>557.2214355</ele>
        <time>2010-10-17T08:37:44Z</time>
      </trkpt>
      <trkpt lat="43.09997" lon="0.09026">
        <ele>557.7021484</ele>
        <time>2010-10-17T08:37:51Z</time>
      </trkpt>
      <trkpt lat="43.10014" lon="0.09024">
        <ele>559.144043</ele>
        <time>2010-10-17T08:37:58Z</time>
      </trkpt>
      <trkpt lat="43.10024" lon="0.09025">
        <ele>560.1052246</ele>
        <time>2010-10-17T08:38:03Z</time>
      </trkpt>
      <trkpt lat="43.10037" lon="0.0903">
        <ele>560.1052246</ele>
        <time>2010-10-17T08:38:10Z</time>
      </trkpt>
      <trkpt lat="43.10052" lon="0.09039">
        <ele>561.0666504</ele>
        <time>2010-10-17T08:38:17Z</time>
      </trkpt>
      <trkpt lat="43.10062" lon="0.09048">
        <ele>561.5473633</ele>
        <time>2010-10-17T08:38:23Z</time>
      </trkpt>
      <trkpt lat="43.10078" lon="0.09063">
        <ele>562.0280762</ele>
        <time>2010-10-17T08:38:28Z</time>
      </trkpt>
      <trkpt lat="43.1009" lon="0.0908">
        <ele>561.5473633</ele>
        <time>2010-10-17T08:38:32Z</time>
      </trkpt>
      <trkpt lat="43.10104" lon="0.09109">
        <ele>558.1828613</ele>
        <time>2010-10-17T08:38:37Z</time>
      </trkpt>
      <trkpt lat="43.10135" lon="0.09156">
        <ele>555.7792969</ele>
        <time>2010-10-17T08:38:45Z</time>
      </trkpt>
      <trkpt lat="43.10154" lon="0.09177">
        <ele>553.8566895</ele>
        <time>2010-10-17T08:38:49Z</time>
      </trkpt>
      <trkpt lat="43.10189" lon="0.09195">
        <ele>552.8952637</ele>
        <time>2010-10-17T08:38:55Z</time>
      </trkpt>
      <trkpt lat="43.10194" lon="0.09195">
        <ele>552.8952637</ele>
        <time>2010-10-17T08:38:56Z</time>
      </trkpt>
      <trkpt lat="43.10213" lon="0.09196">
        <ele>551.934082</ele>
        <time>2010-10-17T08:39:02Z</time>
      </trkpt>
      <trkpt lat="43.10228" lon="0.09195">
        <ele>551.934082</ele>
        <time>2010-10-17T08:39:07Z</time>
      </trkpt>
      <trkpt lat="43.10243" lon="0.09192">
        <ele>551.4533691</ele>
        <time>2010-10-17T08:39:13Z</time>
      </trkpt>
      <trkpt lat="43.10262" lon="0.0919">
        <ele>550.0114746</ele>
        <time>2010-10-17T08:39:19Z</time>
      </trkpt>
      <trkpt lat="43.10289" lon="0.09187">
        <ele>548.5693359</ele>
        <time>2010-10-17T08:39:27Z</time>
      </trkpt>
      <trkpt lat="43.10312" lon="0.09189">
        <ele>546.6468506</ele>
        <time>2010-10-17T08:39:31Z</time>
      </trkpt>
      <trkpt lat="43.10346" lon="0.09191">
        <ele>542.8015137</ele>
        <time>2010-10-17T08:39:35Z</time>
      </trkpt>
      <trkpt lat="43.1039" lon="0.09205">
        <ele>536.0723877</ele>
        <time>2010-10-17T08:39:40Z</time>
      </trkpt>
      <trkpt lat="43.10443" lon="0.09237">
        <ele>524.0557861</ele>
        <time>2010-10-17T08:39:46Z</time>
      </trkpt>
      <trkpt lat="43.10473" lon="0.09257">
        <ele>518.2878418</ele>
        <time>2010-10-17T08:39:50Z</time>
      </trkpt>
      <trkpt lat="43.10479" lon="0.0926">
        <ele>516.8459473</ele>
        <time>2010-10-17T08:39:51Z</time>
      </trkpt>
      <trkpt lat="43.10495" lon="0.09256">
        <ele>513.4814453</ele>
        <time>2010-10-17T08:39:54Z</time>
      </trkpt>
      <trkpt lat="43.10497" lon="0.09228">
        <ele>510.1166992</ele>
        <time>2010-10-17T08:39:57Z</time>
      </trkpt>
      <trkpt lat="43.10495" lon="0.09167">
        <ele>503.3874512</ele>
        <time>2010-10-17T08:40:03Z</time>
      </trkpt>
      <trkpt lat="43.10495" lon="0.09156">
        <ele>501.4648438</ele>
        <time>2010-10-17T08:40:05Z</time>
      </trkpt>
      <trkpt lat="43.10508" lon="0.09161">
        <ele>498.5809326</ele>
        <time>2010-10-17T08:40:09Z</time>
      </trkpt>
      <trkpt lat="43.10516" lon="0.09175">
        <ele>498.5809326</ele>
        <time>2010-10-17T08:40:11Z</time>
      </trkpt>
      <trkpt lat="43.10546" lon="0.09224">
        <ele>495.6968994</ele>
        <time>2010-10-17T08:40:16Z</time>
      </trkpt>
      <trkpt lat="43.10575" lon="0.09264">
        <ele>492.8129883</ele>
        <time>2010-10-17T08:40:20Z</time>
      </trkpt>
      <trkpt lat="43.10615" lon="0.09296">
        <ele>487.5256348</ele>
        <time>2010-10-17T08:40:24Z</time>
      </trkpt>
      <trkpt lat="43.1062" lon="0.093">
        <ele>486.0837402</ele>
        <time>2010-10-17T08:40:25Z</time>
      </trkpt>
      <trkpt lat="43.10631" lon="0.09308">
        <ele>484.6418457</ele>
        <time>2010-10-17T08:40:27Z</time>
      </trkpt>
      <trkpt lat="43.10644" lon="0.09302">
        <ele>478.3931885</ele>
        <time>2010-10-17T08:40:31Z</time>
      </trkpt>
      <trkpt lat="43.10646" lon="0.0928">
        <ele>474.5479736</ele>
        <time>2010-10-17T08:40:34Z</time>
      </trkpt>
      <trkpt lat="43.10654" lon="0.09271">
        <ele>472.6253662</ele>
        <time>2010-10-17T08:40:36Z</time>
      </trkpt>
      <trkpt lat="43.10672" lon="0.09262">
        <ele>471.1833496</ele>
        <time>2010-10-17T08:40:39Z</time>
      </trkpt>
      <trkpt lat="43.10706" lon="0.09254">
        <ele>471.1833496</ele>
        <time>2010-10-17T08:40:45Z</time>
      </trkpt>
      <trkpt lat="43.10716" lon="0.09254">
        <ele>472.1446533</ele>
        <time>2010-10-17T08:40:49Z</time>
      </trkpt>
      <trkpt lat="43.10728" lon="0.09252">
        <ele>474.0672607</ele>
        <time>2010-10-17T08:40:56Z</time>
      </trkpt>
      <trkpt lat="43.10742" lon="0.09241">
        <ele>476.9512939</ele>
        <time>2010-10-17T08:41:06Z</time>
      </trkpt>
      <trkpt lat="43.10755" lon="0.09233">
        <ele>478.8739014</ele>
        <time>2010-10-17T08:41:15Z</time>
      </trkpt>
      <trkpt lat="43.1077" lon="0.09226">
        <ele>481.2772217</ele>
        <time>2010-10-17T08:41:25Z</time>
      </trkpt>
      <trkpt lat="43.10782" lon="0.09216">
        <ele>483.6804199</ele>
        <time>2010-10-17T08:41:34Z</time>
      </trkpt>
      <trkpt lat="43.10794" lon="0.09205">
        <ele>485.6030273</ele>
        <time>2010-10-17T08:41:43Z</time>
      </trkpt>
      <trkpt lat="43.10806" lon="0.09198">
        <ele>487.5256348</ele>
        <time>2010-10-17T08:41:51Z</time>
      </trkpt>
      <trkpt lat="43.10823" lon="0.09195">
        <ele>488.9677734</ele>
        <time>2010-10-17T08:42:00Z</time>
      </trkpt>
      <trkpt lat="43.1084" lon="0.09195">
        <ele>491.3709717</ele>
        <time>2010-10-17T08:42:09Z</time>
      </trkpt>
      <trkpt lat="43.10853" lon="0.09201">
        <ele>493.2935791</ele>
        <time>2010-10-17T08:42:17Z</time>
      </trkpt>
      <trkpt lat="43.10867" lon="0.0921">
        <ele>496.6583252</ele>
        <time>2010-10-17T08:42:25Z</time>
      </trkpt>
      <trkpt lat="43.10883" lon="0.09223">
        <ele>500.0229492</ele>
        <time>2010-10-17T08:42:34Z</time>
      </trkpt>
      <trkpt lat="43.10895" lon="0.0923">
        <ele>500.9841309</ele>
        <time>2010-10-17T08:42:41Z</time>
      </trkpt>
      <trkpt lat="43.10903" lon="0.09225">
        <ele>501.9455566</ele>
        <time>2010-10-17T08:42:47Z</time>
      </trkpt>
      <trkpt lat="43.10909" lon="0.09212">
        <ele>502.9067383</ele>
        <time>2010-10-17T08:42:54Z</time>
      </trkpt>
      <trkpt lat="43.1091" lon="0.09193">
        <ele>500.50354</ele>
        <time>2010-10-17T08:43:02Z</time>
      </trkpt>
      <trkpt lat="43.1091" lon="0.09178">
        <ele>500.9841309</ele>
        <time>2010-10-17T08:43:08Z</time>
      </trkpt>
      <trkpt lat="43.1091" lon="0.0916">
        <ele>499.5422363</ele>
        <time>2010-10-17T08:43:15Z</time>
      </trkpt>
      <trkpt lat="43.10909" lon="0.09141">
        <ele>501.4648438</ele>
        <time>2010-10-17T08:43:23Z</time>
      </trkpt>
      <trkpt lat="43.1091" lon="0.09125">
        <ele>502.4261475</ele>
        <time>2010-10-17T08:43:29Z</time>
      </trkpt>
      <trkpt lat="43.10911" lon="0.09102">
        <ele>502.4261475</ele>
        <time>2010-10-17T08:43:38Z</time>
      </trkpt>
      <trkpt lat="43.10912" lon="0.09088">
        <ele>501.9455566</ele>
        <time>2010-10-17T08:43:43Z</time>
      </trkpt>
      <trkpt lat="43.10915" lon="0.09065">
        <ele>498.1003418</ele>
        <time>2010-10-17T08:43:50Z</time>
      </trkpt>
      <trkpt lat="43.10919" lon="0.09044">
        <ele>497.138916</ele>
        <time>2010-10-17T08:43:57Z</time>
      </trkpt>
      <trkpt lat="43.10917" lon="0.09031">
        <ele>497.138916</ele>
        <time>2010-10-17T08:44:02Z</time>
      </trkpt>
      <trkpt lat="43.10917" lon="0.09029">
        <ele>498.1003418</ele>
        <time>2010-10-17T08:44:03Z</time>
      </trkpt>
      <trkpt lat="43.10924" lon="0.09008">
        <ele>497.6196289</ele>
        <time>2010-10-17T08:44:10Z</time>
      </trkpt>
      <trkpt lat="43.10927" lon="0.08986">
        <ele>498.1003418</ele>
        <time>2010-10-17T08:44:17Z</time>
      </trkpt>
      <trkpt lat="43.10932" lon="0.08966">
        <ele>497.138916</ele>
        <time>2010-10-17T08:44:24Z</time>
      </trkpt>
      <trkpt lat="43.10939" lon="0.0895">
        <ele>500.0229492</ele>
        <time>2010-10-17T08:44:31Z</time>
      </trkpt>
      <trkpt lat="43.10948" lon="0.08934">
        <ele>502.4261475</ele>
        <time>2010-10-17T08:44:38Z</time>
      </trkpt>
      <trkpt lat="43.10957" lon="0.08913">
        <ele>504.348877</ele>
        <time>2010-10-17T08:44:45Z</time>
      </trkpt>
      <trkpt lat="43.10956" lon="0.08891">
        <ele>507.713501</ele>
        <time>2010-10-17T08:44:52Z</time>
      </trkpt>
      <trkpt lat="43.10953" lon="0.08865">
        <ele>514.442627</ele>
        <time>2010-10-17T08:45:01Z</time>
      </trkpt>
      <trkpt lat="43.10954" lon="0.08841">
        <ele>517.807251</ele>
        <time>2010-10-17T08:45:09Z</time>
      </trkpt>
      <trkpt lat="43.10958" lon="0.08812">
        <ele>516.3652344</ele>
        <time>2010-10-17T08:45:18Z</time>
      </trkpt>
      <trkpt lat="43.10968" lon="0.08787">
        <ele>515.8846436</ele>
        <time>2010-10-17T08:45:27Z</time>
      </trkpt>
      <trkpt lat="43.10978" lon="0.08764">
        <ele>517.3266602</ele>
        <time>2010-10-17T08:45:36Z</time>
      </trkpt>
      <trkpt lat="43.10985" lon="0.08742">
        <ele>517.3266602</ele>
        <time>2010-10-17T08:45:43Z</time>
      </trkpt>
      <trkpt lat="43.10999" lon="0.08715">
        <ele>517.3266602</ele>
        <time>2010-10-17T08:45:52Z</time>
      </trkpt>
      <trkpt lat="43.11015" lon="0.08688">
        <ele>517.807251</ele>
        <time>2010-10-17T08:46:02Z</time>
      </trkpt>
      <trkpt lat="43.11028" lon="0.08669">
        <ele>518.2878418</ele>
        <time>2010-10-17T08:46:10Z</time>
      </trkpt>
      <trkpt lat="43.11045" lon="0.08649">
        <ele>517.807251</ele>
        <time>2010-10-17T08:46:19Z</time>
      </trkpt>
      <trkpt lat="43.11065" lon="0.08632">
        <ele>517.3266602</ele>
        <time>2010-10-17T08:46:28Z</time>
      </trkpt>
      <trkpt lat="43.11078" lon="0.08619">
        <ele>517.807251</ele>
        <time>2010-10-17T08:46:35Z</time>
      </trkpt>
      <trkpt lat="43.11083" lon="0.08609">
        <ele>521.1719971</ele>
        <time>2010-10-17T08:46:41Z</time>
      </trkpt>
      <trkpt lat="43.11085" lon="0.08602">
        <ele>523.5751953</ele>
        <time>2010-10-17T08:46:46Z</time>
      </trkpt>
      <trkpt lat="43.1109" lon="0.08602">
        <ele>525.4978027</ele>
        <time>2010-10-17T08:46:51Z</time>
      </trkpt>
      <trkpt lat="43.11092" lon="0.08612">
        <ele>528.8625488</ele>
        <time>2010-10-17T08:46:58Z</time>
      </trkpt>
      <trkpt lat="43.11096" lon="0.08624">
        <ele>530.3044434</ele>
        <time>2010-10-17T08:47:06Z</time>
      </trkpt>
      <trkpt lat="43.111" lon="0.08637">
        <ele>533.1883545</ele>
        <time>2010-10-17T08:47:14Z</time>
      </trkpt>
      <trkpt lat="43.11103" lon="0.08645">
        <ele>534.6303711</ele>
        <time>2010-10-17T08:47:19Z</time>
      </trkpt>
      <trkpt lat="43.11108" lon="0.08658">
        <ele>532.7077637</ele>
        <time>2010-10-17T08:47:26Z</time>
      </trkpt>
      <trkpt lat="43.11111" lon="0.08667">
        <ele>532.2270508</ele>
        <time>2010-10-17T08:47:31Z</time>
      </trkpt>
      <trkpt lat="43.11113" lon="0.08675">
        <ele>535.1109619</ele>
        <time>2010-10-17T08:47:35Z</time>
      </trkpt>
      <trkpt lat="43.11113" lon="0.0869">
        <ele>541.3594971</ele>
        <time>2010-10-17T08:47:43Z</time>
      </trkpt>
      <trkpt lat="43.11107" lon="0.0871">
        <ele>539.9176025</ele>
        <time>2010-10-17T08:47:53Z</time>
      </trkpt>
      <trkpt lat="43.11104" lon="0.08722">
        <ele>538.9562988</ele>
        <time>2010-10-17T08:48:01Z</time>
      </trkpt>
      <trkpt lat="43.111" lon="0.08736">
        <ele>539.4368896</ele>
        <time>2010-10-17T08:48:09Z</time>
      </trkpt>
      <trkpt lat="43.11096" lon="0.08744">
        <ele>538.9562988</ele>
        <time>2010-10-17T08:48:13Z</time>
      </trkpt>
      <trkpt lat="43.11098" lon="0.08756">
        <ele>541.3594971</ele>
        <time>2010-10-17T08:48:20Z</time>
      </trkpt>
      <trkpt lat="43.11104" lon="0.08752">
        <ele>543.2821045</ele>
        <time>2010-10-17T08:48:25Z</time>
      </trkpt>
      <trkpt lat="43.11115" lon="0.0874">
        <ele>544.7242432</ele>
        <time>2010-10-17T08:48:34Z</time>
      </trkpt>
      <trkpt lat="43.11125" lon="0.08727">
        <ele>545.204834</ele>
        <time>2010-10-17T08:48:43Z</time>
      </trkpt>
      <trkpt lat="43.11134" lon="0.08711">
        <ele>546.1662598</ele>
        <time>2010-10-17T08:48:52Z</time>
      </trkpt>
      <trkpt lat="43.11139" lon="0.08693">
        <ele>546.6468506</ele>
        <time>2010-10-17T08:49:01Z</time>
      </trkpt>
      <trkpt lat="43.11146" lon="0.08681">
        <ele>547.1274414</ele>
        <time>2010-10-17T08:49:08Z</time>
      </trkpt>
      <trkpt lat="43.11154" lon="0.08676">
        <ele>548.5693359</ele>
        <time>2010-10-17T08:49:14Z</time>
      </trkpt>
      <trkpt lat="43.11159" lon="0.08674">
        <ele>550.0114746</ele>
        <time>2010-10-17T08:49:21Z</time>
      </trkpt>
      <trkpt lat="43.1116" lon="0.08674">
        <ele>550.4921875</ele>
        <time>2010-10-17T08:49:28Z</time>
      </trkpt>
      <trkpt lat="43.11163" lon="0.08673">
        <ele>550.4921875</ele>
        <time>2010-10-17T08:49:35Z</time>
      </trkpt>
      <trkpt lat="43.11166" lon="0.08672">
        <ele>552.4145508</ele>
        <time>2010-10-17T08:49:40Z</time>
      </trkpt>
      <trkpt lat="43.11176" lon="0.08667">
        <ele>555.298584</ele>
        <time>2010-10-17T08:49:50Z</time>
      </trkpt>
      <trkpt lat="43.11184" lon="0.08659">
        <ele>556.7407227</ele>
        <time>2010-10-17T08:50:00Z</time>
      </trkpt>
      <trkpt lat="43.11193" lon="0.08649">
        <ele>558.6633301</ele>
        <time>2010-10-17T08:50:10Z</time>
      </trkpt>
      <trkpt lat="43.112" lon="0.08641">
        <ele>559.6247559</ele>
        <time>2010-10-17T08:50:19Z</time>
      </trkpt>
      <trkpt lat="43.11204" lon="0.08637">
        <ele>559.6247559</ele>
        <time>2010-10-17T08:50:25Z</time>
      </trkpt>
      <trkpt lat="43.1121" lon="0.08628">
        <ele>561.0666504</ele>
        <time>2010-10-17T08:50:32Z</time>
      </trkpt>
      <trkpt lat="43.11212" lon="0.08611">
        <ele>562.0280762</ele>
        <time>2010-10-17T08:50:40Z</time>
      </trkpt>
      <trkpt lat="43.11212" lon="0.08591">
        <ele>562.0280762</ele>
        <time>2010-10-17T08:50:48Z</time>
      </trkpt>
      <trkpt lat="43.11214" lon="0.08565">
        <ele>562.9892578</ele>
        <time>2010-10-17T08:50:58Z</time>
      </trkpt>
      <trkpt lat="43.11216" lon="0.08543">
        <ele>564.4311523</ele>
        <time>2010-10-17T08:51:07Z</time>
      </trkpt>
      <trkpt lat="43.11219" lon="0.08522">
        <ele>563.9504395</ele>
        <time>2010-10-17T08:51:15Z</time>
      </trkpt>
      <trkpt lat="43.11223" lon="0.08498">
        <ele>563.9504395</ele>
        <time>2010-10-17T08:51:25Z</time>
      </trkpt>
      <trkpt lat="43.11227" lon="0.08476">
        <ele>564.4311523</ele>
        <time>2010-10-17T08:51:34Z</time>
      </trkpt>
      <trkpt lat="43.11232" lon="0.08456">
        <ele>565.3925781</ele>
        <time>2010-10-17T08:51:42Z</time>
      </trkpt>
      <trkpt lat="43.11236" lon="0.08439">
        <ele>566.8344727</ele>
        <time>2010-10-17T08:51:50Z</time>
      </trkpt>
      <trkpt lat="43.11239" lon="0.08417">
        <ele>568.7570801</ele>
        <time>2010-10-17T08:52:00Z</time>
      </trkpt>
      <trkpt lat="43.11243" lon="0.08394">
        <ele>570.6796875</ele>
        <time>2010-10-17T08:52:10Z</time>
      </trkpt>
      <trkpt lat="43.11251" lon="0.08371">
        <ele>572.6025391</ele>
        <time>2010-10-17T08:52:20Z</time>
      </trkpt>
      <trkpt lat="43.11255" lon="0.08349">
        <ele>574.0444336</ele>
        <time>2010-10-17T08:52:30Z</time>
      </trkpt>
      <trkpt lat="43.11254" lon="0.08326">
        <ele>576.4477539</ele>
        <time>2010-10-17T08:52:40Z</time>
      </trkpt>
      <trkpt lat="43.11251" lon="0.0831">
        <ele>577.8896484</ele>
        <time>2010-10-17T08:52:47Z</time>
      </trkpt>
      <trkpt lat="43.11248" lon="0.08286">
        <ele>579.8122559</ele>
        <time>2010-10-17T08:52:57Z</time>
      </trkpt>
      <trkpt lat="43.11244" lon="0.08267">
        <ele>580.2929688</ele>
        <time>2010-10-17T08:53:05Z</time>
      </trkpt>
      <trkpt lat="43.1124" lon="0.08241">
        <ele>581.7348633</ele>
        <time>2010-10-17T08:53:15Z</time>
      </trkpt>
      <trkpt lat="43.11236" lon="0.08207">
        <ele>584.6188965</ele>
        <time>2010-10-17T08:53:27Z</time>
      </trkpt>
      <trkpt lat="43.11231" lon="0.08176">
        <ele>585.5800781</ele>
        <time>2010-10-17T08:53:37Z</time>
      </trkpt>
      <trkpt lat="43.11226" lon="0.08142">
        <ele>585.0996094</ele>
        <time>2010-10-17T08:53:47Z</time>
      </trkpt>
      <trkpt lat="43.11223" lon="0.08104">
        <ele>585.0996094</ele>
        <time>2010-10-17T08:53:58Z</time>
      </trkpt>
      <trkpt lat="43.11219" lon="0.0807">
        <ele>584.1381836</ele>
        <time>2010-10-17T08:54:06Z</time>
      </trkpt>
      <trkpt lat="43.11215" lon="0.08041">
        <ele>582.6962891</ele>
        <time>2010-10-17T08:54:13Z</time>
      </trkpt>
      <trkpt lat="43.11211" lon="0.08007">
        <ele>580.7736816</ele>
        <time>2010-10-17T08:54:21Z</time>
      </trkpt>
      <trkpt lat="43.11203" lon="0.07987">
        <ele>581.7348633</ele>
        <time>2010-10-17T08:54:26Z</time>
      </trkpt>
      <trkpt lat="43.11206" lon="0.07971">
        <ele>581.7348633</ele>
        <time>2010-10-17T08:54:30Z</time>
      </trkpt>
      <trkpt lat="43.11223" lon="0.07948">
        <ele>580.7736816</ele>
        <time>2010-10-17T08:54:37Z</time>
      </trkpt>
      <trkpt lat="43.1124" lon="0.07943">
        <ele>580.2929688</ele>
        <time>2010-10-17T08:54:41Z</time>
      </trkpt>
      <trkpt lat="43.1125" lon="0.07957">
        <ele>579.8122559</ele>
        <time>2010-10-17T08:54:44Z</time>
      </trkpt>
      <trkpt lat="43.11255" lon="0.07966">
        <ele>579.331543</ele>
        <time>2010-10-17T08:54:46Z</time>
      </trkpt>
      <trkpt lat="43.11265" lon="0.0798">
        <ele>579.331543</ele>
        <time>2010-10-17T08:54:51Z</time>
      </trkpt>
      <trkpt lat="43.11266" lon="0.07981">
        <ele>578.8510742</ele>
        <time>2010-10-17T08:54:56Z</time>
      </trkpt>
      <trkpt lat="43.11265" lon="0.07981">
        <ele>580.2929688</ele>
        <time>2010-10-17T08:55:18Z</time>
      </trkpt>
      <trkpt lat="43.1127" lon="0.07968">
        <ele>578.8510742</ele>
        <time>2010-10-17T08:55:23Z</time>
      </trkpt>
      <trkpt lat="43.1127" lon="0.07958">
        <ele>578.3703613</ele>
        <time>2010-10-17T08:55:25Z</time>
      </trkpt>
      <trkpt lat="43.11264" lon="0.07913">
        <ele>575.4863281</ele>
        <time>2010-10-17T08:55:32Z</time>
      </trkpt>
      <trkpt lat="43.11258" lon="0.07853">
        <ele>571.6408691</ele>
        <time>2010-10-17T08:55:39Z</time>
      </trkpt>
      <trkpt lat="43.11254" lon="0.07776">
        <ele>568.2763672</ele>
        <time>2010-10-17T08:55:47Z</time>
      </trkpt>
      <trkpt lat="43.11265" lon="0.07746">
        <ele>567.7956543</ele>
        <time>2010-10-17T08:55:51Z</time>
      </trkpt>
      <trkpt lat="43.11274" lon="0.0773">
        <ele>569.237793</ele>
        <time>2010-10-17T08:55:55Z</time>
      </trkpt>
      <trkpt lat="43.11275" lon="0.07722">
        <ele>569.7185059</ele>
        <time>2010-10-17T08:55:57Z</time>
      </trkpt>
      <trkpt lat="43.11272" lon="0.07697">
        <ele>569.7185059</ele>
        <time>2010-10-17T08:56:04Z</time>
      </trkpt>
      <trkpt lat="43.1127" lon="0.07679">
        <ele>569.7185059</ele>
        <time>2010-10-17T08:56:09Z</time>
      </trkpt>
      <trkpt lat="43.11264" lon="0.07651">
        <ele>569.7185059</ele>
        <time>2010-10-17T08:56:17Z</time>
      </trkpt>
      <trkpt lat="43.11258" lon="0.07619">
        <ele>569.7185059</ele>
        <time>2010-10-17T08:56:25Z</time>
      </trkpt>
      <trkpt lat="43.11254" lon="0.07582">
        <ele>568.2763672</ele>
        <time>2010-10-17T08:56:31Z</time>
      </trkpt>
      <trkpt lat="43.1125" lon="0.0754">
        <ele>565.873291</ele>
        <time>2010-10-17T08:56:36Z</time>
      </trkpt>
      <trkpt lat="43.11239" lon="0.07506">
        <ele>564.9118652</ele>
        <time>2010-10-17T08:56:40Z</time>
      </trkpt>
      <trkpt lat="43.11204" lon="0.07445">
        <ele>561.5473633</ele>
        <time>2010-10-17T08:56:48Z</time>
      </trkpt>
      <trkpt lat="43.11178" lon="0.07381">
        <ele>558.1828613</ele>
        <time>2010-10-17T08:56:55Z</time>
      </trkpt>
      <trkpt lat="43.11174" lon="0.07374">
        <ele>557.7021484</ele>
        <time>2010-10-17T08:56:56Z</time>
      </trkpt>
      <trkpt lat="43.11173" lon="0.07352">
        <ele>555.7792969</ele>
        <time>2010-10-17T08:57:00Z</time>
      </trkpt>
      <trkpt lat="43.11177" lon="0.0735">
        <ele>555.298584</ele>
        <time>2010-10-17T08:57:01Z</time>
      </trkpt>
      <trkpt lat="43.11211" lon="0.0733">
        <ele>551.934082</ele>
        <time>2010-10-17T08:57:08Z</time>
      </trkpt>
      <trkpt lat="43.1124" lon="0.07314">
        <ele>548.5693359</ele>
        <time>2010-10-17T08:57:12Z</time>
      </trkpt>
      <trkpt lat="43.11287" lon="0.07292">
        <ele>543.2821045</ele>
        <time>2010-10-17T08:57:17Z</time>
      </trkpt>
      <trkpt lat="43.11363" lon="0.07255">
        <ele>537.5142822</ele>
        <time>2010-10-17T08:57:24Z</time>
      </trkpt>
      <trkpt lat="43.11438" lon="0.07215">
        <ele>533.6689453</ele>
        <time>2010-10-17T08:57:31Z</time>
      </trkpt>
      <trkpt lat="43.11498" lon="0.07192">
        <ele>532.2270508</ele>
        <time>2010-10-17T08:57:37Z</time>
      </trkpt>
      <trkpt lat="43.11527" lon="0.07171">
        <ele>533.1883545</ele>
        <time>2010-10-17T08:57:41Z</time>
      </trkpt>
      <trkpt lat="43.11549" lon="0.07156">
        <ele>534.1496582</ele>
        <time>2010-10-17T08:57:45Z</time>
      </trkpt>
      <trkpt lat="43.11572" lon="0.07146">
        <ele>536.0723877</ele>
        <time>2010-10-17T08:57:51Z</time>
      </trkpt>
      <trkpt lat="43.11603" lon="0.07132">
        <ele>534.6303711</ele>
        <time>2010-10-17T08:57:59Z</time>
      </trkpt>
      <trkpt lat="43.11635" lon="0.07115">
        <ele>533.1883545</ele>
        <time>2010-10-17T08:58:05Z</time>
      </trkpt>
      <trkpt lat="43.11691" lon="0.07086">
        <ele>531.2657471</ele>
        <time>2010-10-17T08:58:14Z</time>
      </trkpt>
      <trkpt lat="43.1172" lon="0.07064">
        <ele>530.3044434</ele>
        <time>2010-10-17T08:58:19Z</time>
      </trkpt>
      <trkpt lat="43.11762" lon="0.07049">
        <ele>529.3431396</ele>
        <time>2010-10-17T08:58:26Z</time>
      </trkpt>
      <trkpt lat="43.11783" lon="0.07046">
        <ele>529.3431396</ele>
        <time>2010-10-17T08:58:31Z</time>
      </trkpt>
      <trkpt lat="43.11791" lon="0.07038">
        <ele>529.3431396</ele>
        <time>2010-10-17T08:58:35Z</time>
      </trkpt>
      <trkpt lat="43.11792" lon="0.07036">
        <ele>529.3431396</ele>
        <time>2010-10-17T08:58:36Z</time>
      </trkpt>
      <trkpt lat="43.11783" lon="0.07019">
        <ele>528.8625488</ele>
        <time>2010-10-17T08:58:44Z</time>
      </trkpt>
      <trkpt lat="43.11779" lon="0.07011">
        <ele>529.8237305</ele>
        <time>2010-10-17T08:58:49Z</time>
      </trkpt>
      <trkpt lat="43.11777" lon="0.07011">
        <ele>530.3044434</ele>
        <time>2010-10-17T08:58:52Z</time>
      </trkpt>
      <trkpt lat="43.11775" lon="0.07008">
        <ele>531.2657471</ele>
        <time>2010-10-17T08:58:55Z</time>
      </trkpt>
      <trkpt lat="43.11774" lon="0.07003">
        <ele>530.7851563</ele>
        <time>2010-10-17T08:59:01Z</time>
      </trkpt>
      <trkpt lat="43.11774" lon="0.07005">
        <ele>529.3431396</ele>
        <time>2010-10-17T08:59:24Z</time>
      </trkpt>
      <trkpt lat="43.11771" lon="0.07009">
        <ele>528.3818359</ele>
        <time>2010-10-17T09:01:39Z</time>
      </trkpt>
      <trkpt lat="43.11771" lon="0.07004">
        <ele>536.0723877</ele>
        <time>2010-10-17T09:04:01Z</time>
      </trkpt>
      <trkpt lat="43.11771" lon="0.07003">
        <ele>534.1496582</ele>
        <time>2010-10-17T09:04:09Z</time>
      </trkpt>
      <trkpt lat="43.1177" lon="0.07">
        <ele>533.1883545</ele>
        <time>2010-10-17T09:04:17Z</time>
      </trkpt>
      <trkpt lat="43.11766" lon="0.0699">
        <ele>529.8237305</ele>
        <time>2010-10-17T09:04:24Z</time>
      </trkpt>
      <trkpt lat="43.11756" lon="0.06977">
        <ele>528.8625488</ele>
        <time>2010-10-17T09:04:31Z</time>
      </trkpt>
      <trkpt lat="43.11748" lon="0.06956">
        <ele>527.901001</ele>
        <time>2010-10-17T09:04:39Z</time>
      </trkpt>
      <trkpt lat="43.11741" lon="0.06938">
        <ele>527.901001</ele>
        <time>2010-10-17T09:04:46Z</time>
      </trkpt>
      <trkpt lat="43.11735" lon="0.06918">
        <ele>527.4204102</ele>
        <time>2010-10-17T09:04:53Z</time>
      </trkpt>
      <trkpt lat="43.11729" lon="0.06893">
        <ele>526.9398193</ele>
        <time>2010-10-17T09:05:01Z</time>
      </trkpt>
      <trkpt lat="43.11725" lon="0.06869">
        <ele>528.8625488</ele>
        <time>2010-10-17T09:05:09Z</time>
      </trkpt>
      <trkpt lat="43.11722" lon="0.06849">
        <ele>530.3044434</ele>
        <time>2010-10-17T09:05:16Z</time>
      </trkpt>
      <trkpt lat="43.11718" lon="0.06832">
        <ele>530.7851563</ele>
        <time>2010-10-17T09:05:23Z</time>
      </trkpt>
      <trkpt lat="43.11713" lon="0.06807">
        <ele>532.7077637</ele>
        <time>2010-10-17T09:05:31Z</time>
      </trkpt>
      <trkpt lat="43.11711" lon="0.06784">
        <ele>533.1883545</ele>
        <time>2010-10-17T09:05:37Z</time>
      </trkpt>
      <trkpt lat="43.11708" lon="0.06751">
        <ele>533.1883545</ele>
        <time>2010-10-17T09:05:45Z</time>
      </trkpt>
      <trkpt lat="43.11706" lon="0.06714">
        <ele>532.2270508</ele>
        <time>2010-10-17T09:05:53Z</time>
      </trkpt>
      <trkpt lat="43.11705" lon="0.06678">
        <ele>531.7463379</ele>
        <time>2010-10-17T09:06:01Z</time>
      </trkpt>
      <trkpt lat="43.11703" lon="0.06638">
        <ele>531.2657471</ele>
        <time>2010-10-17T09:06:10Z</time>
      </trkpt>
      <trkpt lat="43.117" lon="0.06594">
        <ele>530.3044434</ele>
        <time>2010-10-17T09:06:19Z</time>
      </trkpt>
      <trkpt lat="43.11697" lon="0.06541">
        <ele>529.8237305</ele>
        <time>2010-10-17T09:06:28Z</time>
      </trkpt>
      <trkpt lat="43.11701" lon="0.06496">
        <ele>530.7851563</ele>
        <time>2010-10-17T09:06:36Z</time>
      </trkpt>
      <trkpt lat="43.11706" lon="0.06457">
        <ele>530.7851563</ele>
        <time>2010-10-17T09:06:43Z</time>
      </trkpt>
      <trkpt lat="43.11712" lon="0.06412">
        <ele>529.3431396</ele>
        <time>2010-10-17T09:06:49Z</time>
      </trkpt>
      <trkpt lat="43.11718" lon="0.06345">
        <ele>527.4204102</ele>
        <time>2010-10-17T09:06:57Z</time>
      </trkpt>
      <trkpt lat="43.11723" lon="0.06286">
        <ele>525.9783936</ele>
        <time>2010-10-17T09:07:04Z</time>
      </trkpt>
      <trkpt lat="43.11728" lon="0.06221">
        <ele>523.5751953</ele>
        <time>2010-10-17T09:07:11Z</time>
      </trkpt>
      <trkpt lat="43.1173" lon="0.06142">
        <ele>520.2105713</ele>
        <time>2010-10-17T09:07:19Z</time>
      </trkpt>
      <trkpt lat="43.11723" lon="0.06088">
        <ele>516.8459473</ele>
        <time>2010-10-17T09:07:24Z</time>
      </trkpt>
      <trkpt lat="43.11709" lon="0.0604">
        <ele>512.5200195</ele>
        <time>2010-10-17T09:07:28Z</time>
      </trkpt>
      <trkpt lat="43.11704" lon="0.06029">
        <ele>511.5587158</ele>
        <time>2010-10-17T09:07:29Z</time>
      </trkpt>
      <trkpt lat="43.11692" lon="0.05964">
        <ele>508.6746826</ele>
        <time>2010-10-17T09:07:34Z</time>
      </trkpt>
      <trkpt lat="43.11693" lon="0.05913">
        <ele>506.7520752</ele>
        <time>2010-10-17T09:07:38Z</time>
      </trkpt>
      <trkpt lat="43.11709" lon="0.0587">
        <ele>505.3101807</ele>
        <time>2010-10-17T09:07:42Z</time>
      </trkpt>
      <trkpt lat="43.11716" lon="0.05863">
        <ele>504.8294678</ele>
        <time>2010-10-17T09:07:43Z</time>
      </trkpt>
      <trkpt lat="43.11758" lon="0.05814">
        <ele>503.8681641</ele>
        <time>2010-10-17T09:07:50Z</time>
      </trkpt>
      <trkpt lat="43.11781" lon="0.05764">
        <ele>503.8681641</ele>
        <time>2010-10-17T09:07:56Z</time>
      </trkpt>
      <trkpt lat="43.11807" lon="0.05691">
        <ele>501.9455566</ele>
        <time>2010-10-17T09:08:04Z</time>
      </trkpt>
      <trkpt lat="43.11827" lon="0.05636">
        <ele>500.9841309</ele>
        <time>2010-10-17T09:08:10Z</time>
      </trkpt>
      <trkpt lat="43.11838" lon="0.05582">
        <ele>500.50354</ele>
        <time>2010-10-17T09:08:16Z</time>
      </trkpt>
      <trkpt lat="43.11852" lon="0.05533">
        <ele>500.0229492</ele>
        <time>2010-10-17T09:08:22Z</time>
      </trkpt>
      <trkpt lat="43.11874" lon="0.05486">
        <ele>500.9841309</ele>
        <time>2010-10-17T09:08:29Z</time>
      </trkpt>
      <trkpt lat="43.119" lon="0.05436">
        <ele>500.9841309</ele>
        <time>2010-10-17T09:08:37Z</time>
      </trkpt>
      <trkpt lat="43.11907" lon="0.05425">
        <ele>500.9841309</ele>
        <time>2010-10-17T09:08:39Z</time>
      </trkpt>
      <trkpt lat="43.11923" lon="0.05407">
        <ele>501.4648438</ele>
        <time>2010-10-17T09:08:43Z</time>
      </trkpt>
      <trkpt lat="43.1195" lon="0.05389">
        <ele>502.4261475</ele>
        <time>2010-10-17T09:08:51Z</time>
      </trkpt>
      <trkpt lat="43.11965" lon="0.0538">
        <ele>505.3101807</ele>
        <time>2010-10-17T09:08:57Z</time>
      </trkpt>
      <trkpt lat="43.11979" lon="0.05369">
        <ele>507.713501</ele>
        <time>2010-10-17T09:09:03Z</time>
      </trkpt>
      <trkpt lat="43.11995" lon="0.0537">
        <ele>506.7520752</ele>
        <time>2010-10-17T09:09:08Z</time>
      </trkpt>
      <trkpt lat="43.11999" lon="0.0537">
        <ele>506.7520752</ele>
        <time>2010-10-17T09:09:09Z</time>
      </trkpt>
      <trkpt lat="43.12022" lon="0.0536">
        <ele>505.7908936</ele>
        <time>2010-10-17T09:09:14Z</time>
      </trkpt>
      <trkpt lat="43.12034" lon="0.05354">
        <ele>504.8294678</ele>
        <time>2010-10-17T09:09:16Z</time>
      </trkpt>
      <trkpt lat="43.12057" lon="0.05335">
        <ele>503.8681641</ele>
        <time>2010-10-17T09:09:20Z</time>
      </trkpt>
      <trkpt lat="43.12075" lon="0.05317">
        <ele>503.3874512</ele>
        <time>2010-10-17T09:09:23Z</time>
      </trkpt>
      <trkpt lat="43.121" lon="0.05301">
        <ele>501.9455566</ele>
        <time>2010-10-17T09:09:27Z</time>
      </trkpt>
      <trkpt lat="43.1212" lon="0.05301">
        <ele>501.4648438</ele>
        <time>2010-10-17T09:09:30Z</time>
      </trkpt>
      <trkpt lat="43.12147" lon="0.05284">
        <ele>500.0229492</ele>
        <time>2010-10-17T09:09:35Z</time>
      </trkpt>
      <trkpt lat="43.12155" lon="0.05269">
        <ele>500.0229492</ele>
        <time>2010-10-17T09:09:37Z</time>
      </trkpt>
      <trkpt lat="43.12173" lon="0.05219">
        <ele>499.5422363</ele>
        <time>2010-10-17T09:09:43Z</time>
      </trkpt>
      <trkpt lat="43.12177" lon="0.05204">
        <ele>499.5422363</ele>
        <time>2010-10-17T09:09:45Z</time>
      </trkpt>
      <trkpt lat="43.12186" lon="0.05164">
        <ele>500.50354</ele>
        <time>2010-10-17T09:09:51Z</time>
      </trkpt>
      <trkpt lat="43.12187" lon="0.05143">
        <ele>501.9455566</ele>
        <time>2010-10-17T09:09:56Z</time>
      </trkpt>
      <trkpt lat="43.12187" lon="0.05123">
        <ele>503.8681641</ele>
        <time>2010-10-17T09:10:02Z</time>
      </trkpt>
      <trkpt lat="43.12188" lon="0.05096">
        <ele>503.3874512</ele>
        <time>2010-10-17T09:10:09Z</time>
      </trkpt>
      <trkpt lat="43.1219" lon="0.05066">
        <ele>504.348877</ele>
        <time>2010-10-17T09:10:17Z</time>
      </trkpt>
      <trkpt lat="43.12192" lon="0.05036">
        <ele>504.8294678</ele>
        <time>2010-10-17T09:10:24Z</time>
      </trkpt>
      <trkpt lat="43.12196" lon="0.04995">
        <ele>504.8294678</ele>
        <time>2010-10-17T09:10:32Z</time>
      </trkpt>
      <trkpt lat="43.12205" lon="0.04951">
        <ele>503.3874512</ele>
        <time>2010-10-17T09:10:40Z</time>
      </trkpt>
      <trkpt lat="43.12207" lon="0.04927">
        <ele>501.9455566</ele>
        <time>2010-10-17T09:10:44Z</time>
      </trkpt>
      <trkpt lat="43.12209" lon="0.04883">
        <ele>502.4261475</ele>
        <time>2010-10-17T09:10:50Z</time>
      </trkpt>
      <trkpt lat="43.12218" lon="0.04842">
        <ele>497.6196289</ele>
        <time>2010-10-17T09:10:55Z</time>
      </trkpt>
      <trkpt lat="43.1222" lon="0.04834">
        <ele>497.138916</ele>
        <time>2010-10-17T09:10:56Z</time>
      </trkpt>
      <trkpt lat="43.1224" lon="0.04811">
        <ele>494.7355957</ele>
        <time>2010-10-17T09:11:01Z</time>
      </trkpt>
      <trkpt lat="43.12247" lon="0.0481">
        <ele>493.774292</ele>
        <time>2010-10-17T09:11:02Z</time>
      </trkpt>
      <trkpt lat="43.12262" lon="0.0481">
        <ele>492.8129883</ele>
        <time>2010-10-17T09:11:04Z</time>
      </trkpt>
      <trkpt lat="43.12292" lon="0.04796">
        <ele>491.3709717</ele>
        <time>2010-10-17T09:11:08Z</time>
      </trkpt>
      <trkpt lat="43.12303" lon="0.0478">
        <ele>491.3709717</ele>
        <time>2010-10-17T09:11:10Z</time>
      </trkpt>
      <trkpt lat="43.1232" lon="0.04748">
        <ele>491.8516846</ele>
        <time>2010-10-17T09:11:14Z</time>
      </trkpt>
      <trkpt lat="43.12342" lon="0.04731">
        <ele>492.3323975</ele>
        <time>2010-10-17T09:11:19Z</time>
      </trkpt>
      <trkpt lat="43.12376" lon="0.04717">
        <ele>490.40979</ele>
        <time>2010-10-17T09:11:25Z</time>
      </trkpt>
      <trkpt lat="43.1241" lon="0.04708">
        <ele>487.0450439</ele>
        <time>2010-10-17T09:11:30Z</time>
      </trkpt>
      <trkpt lat="43.12427" lon="0.047">
        <ele>484.6418457</ele>
        <time>2010-10-17T09:11:33Z</time>
      </trkpt>
      <trkpt lat="43.12457" lon="0.04673">
        <ele>478.3931885</ele>
        <time>2010-10-17T09:11:40Z</time>
      </trkpt>
      <trkpt lat="43.1248" lon="0.04669">
        <ele>474.5479736</ele>
        <time>2010-10-17T09:11:44Z</time>
      </trkpt>
      <trkpt lat="43.125" lon="0.04667">
        <ele>470.7026367</ele>
        <time>2010-10-17T09:11:48Z</time>
      </trkpt>
      <trkpt lat="43.12514" lon="0.04618">
        <ele>463.4927979</ele>
        <time>2010-10-17T09:11:53Z</time>
      </trkpt>
      <trkpt lat="43.1251" lon="0.0458">
        <ele>459.1668701</ele>
        <time>2010-10-17T09:11:56Z</time>
      </trkpt>
      <trkpt lat="43.12507" lon="0.04557">
        <ele>455.3215332</ele>
        <time>2010-10-17T09:11:58Z</time>
      </trkpt>
      <trkpt lat="43.12505" lon="0.04521">
        <ele>450.5150146</ele>
        <time>2010-10-17T09:12:01Z</time>
      </trkpt>
      <trkpt lat="43.12509" lon="0.04453">
        <ele>440.4212646</ele>
        <time>2010-10-17T09:12:06Z</time>
      </trkpt>
      <trkpt lat="43.12519" lon="0.0441">
        <ele>431.769165</ele>
        <time>2010-10-17T09:12:10Z</time>
      </trkpt>
      <trkpt lat="43.1254" lon="0.04386">
        <ele>425.520752</ele>
        <time>2010-10-17T09:12:13Z</time>
      </trkpt>
      <trkpt lat="43.12555" lon="0.04375">
        <ele>422.6367188</ele>
        <time>2010-10-17T09:12:15Z</time>
      </trkpt>
      <trkpt lat="43.12568" lon="0.04349">
        <ele>416.8688965</ele>
        <time>2010-10-17T09:12:19Z</time>
      </trkpt>
      <trkpt lat="43.12581" lon="0.04322">
        <ele>409.1783447</ele>
        <time>2010-10-17T09:12:24Z</time>
      </trkpt>
      <trkpt lat="43.12587" lon="0.04324">
        <ele>407.7363281</ele>
        <time>2010-10-17T09:12:25Z</time>
      </trkpt>
      <trkpt lat="43.12605" lon="0.04312">
        <ele>403.4104004</ele>
        <time>2010-10-17T09:12:30Z</time>
      </trkpt>
      <trkpt lat="43.12594" lon="0.04297">
        <ele>400.5264893</ele>
        <time>2010-10-17T09:12:33Z</time>
      </trkpt>
      <trkpt lat="43.12587" lon="0.04292">
        <ele>399.0843506</ele>
        <time>2010-10-17T09:12:34Z</time>
      </trkpt>
      <trkpt lat="43.12579" lon="0.0427">
        <ele>393.7972412</ele>
        <time>2010-10-17T09:12:39Z</time>
      </trkpt>
      <trkpt lat="43.12586" lon="0.04269">
        <ele>392.8359375</ele>
        <time>2010-10-17T09:12:40Z</time>
      </trkpt>
      <trkpt lat="43.12624" lon="0.04258">
        <ele>388.0292969</ele>
        <time>2010-10-17T09:12:45Z</time>
      </trkpt>
      <trkpt lat="43.12661" lon="0.04254">
        <ele>381.7806396</ele>
        <time>2010-10-17T09:12:50Z</time>
      </trkpt>
      <trkpt lat="43.12688" lon="0.0425">
        <ele>379.8580322</ele>
        <time>2010-10-17T09:12:54Z</time>
      </trkpt>
      <trkpt lat="43.12713" lon="0.0424">
        <ele>378.8968506</ele>
        <time>2010-10-17T09:13:00Z</time>
      </trkpt>
      <trkpt lat="43.12722" lon="0.04234">
        <ele>379.3774414</ele>
        <time>2010-10-17T09:13:05Z</time>
      </trkpt>
      <trkpt lat="43.12722" lon="0.04234">
        <ele>379.8580322</ele>
        <time>2010-10-17T09:13:13Z</time>
      </trkpt>
      <trkpt lat="43.1273" lon="0.0424">
        <ele>380.3387451</ele>
        <time>2010-10-17T09:13:20Z</time>
      </trkpt>
      <trkpt lat="43.12738" lon="0.04253">
        <ele>379.8580322</ele>
        <time>2010-10-17T09:13:27Z</time>
      </trkpt>
      <trkpt lat="43.12747" lon="0.04272">
        <ele>379.3774414</ele>
        <time>2010-10-17T09:13:34Z</time>
      </trkpt>
      <trkpt lat="43.12756" lon="0.04301">
        <ele>380.819458</ele>
        <time>2010-10-17T09:13:42Z</time>
      </trkpt>
      <trkpt lat="43.12757" lon="0.04323">
        <ele>380.819458</ele>
        <time>2010-10-17T09:13:47Z</time>
      </trkpt>
      <trkpt lat="43.12752" lon="0.04343">
        <ele>380.3387451</ele>
        <time>2010-10-17T09:13:52Z</time>
      </trkpt>
      <trkpt lat="43.12744" lon="0.04378">
        <ele>377.9354248</ele>
        <time>2010-10-17T09:14:00Z</time>
      </trkpt>
      <trkpt lat="43.12748" lon="0.04393">
        <ele>379.3774414</ele>
        <time>2010-10-17T09:14:06Z</time>
      </trkpt>
      <trkpt lat="43.12754" lon="0.04411">
        <ele>380.819458</ele>
        <time>2010-10-17T09:14:12Z</time>
      </trkpt>
      <trkpt lat="43.1276" lon="0.0443">
        <ele>383.2226563</ele>
        <time>2010-10-17T09:14:18Z</time>
      </trkpt>
      <trkpt lat="43.12763" lon="0.04451">
        <ele>385.6259766</ele>
        <time>2010-10-17T09:14:25Z</time>
      </trkpt>
      <trkpt lat="43.12767" lon="0.04467">
        <ele>386.5874023</ele>
        <time>2010-10-17T09:14:31Z</time>
      </trkpt>
      <trkpt lat="43.12775" lon="0.04488">
        <ele>386.1066895</ele>
        <time>2010-10-17T09:14:38Z</time>
      </trkpt>
      <trkpt lat="43.12782" lon="0.04508">
        <ele>383.2226563</ele>
        <time>2010-10-17T09:14:45Z</time>
      </trkpt>
      <trkpt lat="43.12791" lon="0.04525">
        <ele>381.3000488</ele>
        <time>2010-10-17T09:14:53Z</time>
      </trkpt>
      <trkpt lat="43.12797" lon="0.04534">
        <ele>383.7032471</ele>
        <time>2010-10-17T09:15:00Z</time>
      </trkpt>
      <trkpt lat="43.12802" lon="0.04545">
        <ele>391.8745117</ele>
        <time>2010-10-17T09:15:07Z</time>
      </trkpt>
      <trkpt lat="43.12806" lon="0.04552">
        <ele>394.7585449</ele>
        <time>2010-10-17T09:15:13Z</time>
      </trkpt>
      <trkpt lat="43.12815" lon="0.04559">
        <ele>395.2391357</ele>
        <time>2010-10-17T09:15:21Z</time>
      </trkpt>
      <trkpt lat="43.12816" lon="0.0456">
        <ele>395.7198486</ele>
        <time>2010-10-17T09:15:22Z</time>
      </trkpt>
      <trkpt lat="43.12825" lon="0.0456">
        <ele>400.0458984</ele>
        <time>2010-10-17T09:15:31Z</time>
      </trkpt>
      <trkpt lat="43.12827" lon="0.0456">
        <ele>400.5264893</ele>
        <time>2010-10-17T09:15:33Z</time>
      </trkpt>
      <trkpt lat="43.12835" lon="0.04553">
        <ele>403.8911133</ele>
        <time>2010-10-17T09:15:42Z</time>
      </trkpt>
      <trkpt lat="43.12838" lon="0.04546">
        <ele>405.8137207</ele>
        <time>2010-10-17T09:15:48Z</time>
      </trkpt>
      <trkpt lat="43.12835" lon="0.04537">
        <ele>406.2943115</ele>
        <time>2010-10-17T09:15:55Z</time>
      </trkpt>
      <trkpt lat="43.12834" lon="0.04536">
        <ele>406.2943115</ele>
        <time>2010-10-17T09:15:56Z</time>
      </trkpt>
      <trkpt lat="43.12829" lon="0.04526">
        <ele>409.6590576</ele>
        <time>2010-10-17T09:16:04Z</time>
      </trkpt>
      <trkpt lat="43.12826" lon="0.04514">
        <ele>411.581665</ele>
        <time>2010-10-17T09:16:11Z</time>
      </trkpt>
      <trkpt lat="43.12825" lon="0.04503">
        <ele>415.9074707</ele>
        <time>2010-10-17T09:16:18Z</time>
      </trkpt>
      <trkpt lat="43.12828" lon="0.0449">
        <ele>416.3881836</ele>
        <time>2010-10-17T09:16:26Z</time>
      </trkpt>
      <trkpt lat="43.12829" lon="0.04486">
        <ele>414.4654541</ele>
        <time>2010-10-17T09:16:29Z</time>
      </trkpt>
      <trkpt lat="43.12834" lon="0.04475">
        <ele>410.6202393</ele>
        <time>2010-10-17T09:16:36Z</time>
      </trkpt>
      <trkpt lat="43.12838" lon="0.04466">
        <ele>411.581665</ele>
        <time>2010-10-17T09:16:44Z</time>
      </trkpt>
      <trkpt lat="43.12845" lon="0.04457">
        <ele>416.8688965</ele>
        <time>2010-10-17T09:16:53Z</time>
      </trkpt>
      <trkpt lat="43.12851" lon="0.0445">
        <ele>421.1948242</ele>
        <time>2010-10-17T09:17:00Z</time>
      </trkpt>
      <trkpt lat="43.12859" lon="0.04441">
        <ele>427.4433594</ele>
        <time>2010-10-17T09:17:08Z</time>
      </trkpt>
      <trkpt lat="43.12867" lon="0.04433">
        <ele>430.8079834</ele>
        <time>2010-10-17T09:17:16Z</time>
      </trkpt>
      <trkpt lat="43.12877" lon="0.04424">
        <ele>432.7307129</ele>
        <time>2010-10-17T09:17:26Z</time>
      </trkpt>
      <trkpt lat="43.12887" lon="0.04416">
        <ele>435.1339111</ele>
        <time>2010-10-17T09:17:35Z</time>
      </trkpt>
      <trkpt lat="43.12898" lon="0.04413">
        <ele>434.6533203</ele>
        <time>2010-10-17T09:17:43Z</time>
      </trkpt>
      <trkpt lat="43.12908" lon="0.04412">
        <ele>434.6533203</ele>
        <time>2010-10-17T09:17:51Z</time>
      </trkpt>
      <trkpt lat="43.12917" lon="0.04413">
        <ele>436.5759277</ele>
        <time>2010-10-17T09:17:59Z</time>
      </trkpt>
      <trkpt lat="43.12927" lon="0.04414">
        <ele>436.0952148</ele>
        <time>2010-10-17T09:18:07Z</time>
      </trkpt>
      <trkpt lat="43.12936" lon="0.04416">
        <ele>438.979126</ele>
        <time>2010-10-17T09:18:15Z</time>
      </trkpt>
      <trkpt lat="43.12948" lon="0.04418">
        <ele>440.9018555</ele>
        <time>2010-10-17T09:18:24Z</time>
      </trkpt>
      <trkpt lat="43.12957" lon="0.04422">
        <ele>444.2664795</ele>
        <time>2010-10-17T09:18:32Z</time>
      </trkpt>
      <trkpt lat="43.12958" lon="0.04423">
        <ele>444.7470703</ele>
        <time>2010-10-17T09:18:33Z</time>
      </trkpt>
      <trkpt lat="43.12963" lon="0.0443">
        <ele>446.6696777</ele>
        <time>2010-10-17T09:18:38Z</time>
      </trkpt>
      <trkpt lat="43.12964" lon="0.04442">
        <ele>449.5537109</ele>
        <time>2010-10-17T09:18:45Z</time>
      </trkpt>
      <trkpt lat="43.12964" lon="0.04458">
        <ele>450.9956055</ele>
        <time>2010-10-17T09:18:54Z</time>
      </trkpt>
      <trkpt lat="43.12965" lon="0.04473">
        <ele>454.3602295</ele>
        <time>2010-10-17T09:19:02Z</time>
      </trkpt>
      <trkpt lat="43.12969" lon="0.0449">
        <ele>454.8408203</ele>
        <time>2010-10-17T09:19:10Z</time>
      </trkpt>
      <trkpt lat="43.12973" lon="0.04503">
        <ele>453.8796387</ele>
        <time>2010-10-17T09:19:16Z</time>
      </trkpt>
      <trkpt lat="43.12978" lon="0.04515">
        <ele>452.9182129</ele>
        <time>2010-10-17T09:19:22Z</time>
      </trkpt>
      <trkpt lat="43.12983" lon="0.04533">
        <ele>453.8796387</ele>
        <time>2010-10-17T09:19:30Z</time>
      </trkpt>
      <trkpt lat="43.12987" lon="0.04553">
        <ele>454.8408203</ele>
        <time>2010-10-17T09:19:39Z</time>
      </trkpt>
      <trkpt lat="43.12992" lon="0.04573">
        <ele>454.3602295</ele>
        <time>2010-10-17T09:19:48Z</time>
      </trkpt>
      <trkpt lat="43.12996" lon="0.04593">
        <ele>454.3602295</ele>
        <time>2010-10-17T09:19:56Z</time>
      </trkpt>
      <trkpt lat="43.13001" lon="0.04617">
        <ele>454.3602295</ele>
        <time>2010-10-17T09:20:04Z</time>
      </trkpt>
      <trkpt lat="43.13007" lon="0.04644">
        <ele>453.8796387</ele>
        <time>2010-10-17T09:20:10Z</time>
      </trkpt>
      <trkpt lat="43.13021" lon="0.04683">
        <ele>453.3989258</ele>
        <time>2010-10-17T09:20:18Z</time>
      </trkpt>
      <trkpt lat="43.13028" lon="0.04701">
        <ele>453.3989258</ele>
        <time>2010-10-17T09:20:23Z</time>
      </trkpt>
      <trkpt lat="43.13042" lon="0.0474">
        <ele>454.3602295</ele>
        <time>2010-10-17T09:20:33Z</time>
      </trkpt>
      <trkpt lat="43.13051" lon="0.04768">
        <ele>455.8022461</ele>
        <time>2010-10-17T09:20:41Z</time>
      </trkpt>
      <trkpt lat="43.13059" lon="0.04788">
        <ele>457.2442627</ele>
        <time>2010-10-17T09:20:49Z</time>
      </trkpt>
      <trkpt lat="43.13068" lon="0.04811">
        <ele>459.647583</ele>
        <time>2010-10-17T09:20:59Z</time>
      </trkpt>
      <trkpt lat="43.13077" lon="0.04831">
        <ele>461.5701904</ele>
        <time>2010-10-17T09:21:08Z</time>
      </trkpt>
      <trkpt lat="43.13085" lon="0.04846">
        <ele>462.5313721</ele>
        <time>2010-10-17T09:21:15Z</time>
      </trkpt>
      <trkpt lat="43.13092" lon="0.04859">
        <ele>463.9733887</ele>
        <time>2010-10-17T09:21:23Z</time>
      </trkpt>
      <trkpt lat="43.131" lon="0.04864">
        <ele>465.8961182</ele>
        <time>2010-10-17T09:21:30Z</time>
      </trkpt>
      <trkpt lat="43.1311" lon="0.04872">
        <ele>469.2607422</ele>
        <time>2010-10-17T09:21:39Z</time>
      </trkpt>
      <trkpt lat="43.13112" lon="0.04875">
        <ele>469.741333</ele>
        <time>2010-10-17T09:21:41Z</time>
      </trkpt>
      <trkpt lat="43.1312" lon="0.04884">
        <ele>472.1446533</ele>
        <time>2010-10-17T09:21:49Z</time>
      </trkpt>
      <trkpt lat="43.13128" lon="0.04894">
        <ele>475.5092773</ele>
        <time>2010-10-17T09:21:58Z</time>
      </trkpt>
      <trkpt lat="43.13135" lon="0.04903">
        <ele>477.9124756</ele>
        <time>2010-10-17T09:22:04Z</time>
      </trkpt>
      <trkpt lat="43.13142" lon="0.04917">
        <ele>477.9124756</ele>
        <time>2010-10-17T09:22:12Z</time>
      </trkpt>
      <trkpt lat="43.13147" lon="0.04928">
        <ele>478.8739014</ele>
        <time>2010-10-17T09:22:19Z</time>
      </trkpt>
      <trkpt lat="43.13153" lon="0.0494">
        <ele>481.2772217</ele>
        <time>2010-10-17T09:22:26Z</time>
      </trkpt>
      <trkpt lat="43.13159" lon="0.04951">
        <ele>483.1998291</ele>
        <time>2010-10-17T09:22:32Z</time>
      </trkpt>
      <trkpt lat="43.13166" lon="0.04958">
        <ele>485.1224365</ele>
        <time>2010-10-17T09:22:39Z</time>
      </trkpt>
      <trkpt lat="43.13175" lon="0.04966">
        <ele>486.0837402</ele>
        <time>2010-10-17T09:22:47Z</time>
      </trkpt>
      <trkpt lat="43.13186" lon="0.04973">
        <ele>488.4871826</ele>
        <time>2010-10-17T09:22:55Z</time>
      </trkpt>
      <trkpt lat="43.13198" lon="0.04979">
        <ele>489.9290771</ele>
        <time>2010-10-17T09:23:03Z</time>
      </trkpt>
      <trkpt lat="43.13208" lon="0.04977">
        <ele>490.40979</ele>
        <time>2010-10-17T09:23:10Z</time>
      </trkpt>
      <trkpt lat="43.13212" lon="0.04969">
        <ele>490.40979</ele>
        <time>2010-10-17T09:23:15Z</time>
      </trkpt>
      <trkpt lat="43.13221" lon="0.04955">
        <ele>488.4871826</ele>
        <time>2010-10-17T09:23:23Z</time>
      </trkpt>
      <trkpt lat="43.13234" lon="0.04934">
        <ele>488.9677734</ele>
        <time>2010-10-17T09:23:32Z</time>
      </trkpt>
      <trkpt lat="43.13249" lon="0.0491">
        <ele>488.9677734</ele>
        <time>2010-10-17T09:23:40Z</time>
      </trkpt>
      <trkpt lat="43.13273" lon="0.04874">
        <ele>487.5256348</ele>
        <time>2010-10-17T09:23:50Z</time>
      </trkpt>
      <trkpt lat="43.13292" lon="0.04843">
        <ele>486.5644531</ele>
        <time>2010-10-17T09:23:59Z</time>
      </trkpt>
      <trkpt lat="43.13307" lon="0.04821">
        <ele>486.0837402</ele>
        <time>2010-10-17T09:24:07Z</time>
      </trkpt>
      <trkpt lat="43.1332" lon="0.04797">
        <ele>485.1224365</ele>
        <time>2010-10-17T09:24:13Z</time>
      </trkpt>
      <trkpt lat="43.1333" lon="0.04783">
        <ele>484.6418457</ele>
        <time>2010-10-17T09:24:17Z</time>
      </trkpt>
      <trkpt lat="43.13342" lon="0.0479">
        <ele>483.6804199</ele>
        <time>2010-10-17T09:24:21Z</time>
      </trkpt>
      <trkpt lat="43.1336" lon="0.04822">
        <ele>482.7192383</ele>
        <time>2010-10-17T09:24:27Z</time>
      </trkpt>
      <trkpt lat="43.13384" lon="0.04848">
        <ele>482.7192383</ele>
        <time>2010-10-17T09:24:33Z</time>
      </trkpt>
      <trkpt lat="43.1341" lon="0.04864">
        <ele>483.6804199</ele>
        <time>2010-10-17T09:24:40Z</time>
      </trkpt>
      <trkpt lat="43.13436" lon="0.04872">
        <ele>483.6804199</ele>
        <time>2010-10-17T09:24:47Z</time>
      </trkpt>
      <trkpt lat="43.1346" lon="0.0487">
        <ele>484.6418457</ele>
        <time>2010-10-17T09:24:53Z</time>
      </trkpt>
      <trkpt lat="43.13474" lon="0.04856">
        <ele>486.0837402</ele>
        <time>2010-10-17T09:24:58Z</time>
      </trkpt>
      <trkpt lat="43.1349" lon="0.04825">
        <ele>487.5256348</ele>
        <time>2010-10-17T09:25:07Z</time>
      </trkpt>
      <trkpt lat="43.13499" lon="0.04803">
        <ele>489.4483643</ele>
        <time>2010-10-17T09:25:14Z</time>
      </trkpt>
      <trkpt lat="43.13512" lon="0.04777">
        <ele>492.3323975</ele>
        <time>2010-10-17T09:25:24Z</time>
      </trkpt>
      <trkpt lat="43.13526" lon="0.04759">
        <ele>493.774292</ele>
        <time>2010-10-17T09:25:32Z</time>
      </trkpt>
      <trkpt lat="43.13539" lon="0.04751">
        <ele>493.2935791</ele>
        <time>2010-10-17T09:25:38Z</time>
      </trkpt>
      <trkpt lat="43.13541" lon="0.04749">
        <ele>493.2935791</ele>
        <time>2010-10-17T09:25:39Z</time>
      </trkpt>
      <trkpt lat="43.13547" lon="0.04716">
        <ele>491.8516846</ele>
        <time>2010-10-17T09:25:48Z</time>
      </trkpt>
      <trkpt lat="43.13554" lon="0.04691">
        <ele>491.3709717</ele>
        <time>2010-10-17T09:25:55Z</time>
      </trkpt>
      <trkpt lat="43.13563" lon="0.04661">
        <ele>490.40979</ele>
        <time>2010-10-17T09:26:03Z</time>
      </trkpt>
      <trkpt lat="43.13568" lon="0.04638">
        <ele>489.9290771</ele>
        <time>2010-10-17T09:26:09Z</time>
      </trkpt>
      <trkpt lat="43.13576" lon="0.04603">
        <ele>488.9677734</ele>
        <time>2010-10-17T09:26:16Z</time>
      </trkpt>
      <trkpt lat="43.13585" lon="0.04563">
        <ele>486.5644531</ele>
        <time>2010-10-17T09:26:23Z</time>
      </trkpt>
      <trkpt lat="43.13591" lon="0.04517">
        <ele>483.6804199</ele>
        <time>2010-10-17T09:26:28Z</time>
      </trkpt>
      <trkpt lat="43.136" lon="0.04446">
        <ele>481.7578125</ele>
        <time>2010-10-17T09:26:34Z</time>
      </trkpt>
      <trkpt lat="43.13618" lon="0.04358">
        <ele>480.315918</ele>
        <time>2010-10-17T09:26:42Z</time>
      </trkpt>
      <trkpt lat="43.13635" lon="0.04301">
        <ele>479.835083</ele>
        <time>2010-10-17T09:26:48Z</time>
      </trkpt>
      <trkpt lat="43.13649" lon="0.0426">
        <ele>479.835083</ele>
        <time>2010-10-17T09:26:53Z</time>
      </trkpt>
      <trkpt lat="43.13676" lon="0.04204">
        <ele>479.3544922</ele>
        <time>2010-10-17T09:27:01Z</time>
      </trkpt>
      <trkpt lat="43.1371" lon="0.04145">
        <ele>478.3931885</ele>
        <time>2010-10-17T09:27:10Z</time>
      </trkpt>
      <trkpt lat="43.1374" lon="0.0411">
        <ele>479.835083</ele>
        <time>2010-10-17T09:27:17Z</time>
      </trkpt>
      <trkpt lat="43.13775" lon="0.04073">
        <ele>482.7192383</ele>
        <time>2010-10-17T09:27:26Z</time>
      </trkpt>
      <trkpt lat="43.13804" lon="0.04039">
        <ele>484.1611328</ele>
        <time>2010-10-17T09:27:34Z</time>
      </trkpt>
      <trkpt lat="43.13828" lon="0.04012">
        <ele>483.1998291</ele>
        <time>2010-10-17T09:27:41Z</time>
      </trkpt>
      <trkpt lat="43.1386" lon="0.0398">
        <ele>482.2385254</ele>
        <time>2010-10-17T09:27:48Z</time>
      </trkpt>
      <trkpt lat="43.13875" lon="0.0397">
        <ele>482.7192383</ele>
        <time>2010-10-17T09:27:51Z</time>
      </trkpt>
      <trkpt lat="43.13899" lon="0.03961">
        <ele>484.6418457</ele>
        <time>2010-10-17T09:27:57Z</time>
      </trkpt>
      <trkpt lat="43.13921" lon="0.0395">
        <ele>487.0450439</ele>
        <time>2010-10-17T09:28:04Z</time>
      </trkpt>
      <trkpt lat="43.13939" lon="0.03944">
        <ele>488.4871826</ele>
        <time>2010-10-17T09:28:10Z</time>
      </trkpt>
      <trkpt lat="43.13965" lon="0.03931">
        <ele>490.40979</ele>
        <time>2010-10-17T09:28:18Z</time>
      </trkpt>
      <trkpt lat="43.13992" lon="0.0392">
        <ele>491.8516846</ele>
        <time>2010-10-17T09:28:25Z</time>
      </trkpt>
      <trkpt lat="43.14031" lon="0.03913">
        <ele>491.3709717</ele>
        <time>2010-10-17T09:28:33Z</time>
      </trkpt>
      <trkpt lat="43.14054" lon="0.03896">
        <ele>490.40979</ele>
        <time>2010-10-17T09:28:38Z</time>
      </trkpt>
      <trkpt lat="43.14066" lon="0.0388">
        <ele>489.9290771</ele>
        <time>2010-10-17T09:28:41Z</time>
      </trkpt>
      <trkpt lat="43.14083" lon="0.03837">
        <ele>488.4871826</ele>
        <time>2010-10-17T09:28:47Z</time>
      </trkpt>
      <trkpt lat="43.14096" lon="0.03787">
        <ele>487.5256348</ele>
        <time>2010-10-17T09:28:54Z</time>
      </trkpt>
      <trkpt lat="43.14104" lon="0.0376">
        <ele>487.0450439</ele>
        <time>2010-10-17T09:28:58Z</time>
      </trkpt>
      <trkpt lat="43.14129" lon="0.03707">
        <ele>483.6804199</ele>
        <time>2010-10-17T09:29:06Z</time>
      </trkpt>
      <trkpt lat="43.14148" lon="0.03673">
        <ele>483.6804199</ele>
        <time>2010-10-17T09:29:12Z</time>
      </trkpt>
      <trkpt lat="43.14179" lon="0.03632">
        <ele>483.1998291</ele>
        <time>2010-10-17T09:29:20Z</time>
      </trkpt>
      <trkpt lat="43.14216" lon="0.03589">
        <ele>483.6804199</ele>
        <time>2010-10-17T09:29:29Z</time>
      </trkpt>
      <trkpt lat="43.14245" lon="0.03567">
        <ele>484.6418457</ele>
        <time>2010-10-17T09:29:36Z</time>
      </trkpt>
      <trkpt lat="43.14271" lon="0.03548">
        <ele>483.1998291</ele>
        <time>2010-10-17T09:29:41Z</time>
      </trkpt>
      <trkpt lat="43.14321" lon="0.03512">
        <ele>480.315918</ele>
        <time>2010-10-17T09:29:49Z</time>
      </trkpt>
      <trkpt lat="43.14356" lon="0.03483">
        <ele>476.9512939</ele>
        <time>2010-10-17T09:29:54Z</time>
      </trkpt>
      <trkpt lat="43.14362" lon="0.03475">
        <ele>476.4705811</ele>
        <time>2010-10-17T09:29:55Z</time>
      </trkpt>
      <trkpt lat="43.14381" lon="0.03439">
        <ele>474.0672607</ele>
        <time>2010-10-17T09:29:59Z</time>
      </trkpt>
      <trkpt lat="43.14384" lon="0.0343">
        <ele>473.1060791</ele>
        <time>2010-10-17T09:30:02Z</time>
      </trkpt>
      <trkpt lat="43.14386" lon="0.0342">
        <ele>471.6639404</ele>
        <time>2010-10-17T09:30:07Z</time>
      </trkpt>
      <trkpt lat="43.14389" lon="0.03412">
        <ele>470.7026367</ele>
        <time>2010-10-17T09:30:09Z</time>
      </trkpt>
      <trkpt lat="43.14408" lon="0.03377">
        <ele>466.8574219</ele>
        <time>2010-10-17T09:30:16Z</time>
      </trkpt>
      <trkpt lat="43.14411" lon="0.03372">
        <ele>465.8961182</ele>
        <time>2010-10-17T09:30:17Z</time>
      </trkpt>
      <trkpt lat="43.14433" lon="0.03354">
        <ele>463.9733887</ele>
        <time>2010-10-17T09:30:22Z</time>
      </trkpt>
      <trkpt lat="43.14443" lon="0.03344">
        <ele>463.9733887</ele>
        <time>2010-10-17T09:30:24Z</time>
      </trkpt>
      <trkpt lat="43.1446" lon="0.03331">
        <ele>463.012085</ele>
        <time>2010-10-17T09:30:27Z</time>
      </trkpt>
      <trkpt lat="43.1447" lon="0.0332">
        <ele>460.6087646</ele>
        <time>2010-10-17T09:30:29Z</time>
      </trkpt>
      <trkpt lat="43.14491" lon="0.03286">
        <ele>454.8408203</ele>
        <time>2010-10-17T09:30:33Z</time>
      </trkpt>
      <trkpt lat="43.14504" lon="0.03255">
        <ele>450.0344238</ele>
        <time>2010-10-17T09:30:36Z</time>
      </trkpt>
      <trkpt lat="43.14529" lon="0.03223">
        <ele>447.6309814</ele>
        <time>2010-10-17T09:30:40Z</time>
      </trkpt>
      <trkpt lat="43.14567" lon="0.03187">
        <ele>443.3050537</ele>
        <time>2010-10-17T09:30:45Z</time>
      </trkpt>
      <trkpt lat="43.14607" lon="0.03137">
        <ele>436.0952148</ele>
        <time>2010-10-17T09:30:51Z</time>
      </trkpt>
      <trkpt lat="43.14624" lon="0.03105">
        <ele>433.2113037</ele>
        <time>2010-10-17T09:30:54Z</time>
      </trkpt>
      <trkpt lat="43.14643" lon="0.03076">
        <ele>430.3272705</ele>
        <time>2010-10-17T09:30:57Z</time>
      </trkpt>
      <trkpt lat="43.14666" lon="0.03052">
        <ele>428.4046631</ele>
        <time>2010-10-17T09:31:01Z</time>
      </trkpt>
      <trkpt lat="43.14683" lon="0.03041">
        <ele>426.0013428</ele>
        <time>2010-10-17T09:31:05Z</time>
      </trkpt>
      <trkpt lat="43.14695" lon="0.03028">
        <ele>422.6367188</ele>
        <time>2010-10-17T09:31:09Z</time>
      </trkpt>
      <trkpt lat="43.14717" lon="0.03004">
        <ele>416.3881836</ele>
        <time>2010-10-17T09:31:15Z</time>
      </trkpt>
      <trkpt lat="43.14737" lon="0.02987">
        <ele>412.0622559</ele>
        <time>2010-10-17T09:31:20Z</time>
      </trkpt>
      <trkpt lat="43.14752" lon="0.02975">
        <ele>409.1783447</ele>
        <time>2010-10-17T09:31:24Z</time>
      </trkpt>
      <trkpt lat="43.1478" lon="0.02952">
        <ele>403.4104004</ele>
        <time>2010-10-17T09:31:29Z</time>
      </trkpt>
      <trkpt lat="43.14793" lon="0.02941">
        <ele>401.487793</ele>
        <time>2010-10-17T09:31:31Z</time>
      </trkpt>
      <trkpt lat="43.14811" lon="0.02917">
        <ele>397.6424561</ele>
        <time>2010-10-17T09:31:36Z</time>
      </trkpt>
      <trkpt lat="43.14824" lon="0.02905">
        <ele>395.7198486</ele>
        <time>2010-10-17T09:31:41Z</time>
      </trkpt>
      <trkpt lat="43.1483" lon="0.02902">
        <ele>395.2391357</ele>
        <time>2010-10-17T09:31:43Z</time>
      </trkpt>
      <trkpt lat="43.14845" lon="0.02904">
        <ele>392.8359375</ele>
        <time>2010-10-17T09:31:50Z</time>
      </trkpt>
      <trkpt lat="43.14863" lon="0.02893">
        <ele>389.9519043</ele>
        <time>2010-10-17T09:31:55Z</time>
      </trkpt>
      <trkpt lat="43.1489" lon="0.02876">
        <ele>386.5874023</ele>
        <time>2010-10-17T09:32:01Z</time>
      </trkpt>
      <trkpt lat="43.14901" lon="0.02876">
        <ele>386.1066895</ele>
        <time>2010-10-17T09:32:05Z</time>
      </trkpt>
      <trkpt lat="43.14914" lon="0.0288">
        <ele>381.3000488</ele>
        <time>2010-10-17T09:32:10Z</time>
      </trkpt>
      <trkpt lat="43.14921" lon="0.02881">
        <ele>378.4161377</ele>
        <time>2010-10-17T09:32:12Z</time>
      </trkpt>
      <trkpt lat="43.14946" lon="0.02888">
        <ele>376.4935303</ele>
        <time>2010-10-17T09:32:16Z</time>
      </trkpt>
      <trkpt lat="43.14984" lon="0.02896">
        <ele>372.6481934</ele>
        <time>2010-10-17T09:32:21Z</time>
      </trkpt>
      <trkpt lat="43.15036" lon="0.02894">
        <ele>367.8415527</ele>
        <time>2010-10-17T09:32:27Z</time>
      </trkpt>
      <trkpt lat="43.15074" lon="0.02907">
        <ele>366.3995361</ele>
        <time>2010-10-17T09:32:32Z</time>
      </trkpt>
      <trkpt lat="43.15102" lon="0.0292">
        <ele>365.4383545</ele>
        <time>2010-10-17T09:32:37Z</time>
      </trkpt>
      <trkpt lat="43.15141" lon="0.02924">
        <ele>363.0350342</ele>
        <time>2010-10-17T09:32:44Z</time>
      </trkpt>
      <trkpt lat="43.15175" lon="0.02918">
        <ele>360.6317139</ele>
        <time>2010-10-17T09:32:50Z</time>
      </trkpt>
      <trkpt lat="43.15211" lon="0.0291">
        <ele>360.151123</ele>
        <time>2010-10-17T09:32:57Z</time>
      </trkpt>
      <trkpt lat="43.15219" lon="0.02909">
        <ele>359.6704102</ele>
        <time>2010-10-17T09:32:59Z</time>
      </trkpt>
      <trkpt lat="43.15235" lon="0.0292">
        <ele>357.2670898</ele>
        <time>2010-10-17T09:33:04Z</time>
      </trkpt>
      <trkpt lat="43.15244" lon="0.0293">
        <ele>357.7478027</ele>
        <time>2010-10-17T09:33:11Z</time>
      </trkpt>
      <trkpt lat="43.15253" lon="0.02942">
        <ele>357.2670898</ele>
        <time>2010-10-17T09:33:17Z</time>
      </trkpt>
      <trkpt lat="43.15263" lon="0.02957">
        <ele>356.786377</ele>
        <time>2010-10-17T09:33:24Z</time>
      </trkpt>
      <trkpt lat="43.1527" lon="0.02971">
        <ele>355.3444824</ele>
        <time>2010-10-17T09:33:31Z</time>
      </trkpt>
      <trkpt lat="43.15277" lon="0.02981">
        <ele>354.8637695</ele>
        <time>2010-10-17T09:33:37Z</time>
      </trkpt>
      <trkpt lat="43.15286" lon="0.02994">
        <ele>354.3831787</ele>
        <time>2010-10-17T09:33:44Z</time>
      </trkpt>
      <trkpt lat="43.15293" lon="0.03008">
        <ele>354.8637695</ele>
        <time>2010-10-17T09:33:51Z</time>
      </trkpt>
      <trkpt lat="43.15299" lon="0.03018">
        <ele>354.8637695</ele>
        <time>2010-10-17T09:33:57Z</time>
      </trkpt>
      <trkpt lat="43.15309" lon="0.0303">
        <ele>355.3444824</ele>
        <time>2010-10-17T09:34:05Z</time>
      </trkpt>
      <trkpt lat="43.15321" lon="0.03042">
        <ele>355.3444824</ele>
        <time>2010-10-17T09:34:13Z</time>
      </trkpt>
      <trkpt lat="43.15333" lon="0.03045">
        <ele>354.8637695</ele>
        <time>2010-10-17T09:34:20Z</time>
      </trkpt>
      <trkpt lat="43.15349" lon="0.03049">
        <ele>355.8251953</ele>
        <time>2010-10-17T09:34:28Z</time>
      </trkpt>
      <trkpt lat="43.1535" lon="0.03047">
        <ele>357.7478027</ele>
        <time>2010-10-17T09:34:33Z</time>
      </trkpt>
      <trkpt lat="43.15355" lon="0.03047">
        <ele>358.7089844</ele>
        <time>2010-10-17T09:34:39Z</time>
      </trkpt>
      <trkpt lat="43.15372" lon="0.03051">
        <ele>356.786377</ele>
        <time>2010-10-17T09:34:43Z</time>
      </trkpt>
      <trkpt lat="43.15397" lon="0.03051">
        <ele>354.8637695</ele>
        <time>2010-10-17T09:34:47Z</time>
      </trkpt>
      <trkpt lat="43.15411" lon="0.03046">
        <ele>354.3831787</ele>
        <time>2010-10-17T09:34:49Z</time>
      </trkpt>
      <trkpt lat="43.15445" lon="0.03022">
        <ele>352.9411621</ele>
        <time>2010-10-17T09:34:54Z</time>
      </trkpt>
      <trkpt lat="43.1545" lon="0.03017">
        <ele>352.9411621</ele>
        <time>2010-10-17T09:34:55Z</time>
      </trkpt>
      <trkpt lat="43.15467" lon="0.03028">
        <ele>351.4991455</ele>
        <time>2010-10-17T09:34:59Z</time>
      </trkpt>
      <trkpt lat="43.15487" lon="0.03076">
        <ele>349.5765381</ele>
        <time>2010-10-17T09:35:06Z</time>
      </trkpt>
      <trkpt lat="43.15509" lon="0.03125">
        <ele>350.5378418</ele>
        <time>2010-10-17T09:35:14Z</time>
      </trkpt>
      <trkpt lat="43.15522" lon="0.03168">
        <ele>349.5765381</ele>
        <time>2010-10-17T09:35:21Z</time>
      </trkpt>
      <trkpt lat="43.15528" lon="0.03186">
        <ele>349.0958252</ele>
        <time>2010-10-17T09:35:24Z</time>
      </trkpt>
      <trkpt lat="43.15533" lon="0.03212">
        <ele>349.5765381</ele>
        <time>2010-10-17T09:35:28Z</time>
      </trkpt>
      <trkpt lat="43.15525" lon="0.03226">
        <ele>350.5378418</ele>
        <time>2010-10-17T09:35:32Z</time>
      </trkpt>
      <trkpt lat="43.15521" lon="0.03227">
        <ele>351.0184326</ele>
        <time>2010-10-17T09:35:33Z</time>
      </trkpt>
      <trkpt lat="43.15493" lon="0.03229">
        <ele>353.421875</ele>
        <time>2010-10-17T09:35:42Z</time>
      </trkpt>
      <trkpt lat="43.15469" lon="0.03232">
        <ele>356.3057861</ele>
        <time>2010-10-17T09:35:50Z</time>
      </trkpt>
      <trkpt lat="43.15448" lon="0.03236">
        <ele>356.786377</ele>
        <time>2010-10-17T09:35:58Z</time>
      </trkpt>
      <trkpt lat="43.15443" lon="0.03249">
        <ele>357.7478027</ele>
        <time>2010-10-17T09:36:03Z</time>
      </trkpt>
      <trkpt lat="43.15437" lon="0.03272">
        <ele>359.6704102</ele>
        <time>2010-10-17T09:36:11Z</time>
      </trkpt>
      <trkpt lat="43.15428" lon="0.03286">
        <ele>362.0737305</ele>
        <time>2010-10-17T09:36:18Z</time>
      </trkpt>
      <trkpt lat="43.15408" lon="0.03304">
        <ele>365.4383545</ele>
        <time>2010-10-17T09:36:30Z</time>
      </trkpt>
      <trkpt lat="43.15393" lon="0.03314">
        <ele>367.8415527</ele>
        <time>2010-10-17T09:36:38Z</time>
      </trkpt>
      <trkpt lat="43.1537" lon="0.03325">
        <ele>369.7642822</ele>
        <time>2010-10-17T09:36:49Z</time>
      </trkpt>
      <trkpt lat="43.15352" lon="0.03339">
        <ele>371.6868896</ele>
        <time>2010-10-17T09:36:58Z</time>
      </trkpt>
      <trkpt lat="43.15335" lon="0.03351">
        <ele>373.1289063</ele>
        <time>2010-10-17T09:37:06Z</time>
      </trkpt>
      <trkpt lat="43.15318" lon="0.03366">
        <ele>374.5708008</ele>
        <time>2010-10-17T09:37:13Z</time>
      </trkpt>
      <trkpt lat="43.15295" lon="0.03398">
        <ele>377.9354248</ele>
        <time>2010-10-17T09:37:23Z</time>
      </trkpt>
      <trkpt lat="43.15278" lon="0.03428">
        <ele>379.3774414</ele>
        <time>2010-10-17T09:37:32Z</time>
      </trkpt>
      <trkpt lat="43.15262" lon="0.0346">
        <ele>380.819458</ele>
        <time>2010-10-17T09:37:42Z</time>
      </trkpt>
      <trkpt lat="43.1525" lon="0.03491">
        <ele>379.8580322</ele>
        <time>2010-10-17T09:37:50Z</time>
      </trkpt>
      <trkpt lat="43.15243" lon="0.03522">
        <ele>379.3774414</ele>
        <time>2010-10-17T09:37:56Z</time>
      </trkpt>
      <trkpt lat="43.15234" lon="0.03556">
        <ele>378.4161377</ele>
        <time>2010-10-17T09:38:04Z</time>
      </trkpt>
      <trkpt lat="43.15218" lon="0.03595">
        <ele>377.454834</ele>
        <time>2010-10-17T09:38:13Z</time>
      </trkpt>
      <trkpt lat="43.15211" lon="0.03608">
        <ele>376.9742432</ele>
        <time>2010-10-17T09:38:16Z</time>
      </trkpt>
      <trkpt lat="43.15205" lon="0.03639">
        <ele>377.454834</ele>
        <time>2010-10-17T09:38:22Z</time>
      </trkpt>
      <trkpt lat="43.152" lon="0.03664">
        <ele>378.8968506</ele>
        <time>2010-10-17T09:38:28Z</time>
      </trkpt>
      <trkpt lat="43.15191" lon="0.03676">
        <ele>380.3387451</ele>
        <time>2010-10-17T09:38:33Z</time>
      </trkpt>
      <trkpt lat="43.15178" lon="0.03683">
        <ele>382.2613525</ele>
        <time>2010-10-17T09:38:39Z</time>
      </trkpt>
      <trkpt lat="43.15163" lon="0.03695">
        <ele>384.184082</ele>
        <time>2010-10-17T09:38:46Z</time>
      </trkpt>
      <trkpt lat="43.15151" lon="0.03705">
        <ele>383.7032471</ele>
        <time>2010-10-17T09:38:50Z</time>
      </trkpt>
      <trkpt lat="43.15137" lon="0.03731">
        <ele>380.819458</ele>
        <time>2010-10-17T09:38:55Z</time>
      </trkpt>
      <trkpt lat="43.15129" lon="0.03772">
        <ele>377.454834</ele>
        <time>2010-10-17T09:38:59Z</time>
      </trkpt>
      <trkpt lat="43.15114" lon="0.03811">
        <ele>377.9354248</ele>
        <time>2010-10-17T09:39:04Z</time>
      </trkpt>
      <trkpt lat="43.15104" lon="0.03841">
        <ele>379.3774414</ele>
        <time>2010-10-17T09:39:10Z</time>
      </trkpt>
      <trkpt lat="43.15097" lon="0.03889">
        <ele>379.3774414</ele>
        <time>2010-10-17T09:39:19Z</time>
      </trkpt>
      <trkpt lat="43.15094" lon="0.03934">
        <ele>379.8580322</ele>
        <time>2010-10-17T09:39:27Z</time>
      </trkpt>
      <trkpt lat="43.15093" lon="0.03971">
        <ele>380.819458</ele>
        <time>2010-10-17T09:39:34Z</time>
      </trkpt>
      <trkpt lat="43.15091" lon="0.04007">
        <ele>381.7806396</ele>
        <time>2010-10-17T09:39:41Z</time>
      </trkpt>
      <trkpt lat="43.1509" lon="0.04055">
        <ele>383.2226563</ele>
        <time>2010-10-17T09:39:50Z</time>
      </trkpt>
      <trkpt lat="43.15091" lon="0.04107">
        <ele>385.1453857</ele>
        <time>2010-10-17T09:39:59Z</time>
      </trkpt>
      <trkpt lat="43.15092" lon="0.04128">
        <ele>385.6259766</ele>
        <time>2010-10-17T09:40:03Z</time>
      </trkpt>
      <trkpt lat="43.15081" lon="0.04145">
        <ele>386.1066895</ele>
        <time>2010-10-17T09:40:08Z</time>
      </trkpt>
      <trkpt lat="43.15055" lon="0.04174">
        <ele>387.0679932</ele>
        <time>2010-10-17T09:40:17Z</time>
      </trkpt>
      <trkpt lat="43.15045" lon="0.04192">
        <ele>387.0679932</ele>
        <time>2010-10-17T09:40:22Z</time>
      </trkpt>
      <trkpt lat="43.15029" lon="0.04226">
        <ele>386.5874023</ele>
        <time>2010-10-17T09:40:29Z</time>
      </trkpt>
      <trkpt lat="43.15005" lon="0.04276">
        <ele>386.1066895</ele>
        <time>2010-10-17T09:40:38Z</time>
      </trkpt>
      <trkpt lat="43.14976" lon="0.04317">
        <ele>385.6259766</ele>
        <time>2010-10-17T09:40:46Z</time>
      </trkpt>
      <trkpt lat="43.14944" lon="0.04344">
        <ele>384.6647949</ele>
        <time>2010-10-17T09:40:53Z</time>
      </trkpt>
      <trkpt lat="43.14939" lon="0.04348">
        <ele>384.6647949</ele>
        <time>2010-10-17T09:40:54Z</time>
      </trkpt>
      <trkpt lat="43.14922" lon="0.04373">
        <ele>384.184082</ele>
        <time>2010-10-17T09:40:58Z</time>
      </trkpt>
      <trkpt lat="43.14921" lon="0.04392">
        <ele>384.184082</ele>
        <time>2010-10-17T09:41:00Z</time>
      </trkpt>
      <trkpt lat="43.14917" lon="0.04463">
        <ele>384.184082</ele>
        <time>2010-10-17T09:41:08Z</time>
      </trkpt>
      <trkpt lat="43.14916" lon="0.04479">
        <ele>383.7032471</ele>
        <time>2010-10-17T09:41:10Z</time>
      </trkpt>
      <trkpt lat="43.14902" lon="0.04511">
        <ele>383.7032471</ele>
        <time>2010-10-17T09:41:15Z</time>
      </trkpt>
      <trkpt lat="43.14876" lon="0.04547">
        <ele>386.1066895</ele>
        <time>2010-10-17T09:41:24Z</time>
      </trkpt>
      <trkpt lat="43.14853" lon="0.04584">
        <ele>386.1066895</ele>
        <time>2010-10-17T09:41:33Z</time>
      </trkpt>
      <trkpt lat="43.1485" lon="0.04588">
        <ele>386.1066895</ele>
        <time>2010-10-17T09:41:34Z</time>
      </trkpt>
      <trkpt lat="43.14831" lon="0.04613">
        <ele>386.1066895</ele>
        <time>2010-10-17T09:41:40Z</time>
      </trkpt>
      <trkpt lat="43.14812" lon="0.04639">
        <ele>386.5874023</ele>
        <time>2010-10-17T09:41:47Z</time>
      </trkpt>
      <trkpt lat="43.14785" lon="0.04669">
        <ele>385.6259766</ele>
        <time>2010-10-17T09:41:56Z</time>
      </trkpt>
      <trkpt lat="43.14773" lon="0.04684">
        <ele>385.1453857</ele>
        <time>2010-10-17T09:42:00Z</time>
      </trkpt>
      <trkpt lat="43.14758" lon="0.04718">
        <ele>383.2226563</ele>
        <time>2010-10-17T09:42:06Z</time>
      </trkpt>
      <trkpt lat="43.1475" lon="0.04741">
        <ele>381.3000488</ele>
        <time>2010-10-17T09:42:11Z</time>
      </trkpt>
      <trkpt lat="43.14745" lon="0.04759">
        <ele>379.3774414</ele>
        <time>2010-10-17T09:42:17Z</time>
      </trkpt>
      <trkpt lat="43.1474" lon="0.04776">
        <ele>379.3774414</ele>
        <time>2010-10-17T09:42:21Z</time>
      </trkpt>
      <trkpt lat="43.14736" lon="0.04787">
        <ele>380.3387451</ele>
        <time>2010-10-17T09:42:25Z</time>
      </trkpt>
      <trkpt lat="43.14735" lon="0.04793">
        <ele>380.819458</ele>
        <time>2010-10-17T09:42:27Z</time>
      </trkpt>
      <trkpt lat="43.14725" lon="0.04802">
        <ele>381.7806396</ele>
        <time>2010-10-17T09:42:32Z</time>
      </trkpt>
      <trkpt lat="43.14713" lon="0.0481">
        <ele>382.7420654</ele>
        <time>2010-10-17T09:42:38Z</time>
      </trkpt>
      <trkpt lat="43.14692" lon="0.04821">
        <ele>383.7032471</ele>
        <time>2010-10-17T09:42:47Z</time>
      </trkpt>
      <trkpt lat="43.14675" lon="0.04829">
        <ele>385.1453857</ele>
        <time>2010-10-17T09:42:53Z</time>
      </trkpt>
      <trkpt lat="43.14658" lon="0.04833">
        <ele>386.5874023</ele>
        <time>2010-10-17T09:43:00Z</time>
      </trkpt>
      <trkpt lat="43.1464" lon="0.04834">
        <ele>388.9906006</ele>
        <time>2010-10-17T09:43:08Z</time>
      </trkpt>
      <trkpt lat="43.14623" lon="0.04832">
        <ele>392.3553467</ele>
        <time>2010-10-17T09:43:17Z</time>
      </trkpt>
      <trkpt lat="43.14614" lon="0.0483">
        <ele>394.7585449</ele>
        <time>2010-10-17T09:43:25Z</time>
      </trkpt>
      <trkpt lat="43.14608" lon="0.04829">
        <ele>396.2005615</ele>
        <time>2010-10-17T09:43:31Z</time>
      </trkpt>
      <trkpt lat="43.14605" lon="0.04833">
        <ele>397.6424561</ele>
        <time>2010-10-17T09:43:37Z</time>
      </trkpt>
      <trkpt lat="43.14602" lon="0.04838">
        <ele>399.5650635</ele>
        <time>2010-10-17T09:43:45Z</time>
      </trkpt>
      <trkpt lat="43.14604" lon="0.04839">
        <ele>401.487793</ele>
        <time>2010-10-17T09:43:52Z</time>
      </trkpt>
      <trkpt lat="43.14603" lon="0.04842">
        <ele>402.9296875</ele>
        <time>2010-10-17T09:43:56Z</time>
      </trkpt>
      <trkpt lat="43.14595" lon="0.04853">
        <ele>405.3330078</ele>
        <time>2010-10-17T09:44:04Z</time>
      </trkpt>
      <trkpt lat="43.1459" lon="0.04861">
        <ele>406.2943115</ele>
        <time>2010-10-17T09:44:12Z</time>
      </trkpt>
      <trkpt lat="43.14584" lon="0.0487">
        <ele>406.7749023</ele>
        <time>2010-10-17T09:44:20Z</time>
      </trkpt>
      <trkpt lat="43.14584" lon="0.04871">
        <ele>406.7749023</ele>
        <time>2010-10-17T09:44:21Z</time>
      </trkpt>
      <trkpt lat="43.14581" lon="0.04882">
        <ele>409.6590576</ele>
        <time>2010-10-17T09:44:29Z</time>
      </trkpt>
      <trkpt lat="43.14579" lon="0.04891">
        <ele>412.5428467</ele>
        <time>2010-10-17T09:44:36Z</time>
      </trkpt>
      <trkpt lat="43.14576" lon="0.04901">
        <ele>414.946167</ele>
        <time>2010-10-17T09:44:41Z</time>
      </trkpt>
      <trkpt lat="43.14575" lon="0.04914">
        <ele>418.310791</ele>
        <time>2010-10-17T09:44:48Z</time>
      </trkpt>
      <trkpt lat="43.14575" lon="0.04917">
        <ele>418.310791</ele>
        <time>2010-10-17T09:44:50Z</time>
      </trkpt>
      <trkpt lat="43.14573" lon="0.0493">
        <ele>417.3496094</ele>
        <time>2010-10-17T09:44:56Z</time>
      </trkpt>
      <trkpt lat="43.14573" lon="0.04934">
        <ele>417.8302002</ele>
        <time>2010-10-17T09:44:58Z</time>
      </trkpt>
      <trkpt lat="43.14567" lon="0.04946">
        <ele>417.8302002</ele>
        <time>2010-10-17T09:45:05Z</time>
      </trkpt>
      <trkpt lat="43.14562" lon="0.04955">
        <ele>416.3881836</ele>
        <time>2010-10-17T09:45:11Z</time>
      </trkpt>
      <trkpt lat="43.14554" lon="0.04962">
        <ele>417.3496094</ele>
        <time>2010-10-17T09:45:17Z</time>
      </trkpt>
      <trkpt lat="43.14543" lon="0.04971">
        <ele>417.8302002</ele>
        <time>2010-10-17T09:45:24Z</time>
      </trkpt>
      <trkpt lat="43.14534" lon="0.04975">
        <ele>419.2722168</ele>
        <time>2010-10-17T09:45:29Z</time>
      </trkpt>
      <trkpt lat="43.14526" lon="0.04976">
        <ele>420.7141113</ele>
        <time>2010-10-17T09:45:34Z</time>
      </trkpt>
      <trkpt lat="43.14517" lon="0.04979">
        <ele>422.1560059</ele>
        <time>2010-10-17T09:45:41Z</time>
      </trkpt>
      <trkpt lat="43.14507" lon="0.04981">
        <ele>424.0787354</ele>
        <time>2010-10-17T09:45:47Z</time>
      </trkpt>
      <trkpt lat="43.14495" lon="0.04983">
        <ele>426.0013428</ele>
        <time>2010-10-17T09:45:52Z</time>
      </trkpt>
      <trkpt lat="43.14484" lon="0.04984">
        <ele>426.0013428</ele>
        <time>2010-10-17T09:45:57Z</time>
      </trkpt>
      <trkpt lat="43.14474" lon="0.04988">
        <ele>427.9239502</ele>
        <time>2010-10-17T09:46:03Z</time>
      </trkpt>
      <trkpt lat="43.14463" lon="0.04992">
        <ele>434.1726074</ele>
        <time>2010-10-17T09:46:10Z</time>
      </trkpt>
      <trkpt lat="43.14451" lon="0.04994">
        <ele>437.0565186</ele>
        <time>2010-10-17T09:46:17Z</time>
      </trkpt>
      <trkpt lat="43.14441" lon="0.04992">
        <ele>434.6533203</ele>
        <time>2010-10-17T09:46:22Z</time>
      </trkpt>
      <trkpt lat="43.1443" lon="0.04989">
        <ele>432.7307129</ele>
        <time>2010-10-17T09:46:29Z</time>
      </trkpt>
      <trkpt lat="43.14418" lon="0.04991">
        <ele>435.1339111</ele>
        <time>2010-10-17T09:46:36Z</time>
      </trkpt>
      <trkpt lat="43.14407" lon="0.04996">
        <ele>437.0565186</ele>
        <time>2010-10-17T09:46:43Z</time>
      </trkpt>
      <trkpt lat="43.14397" lon="0.05001">
        <ele>438.4985352</ele>
        <time>2010-10-17T09:46:49Z</time>
      </trkpt>
      <trkpt lat="43.14389" lon="0.05006">
        <ele>438.4985352</ele>
        <time>2010-10-17T09:46:53Z</time>
      </trkpt>
      <trkpt lat="43.14381" lon="0.05014">
        <ele>438.4985352</ele>
        <time>2010-10-17T09:46:59Z</time>
      </trkpt>
      <trkpt lat="43.14375" lon="0.05025">
        <ele>438.0178223</ele>
        <time>2010-10-17T09:47:05Z</time>
      </trkpt>
      <trkpt lat="43.1437" lon="0.05039">
        <ele>438.4985352</ele>
        <time>2010-10-17T09:47:11Z</time>
      </trkpt>
      <trkpt lat="43.14366" lon="0.05059">
        <ele>439.4597168</ele>
        <time>2010-10-17T09:47:18Z</time>
      </trkpt>
      <trkpt lat="43.14362" lon="0.05078">
        <ele>437.5371094</ele>
        <time>2010-10-17T09:47:26Z</time>
      </trkpt>
      <trkpt lat="43.14361" lon="0.05096">
        <ele>440.4212646</ele>
        <time>2010-10-17T09:47:34Z</time>
      </trkpt>
      <trkpt lat="43.14359" lon="0.05109">
        <ele>440.9018555</ele>
        <time>2010-10-17T09:47:40Z</time>
      </trkpt>
      <trkpt lat="43.14356" lon="0.05123">
        <ele>442.8244629</ele>
        <time>2010-10-17T09:47:46Z</time>
      </trkpt>
      <trkpt lat="43.14351" lon="0.05134">
        <ele>445.2276611</ele>
        <time>2010-10-17T09:47:52Z</time>
      </trkpt>
      <trkpt lat="43.14346" lon="0.05148">
        <ele>448.1118164</ele>
        <time>2010-10-17T09:47:59Z</time>
      </trkpt>
      <trkpt lat="43.14345" lon="0.05159">
        <ele>450.5150146</ele>
        <time>2010-10-17T09:48:04Z</time>
      </trkpt>
      <trkpt lat="43.14341" lon="0.05184">
        <ele>453.3989258</ele>
        <time>2010-10-17T09:48:13Z</time>
      </trkpt>
      <trkpt lat="43.14339" lon="0.05189">
        <ele>452.4376221</ele>
        <time>2010-10-17T09:48:15Z</time>
      </trkpt>
      <trkpt lat="43.14337" lon="0.05201">
        <ele>453.3989258</ele>
        <time>2010-10-17T09:48:20Z</time>
      </trkpt>
      <trkpt lat="43.14335" lon="0.05215">
        <ele>453.8796387</ele>
        <time>2010-10-17T09:48:25Z</time>
      </trkpt>
      <trkpt lat="43.14327" lon="0.05231">
        <ele>456.7635498</ele>
        <time>2010-10-17T09:48:32Z</time>
      </trkpt>
      <trkpt lat="43.14317" lon="0.05246">
        <ele>459.1668701</ele>
        <time>2010-10-17T09:48:39Z</time>
      </trkpt>
      <trkpt lat="43.14315" lon="0.0526">
        <ele>460.1281738</ele>
        <time>2010-10-17T09:48:46Z</time>
      </trkpt>
      <trkpt lat="43.1431" lon="0.05272">
        <ele>459.1668701</ele>
        <time>2010-10-17T09:48:51Z</time>
      </trkpt>
      <trkpt lat="43.14307" lon="0.05281">
        <ele>458.2055664</ele>
        <time>2010-10-17T09:48:55Z</time>
      </trkpt>
      <trkpt lat="43.14304" lon="0.0529">
        <ele>459.647583</ele>
        <time>2010-10-17T09:48:59Z</time>
      </trkpt>
      <trkpt lat="43.14304" lon="0.05299">
        <ele>461.5701904</ele>
        <time>2010-10-17T09:49:03Z</time>
      </trkpt>
      <trkpt lat="43.14298" lon="0.05313">
        <ele>464.4541016</ele>
        <time>2010-10-17T09:49:09Z</time>
      </trkpt>
      <trkpt lat="43.14296" lon="0.05328">
        <ele>465.4155273</ele>
        <time>2010-10-17T09:49:15Z</time>
      </trkpt>
      <trkpt lat="43.1429" lon="0.05341">
        <ele>465.8961182</ele>
        <time>2010-10-17T09:49:21Z</time>
      </trkpt>
      <trkpt lat="43.14286" lon="0.05355">
        <ele>467.3381348</ele>
        <time>2010-10-17T09:49:27Z</time>
      </trkpt>
      <trkpt lat="43.14284" lon="0.05368">
        <ele>468.7800293</ele>
        <time>2010-10-17T09:49:33Z</time>
      </trkpt>
      <trkpt lat="43.14282" lon="0.05374">
        <ele>469.2607422</ele>
        <time>2010-10-17T09:49:36Z</time>
      </trkpt>
      <trkpt lat="43.14279" lon="0.05389">
        <ele>471.1833496</ele>
        <time>2010-10-17T09:49:43Z</time>
      </trkpt>
      <trkpt lat="43.14276" lon="0.05405">
        <ele>471.6639404</ele>
        <time>2010-10-17T09:49:50Z</time>
      </trkpt>
      <trkpt lat="43.1427" lon="0.05423">
        <ele>472.6253662</ele>
        <time>2010-10-17T09:49:57Z</time>
      </trkpt>
      <trkpt lat="43.14265" lon="0.0544">
        <ele>473.5866699</ele>
        <time>2010-10-17T09:50:04Z</time>
      </trkpt>
      <trkpt lat="43.14258" lon="0.05462">
        <ele>475.5092773</ele>
        <time>2010-10-17T09:50:13Z</time>
      </trkpt>
      <trkpt lat="43.14251" lon="0.0548">
        <ele>477.4318848</ele>
        <time>2010-10-17T09:50:21Z</time>
      </trkpt>
      <trkpt lat="43.14244" lon="0.05498">
        <ele>478.8739014</ele>
        <time>2010-10-17T09:50:29Z</time>
      </trkpt>
      <trkpt lat="43.14236" lon="0.05525">
        <ele>480.7966309</ele>
        <time>2010-10-17T09:50:38Z</time>
      </trkpt>
      <trkpt lat="43.14226" lon="0.05563">
        <ele>482.2385254</ele>
        <time>2010-10-17T09:50:50Z</time>
      </trkpt>
      <trkpt lat="43.14219" lon="0.05585">
        <ele>483.1998291</ele>
        <time>2010-10-17T09:50:57Z</time>
      </trkpt>
      <trkpt lat="43.14208" lon="0.05617">
        <ele>484.6418457</ele>
        <time>2010-10-17T09:51:07Z</time>
      </trkpt>
      <trkpt lat="43.14195" lon="0.05647">
        <ele>486.5644531</ele>
        <time>2010-10-17T09:51:17Z</time>
      </trkpt>
      <trkpt lat="43.14184" lon="0.05676">
        <ele>488.0064697</ele>
        <time>2010-10-17T09:51:27Z</time>
      </trkpt>
      <trkpt lat="43.14171" lon="0.05707">
        <ele>489.9290771</ele>
        <time>2010-10-17T09:51:38Z</time>
      </trkpt>
      <trkpt lat="43.14163" lon="0.05729">
        <ele>491.3709717</ele>
        <time>2010-10-17T09:51:46Z</time>
      </trkpt>
      <trkpt lat="43.14153" lon="0.05749">
        <ele>494.7355957</ele>
        <time>2010-10-17T09:51:54Z</time>
      </trkpt>
      <trkpt lat="43.14141" lon="0.05773">
        <ele>499.5422363</ele>
        <time>2010-10-17T09:52:03Z</time>
      </trkpt>
      <trkpt lat="43.14127" lon="0.05805">
        <ele>501.9455566</ele>
        <time>2010-10-17T09:52:13Z</time>
      </trkpt>
      <trkpt lat="43.14116" lon="0.05836">
        <ele>502.4261475</ele>
        <time>2010-10-17T09:52:22Z</time>
      </trkpt>
      <trkpt lat="43.14104" lon="0.05864">
        <ele>502.9067383</ele>
        <time>2010-10-17T09:52:30Z</time>
      </trkpt>
      <trkpt lat="43.14094" lon="0.05889">
        <ele>502.4261475</ele>
        <time>2010-10-17T09:52:37Z</time>
      </trkpt>
      <trkpt lat="43.14082" lon="0.05921">
        <ele>502.9067383</ele>
        <time>2010-10-17T09:52:46Z</time>
      </trkpt>
      <trkpt lat="43.14068" lon="0.05956">
        <ele>503.3874512</ele>
        <time>2010-10-17T09:52:56Z</time>
      </trkpt>
      <trkpt lat="43.14057" lon="0.05985">
        <ele>505.3101807</ele>
        <time>2010-10-17T09:53:04Z</time>
      </trkpt>
      <trkpt lat="43.14048" lon="0.06016">
        <ele>510.59729</ele>
        <time>2010-10-17T09:53:12Z</time>
      </trkpt>
      <trkpt lat="43.14038" lon="0.06039">
        <ele>513.4814453</ele>
        <time>2010-10-17T09:53:18Z</time>
      </trkpt>
      <trkpt lat="43.14032" lon="0.06054">
        <ele>512.5200195</ele>
        <time>2010-10-17T09:53:22Z</time>
      </trkpt>
      <trkpt lat="43.14018" lon="0.06082">
        <ele>511.5587158</ele>
        <time>2010-10-17T09:53:30Z</time>
      </trkpt>
      <trkpt lat="43.14004" lon="0.06114">
        <ele>511.5587158</ele>
        <time>2010-10-17T09:53:38Z</time>
      </trkpt>
      <trkpt lat="43.13991" lon="0.06148">
        <ele>511.0780029</ele>
        <time>2010-10-17T09:53:47Z</time>
      </trkpt>
      <trkpt lat="43.13978" lon="0.06179">
        <ele>511.0780029</ele>
        <time>2010-10-17T09:53:55Z</time>
      </trkpt>
      <trkpt lat="43.13966" lon="0.06207">
        <ele>511.0780029</ele>
        <time>2010-10-17T09:54:02Z</time>
      </trkpt>
      <trkpt lat="43.13954" lon="0.06246">
        <ele>510.1166992</ele>
        <time>2010-10-17T09:54:11Z</time>
      </trkpt>
      <trkpt lat="43.13937" lon="0.06289">
        <ele>509.1553955</ele>
        <time>2010-10-17T09:54:20Z</time>
      </trkpt>
      <trkpt lat="43.13926" lon="0.06327">
        <ele>508.6746826</ele>
        <time>2010-10-17T09:54:28Z</time>
      </trkpt>
      <trkpt lat="43.13919" lon="0.06371">
        <ele>508.6746826</ele>
        <time>2010-10-17T09:54:37Z</time>
      </trkpt>
      <trkpt lat="43.13916" lon="0.06412">
        <ele>508.1940918</ele>
        <time>2010-10-17T09:54:45Z</time>
      </trkpt>
      <trkpt lat="43.13907" lon="0.06464">
        <ele>508.1940918</ele>
        <time>2010-10-17T09:54:55Z</time>
      </trkpt>
      <trkpt lat="43.139" lon="0.065">
        <ele>508.1940918</ele>
        <time>2010-10-17T09:55:02Z</time>
      </trkpt>
      <trkpt lat="43.13893" lon="0.0652">
        <ele>508.6746826</ele>
        <time>2010-10-17T09:55:06Z</time>
      </trkpt>
      <trkpt lat="43.13885" lon="0.06573">
        <ele>508.6746826</ele>
        <time>2010-10-17T09:55:16Z</time>
      </trkpt>
      <trkpt lat="43.13873" lon="0.06624">
        <ele>511.5587158</ele>
        <time>2010-10-17T09:55:26Z</time>
      </trkpt>
      <trkpt lat="43.13864" lon="0.06666">
        <ele>513.4814453</ele>
        <time>2010-10-17T09:55:35Z</time>
      </trkpt>
      <trkpt lat="43.13855" lon="0.06713">
        <ele>513.9620361</ele>
        <time>2010-10-17T09:55:45Z</time>
      </trkpt>
      <trkpt lat="43.1385" lon="0.06758">
        <ele>513.4814453</ele>
        <time>2010-10-17T09:55:54Z</time>
      </trkpt>
      <trkpt lat="43.1385" lon="0.06788">
        <ele>513.9620361</ele>
        <time>2010-10-17T09:56:01Z</time>
      </trkpt>
      <trkpt lat="43.1385" lon="0.06807">
        <ele>513.0007324</ele>
        <time>2010-10-17T09:56:05Z</time>
      </trkpt>
      <trkpt lat="43.13848" lon="0.06851">
        <ele>512.0394287</ele>
        <time>2010-10-17T09:56:15Z</time>
      </trkpt>
      <trkpt lat="43.13846" lon="0.06882">
        <ele>511.5587158</ele>
        <time>2010-10-17T09:56:21Z</time>
      </trkpt>
      <trkpt lat="43.13842" lon="0.06941">
        <ele>511.0780029</ele>
        <time>2010-10-17T09:56:32Z</time>
      </trkpt>
      <trkpt lat="43.13839" lon="0.0699">
        <ele>511.0780029</ele>
        <time>2010-10-17T09:56:39Z</time>
      </trkpt>
      <trkpt lat="43.13833" lon="0.07045">
        <ele>511.0780029</ele>
        <time>2010-10-17T09:56:47Z</time>
      </trkpt>
      <trkpt lat="43.13823" lon="0.07093">
        <ele>511.5587158</ele>
        <time>2010-10-17T09:56:55Z</time>
      </trkpt>
      <trkpt lat="43.13807" lon="0.07157">
        <ele>512.0394287</ele>
        <time>2010-10-17T09:57:06Z</time>
      </trkpt>
      <trkpt lat="43.13798" lon="0.07193">
        <ele>512.0394287</ele>
        <time>2010-10-17T09:57:12Z</time>
      </trkpt>
      <trkpt lat="43.13805" lon="0.07211">
        <ele>511.5587158</ele>
        <time>2010-10-17T09:57:16Z</time>
      </trkpt>
      <trkpt lat="43.13809" lon="0.07212">
        <ele>511.5587158</ele>
        <time>2010-10-17T09:57:17Z</time>
      </trkpt>
      <trkpt lat="43.13838" lon="0.07226">
        <ele>515.8846436</ele>
        <time>2010-10-17T09:57:26Z</time>
      </trkpt>
      <trkpt lat="43.13858" lon="0.07236">
        <ele>516.8459473</ele>
        <time>2010-10-17T09:57:34Z</time>
      </trkpt>
      <trkpt lat="43.13863" lon="0.07239">
        <ele>516.3652344</ele>
        <time>2010-10-17T09:57:38Z</time>
      </trkpt>
      <trkpt lat="43.13864" lon="0.07238">
        <ele>516.8459473</ele>
        <time>2010-10-17T09:57:43Z</time>
      </trkpt>
      <trkpt lat="43.13862" lon="0.07237">
        <ele>516.3652344</ele>
        <time>2010-10-17T09:58:12Z</time>
      </trkpt>
      <trkpt lat="43.13861" lon="0.07235">
        <ele>513.9620361</ele>
        <time>2010-10-17T10:00:10Z</time>
      </trkpt>
      <trkpt lat="43.13859" lon="0.07234">
        <ele>511.0780029</ele>
        <time>2010-10-17T10:00:28Z</time>
      </trkpt>
      <trkpt lat="43.13861" lon="0.07236">
        <ele>513.9620361</ele>
        <time>2010-10-17T10:02:40Z</time>
      </trkpt>
      <trkpt lat="43.1386" lon="0.07237">
        <ele>513.4814453</ele>
        <time>2010-10-17T10:02:47Z</time>
      </trkpt>
      <trkpt lat="43.13863" lon="0.07239">
        <ele>512.5200195</ele>
        <time>2010-10-17T10:02:53Z</time>
      </trkpt>
      <trkpt lat="43.13865" lon="0.0724">
        <ele>512.0394287</ele>
        <time>2010-10-17T10:02:55Z</time>
      </trkpt>
      <trkpt lat="43.1387" lon="0.07232">
        <ele>512.0394287</ele>
        <time>2010-10-17T10:03:00Z</time>
      </trkpt>
      <trkpt lat="43.13872" lon="0.07221">
        <ele>512.0394287</ele>
        <time>2010-10-17T10:03:05Z</time>
      </trkpt>
      <trkpt lat="43.13878" lon="0.07195">
        <ele>513.0007324</ele>
        <time>2010-10-17T10:03:10Z</time>
      </trkpt>
      <trkpt lat="43.13881" lon="0.0717">
        <ele>512.5200195</ele>
        <time>2010-10-17T10:03:14Z</time>
      </trkpt>
      <trkpt lat="43.13883" lon="0.07141">
        <ele>512.0394287</ele>
        <time>2010-10-17T10:03:18Z</time>
      </trkpt>
      <trkpt lat="43.1389" lon="0.07109">
        <ele>511.0780029</ele>
        <time>2010-10-17T10:03:22Z</time>
      </trkpt>
      <trkpt lat="43.139" lon="0.07082">
        <ele>511.5587158</ele>
        <time>2010-10-17T10:03:26Z</time>
      </trkpt>
      <trkpt lat="43.13932" lon="0.0704">
        <ele>512.5200195</ele>
        <time>2010-10-17T10:03:34Z</time>
      </trkpt>
      <trkpt lat="43.13955" lon="0.07027">
        <ele>511.0780029</ele>
        <time>2010-10-17T10:03:38Z</time>
      </trkpt>
      <trkpt lat="43.14003" lon="0.07018">
        <ele>508.1940918</ele>
        <time>2010-10-17T10:03:44Z</time>
      </trkpt>
      <trkpt lat="43.14047" lon="0.06999">
        <ele>505.3101807</ele>
        <time>2010-10-17T10:03:49Z</time>
      </trkpt>
      <trkpt lat="43.14098" lon="0.06964">
        <ele>504.348877</ele>
        <time>2010-10-17T10:03:55Z</time>
      </trkpt>
      <trkpt lat="43.14139" lon="0.06947">
        <ele>503.8681641</ele>
        <time>2010-10-17T10:04:00Z</time>
      </trkpt>
      <trkpt lat="43.14184" lon="0.06925">
        <ele>505.3101807</ele>
        <time>2010-10-17T10:04:06Z</time>
      </trkpt>
      <trkpt lat="43.14212" lon="0.06909">
        <ele>506.2714844</ele>
        <time>2010-10-17T10:04:11Z</time>
      </trkpt>
      <trkpt lat="43.14228" lon="0.06898">
        <ele>507.2327881</ele>
        <time>2010-10-17T10:04:15Z</time>
      </trkpt>
      <trkpt lat="43.14257" lon="0.06891">
        <ele>507.713501</ele>
        <time>2010-10-17T10:04:21Z</time>
      </trkpt>
      <trkpt lat="43.14268" lon="0.06889">
        <ele>506.2714844</ele>
        <time>2010-10-17T10:04:23Z</time>
      </trkpt>
      <trkpt lat="43.14304" lon="0.06876">
        <ele>504.348877</ele>
        <time>2010-10-17T10:04:29Z</time>
      </trkpt>
      <trkpt lat="43.14356" lon="0.06871">
        <ele>500.0229492</ele>
        <time>2010-10-17T10:04:35Z</time>
      </trkpt>
      <trkpt lat="43.14419" lon="0.06869">
        <ele>496.1777344</ele>
        <time>2010-10-17T10:04:41Z</time>
      </trkpt>
      <trkpt lat="43.1447" lon="0.06862">
        <ele>495.2161865</ele>
        <time>2010-10-17T10:04:46Z</time>
      </trkpt>
      <trkpt lat="43.14521" lon="0.06854">
        <ele>495.2161865</ele>
        <time>2010-10-17T10:04:52Z</time>
      </trkpt>
      <trkpt lat="43.14566" lon="0.06839">
        <ele>495.6968994</ele>
        <time>2010-10-17T10:04:58Z</time>
      </trkpt>
      <trkpt lat="43.14613" lon="0.06816">
        <ele>495.6968994</ele>
        <time>2010-10-17T10:05:05Z</time>
      </trkpt>
      <trkpt lat="43.14663" lon="0.06791">
        <ele>497.138916</ele>
        <time>2010-10-17T10:05:13Z</time>
      </trkpt>
      <trkpt lat="43.14707" lon="0.06767">
        <ele>498.5809326</ele>
        <time>2010-10-17T10:05:21Z</time>
      </trkpt>
      <trkpt lat="43.14739" lon="0.06742">
        <ele>497.6196289</ele>
        <time>2010-10-17T10:05:28Z</time>
      </trkpt>
      <trkpt lat="43.14744" lon="0.06738">
        <ele>497.138916</ele>
        <time>2010-10-17T10:05:29Z</time>
      </trkpt>
      <trkpt lat="43.14777" lon="0.06698">
        <ele>494.7355957</ele>
        <time>2010-10-17T10:05:36Z</time>
      </trkpt>
      <trkpt lat="43.14817" lon="0.06647">
        <ele>491.8516846</ele>
        <time>2010-10-17T10:05:44Z</time>
      </trkpt>
      <trkpt lat="43.14858" lon="0.06596">
        <ele>488.4871826</ele>
        <time>2010-10-17T10:05:52Z</time>
      </trkpt>
      <trkpt lat="43.14899" lon="0.06551">
        <ele>486.0837402</ele>
        <time>2010-10-17T10:05:59Z</time>
      </trkpt>
      <trkpt lat="43.14913" lon="0.06534">
        <ele>486.0837402</ele>
        <time>2010-10-17T10:06:02Z</time>
      </trkpt>
      <trkpt lat="43.14938" lon="0.06514">
        <ele>485.1224365</ele>
        <time>2010-10-17T10:06:07Z</time>
      </trkpt>
      <trkpt lat="43.14988" lon="0.06487">
        <ele>484.1611328</ele>
        <time>2010-10-17T10:06:16Z</time>
      </trkpt>
      <trkpt lat="43.15041" lon="0.06465">
        <ele>483.6804199</ele>
        <time>2010-10-17T10:06:25Z</time>
      </trkpt>
      <trkpt lat="43.15074" lon="0.06454">
        <ele>483.6804199</ele>
        <time>2010-10-17T10:06:31Z</time>
      </trkpt>
      <trkpt lat="43.1511" lon="0.06443">
        <ele>484.6418457</ele>
        <time>2010-10-17T10:06:38Z</time>
      </trkpt>
      <trkpt lat="43.15132" lon="0.06428">
        <ele>486.0837402</ele>
        <time>2010-10-17T10:06:44Z</time>
      </trkpt>
      <trkpt lat="43.15153" lon="0.06407">
        <ele>486.5644531</ele>
        <time>2010-10-17T10:06:51Z</time>
      </trkpt>
      <trkpt lat="43.15166" lon="0.06397">
        <ele>487.0450439</ele>
        <time>2010-10-17T10:06:55Z</time>
      </trkpt>
      <trkpt lat="43.15178" lon="0.06382">
        <ele>488.9677734</ele>
        <time>2010-10-17T10:07:00Z</time>
      </trkpt>
      <trkpt lat="43.15187" lon="0.06367">
        <ele>488.9677734</ele>
        <time>2010-10-17T10:07:05Z</time>
      </trkpt>
      <trkpt lat="43.15196" lon="0.06346">
        <ele>488.9677734</ele>
        <time>2010-10-17T10:07:10Z</time>
      </trkpt>
      <trkpt lat="43.1521" lon="0.06321">
        <ele>488.9677734</ele>
        <time>2010-10-17T10:07:16Z</time>
      </trkpt>
      <trkpt lat="43.15221" lon="0.06305">
        <ele>488.9677734</ele>
        <time>2010-10-17T10:07:21Z</time>
      </trkpt>
      <trkpt lat="43.15226" lon="0.06297">
        <ele>489.4483643</ele>
        <time>2010-10-17T10:07:24Z</time>
      </trkpt>
      <trkpt lat="43.15234" lon="0.06284">
        <ele>489.4483643</ele>
        <time>2010-10-17T10:07:29Z</time>
      </trkpt>
      <trkpt lat="43.15242" lon="0.06277">
        <ele>488.4871826</ele>
        <time>2010-10-17T10:07:33Z</time>
      </trkpt>
      <trkpt lat="43.15256" lon="0.06253">
        <ele>487.0450439</ele>
        <time>2010-10-17T10:07:39Z</time>
      </trkpt>
      <trkpt lat="43.15275" lon="0.06229">
        <ele>485.6030273</ele>
        <time>2010-10-17T10:07:45Z</time>
      </trkpt>
      <trkpt lat="43.15293" lon="0.06205">
        <ele>484.1611328</ele>
        <time>2010-10-17T10:07:52Z</time>
      </trkpt>
      <trkpt lat="43.15303" lon="0.0619">
        <ele>483.6804199</ele>
        <time>2010-10-17T10:07:56Z</time>
      </trkpt>
      <trkpt lat="43.15321" lon="0.06163">
        <ele>482.7192383</ele>
        <time>2010-10-17T10:08:02Z</time>
      </trkpt>
      <trkpt lat="43.15338" lon="0.06134">
        <ele>481.7578125</ele>
        <time>2010-10-17T10:08:08Z</time>
      </trkpt>
      <trkpt lat="43.15345" lon="0.06119">
        <ele>481.2772217</ele>
        <time>2010-10-17T10:08:11Z</time>
      </trkpt>
      <trkpt lat="43.15351" lon="0.06108">
        <ele>481.2772217</ele>
        <time>2010-10-17T10:08:13Z</time>
      </trkpt>
      <trkpt lat="43.1536" lon="0.06095">
        <ele>480.315918</ele>
        <time>2010-10-17T10:08:16Z</time>
      </trkpt>
      <trkpt lat="43.15372" lon="0.06075">
        <ele>479.3544922</ele>
        <time>2010-10-17T10:08:20Z</time>
      </trkpt>
      <trkpt lat="43.15376" lon="0.06064">
        <ele>478.8739014</ele>
        <time>2010-10-17T10:08:22Z</time>
      </trkpt>
      <trkpt lat="43.15387" lon="0.0603">
        <ele>478.3931885</ele>
        <time>2010-10-17T10:08:29Z</time>
      </trkpt>
      <trkpt lat="43.15394" lon="0.0601">
        <ele>478.8739014</ele>
        <time>2010-10-17T10:08:33Z</time>
      </trkpt>
      <trkpt lat="43.15402" lon="0.05978">
        <ele>479.3544922</ele>
        <time>2010-10-17T10:08:39Z</time>
      </trkpt>
      <trkpt lat="43.15407" lon="0.05945">
        <ele>479.835083</ele>
        <time>2010-10-17T10:08:45Z</time>
      </trkpt>
      <trkpt lat="43.15409" lon="0.05933">
        <ele>479.835083</ele>
        <time>2010-10-17T10:08:47Z</time>
      </trkpt>
      <trkpt lat="43.15416" lon="0.05896">
        <ele>478.8739014</ele>
        <time>2010-10-17T10:08:54Z</time>
      </trkpt>
      <trkpt lat="43.15429" lon="0.05878">
        <ele>477.9124756</ele>
        <time>2010-10-17T10:08:59Z</time>
      </trkpt>
      <trkpt lat="43.15439" lon="0.05869">
        <ele>480.315918</ele>
        <time>2010-10-17T10:09:04Z</time>
      </trkpt>
      <trkpt lat="43.15446" lon="0.05859">
        <ele>480.315918</ele>
        <time>2010-10-17T10:09:09Z</time>
      </trkpt>
      <trkpt lat="43.15455" lon="0.05857">
        <ele>481.2772217</ele>
        <time>2010-10-17T10:09:13Z</time>
      </trkpt>
      <trkpt lat="43.15472" lon="0.05861">
        <ele>480.7966309</ele>
        <time>2010-10-17T10:09:18Z</time>
      </trkpt>
      <trkpt lat="43.15492" lon="0.05868">
        <ele>478.3931885</ele>
        <time>2010-10-17T10:09:23Z</time>
      </trkpt>
      <trkpt lat="43.1551" lon="0.0587">
        <ele>475.9898682</ele>
        <time>2010-10-17T10:09:28Z</time>
      </trkpt>
      <trkpt lat="43.15526" lon="0.05866">
        <ele>474.5479736</ele>
        <time>2010-10-17T10:09:34Z</time>
      </trkpt>
      <trkpt lat="43.15532" lon="0.05865">
        <ele>474.5479736</ele>
        <time>2010-10-17T10:09:36Z</time>
      </trkpt>
      <trkpt lat="43.15544" lon="0.05869">
        <ele>473.1060791</ele>
        <time>2010-10-17T10:09:44Z</time>
      </trkpt>
      <trkpt lat="43.15551" lon="0.05874">
        <ele>471.6639404</ele>
        <time>2010-10-17T10:09:51Z</time>
      </trkpt>
      <trkpt lat="43.1555" lon="0.05871">
        <ele>478.8739014</ele>
        <time>2010-10-17T10:10:26Z</time>
      </trkpt>
      <trkpt lat="43.15553" lon="0.05872">
        <ele>476.9512939</ele>
        <time>2010-10-17T10:10:32Z</time>
      </trkpt>
      <trkpt lat="43.15556" lon="0.05873">
        <ele>475.0286865</ele>
        <time>2010-10-17T10:10:41Z</time>
      </trkpt>
      <trkpt lat="43.15569" lon="0.05872">
        <ele>471.6639404</ele>
        <time>2010-10-17T10:10:48Z</time>
      </trkpt>
      <trkpt lat="43.15585" lon="0.05864">
        <ele>468.7800293</ele>
        <time>2010-10-17T10:10:56Z</time>
      </trkpt>
      <trkpt lat="43.15598" lon="0.05853">
        <ele>467.8187256</ele>
        <time>2010-10-17T10:11:01Z</time>
      </trkpt>
      <trkpt lat="43.15617" lon="0.05838">
        <ele>464.9348145</ele>
        <time>2010-10-17T10:11:08Z</time>
      </trkpt>
      <trkpt lat="43.15628" lon="0.05826">
        <ele>464.9348145</ele>
        <time>2010-10-17T10:11:13Z</time>
      </trkpt>
      <trkpt lat="43.15639" lon="0.05815">
        <ele>463.9733887</ele>
        <time>2010-10-17T10:11:17Z</time>
      </trkpt>
      <trkpt lat="43.15646" lon="0.05804">
        <ele>463.4927979</ele>
        <time>2010-10-17T10:11:20Z</time>
      </trkpt>
      <trkpt lat="43.15661" lon="0.05793">
        <ele>462.5313721</ele>
        <time>2010-10-17T10:11:27Z</time>
      </trkpt>
      <trkpt lat="43.1568" lon="0.05791">
        <ele>463.4927979</ele>
        <time>2010-10-17T10:11:32Z</time>
      </trkpt>
      <trkpt lat="43.157" lon="0.05788">
        <ele>463.012085</ele>
        <time>2010-10-17T10:11:37Z</time>
      </trkpt>
      <trkpt lat="43.1572" lon="0.05774">
        <ele>463.4927979</ele>
        <time>2010-10-17T10:11:42Z</time>
      </trkpt>
      <trkpt lat="43.15734" lon="0.05752">
        <ele>464.4541016</ele>
        <time>2010-10-17T10:11:48Z</time>
      </trkpt>
      <trkpt lat="43.15742" lon="0.05732">
        <ele>465.8961182</ele>
        <time>2010-10-17T10:11:54Z</time>
      </trkpt>
      <trkpt lat="43.15749" lon="0.05706">
        <ele>468.7800293</ele>
        <time>2010-10-17T10:12:02Z</time>
      </trkpt>
      <trkpt lat="43.15754" lon="0.05684">
        <ele>470.7026367</ele>
        <time>2010-10-17T10:12:09Z</time>
      </trkpt>
      <trkpt lat="43.15758" lon="0.05663">
        <ele>471.1833496</ele>
        <time>2010-10-17T10:12:15Z</time>
      </trkpt>
      <trkpt lat="43.1577" lon="0.05632">
        <ele>472.1446533</ele>
        <time>2010-10-17T10:12:23Z</time>
      </trkpt>
      <trkpt lat="43.15788" lon="0.05597">
        <ele>471.1833496</ele>
        <time>2010-10-17T10:12:32Z</time>
      </trkpt>
      <trkpt lat="43.15799" lon="0.05581">
        <ele>471.1833496</ele>
        <time>2010-10-17T10:12:37Z</time>
      </trkpt>
      <trkpt lat="43.15816" lon="0.05576">
        <ele>470.7026367</ele>
        <time>2010-10-17T10:12:41Z</time>
      </trkpt>
      <trkpt lat="43.15825" lon="0.05575">
        <ele>470.2219238</ele>
        <time>2010-10-17T10:12:43Z</time>
      </trkpt>
      <trkpt lat="43.15843" lon="0.05561">
        <ele>469.741333</ele>
        <time>2010-10-17T10:12:48Z</time>
      </trkpt>
      <trkpt lat="43.15846" lon="0.05555">
        <ele>469.741333</ele>
        <time>2010-10-17T10:12:49Z</time>
      </trkpt>
      <trkpt lat="43.15869" lon="0.05492">
        <ele>468.2993164</ele>
        <time>2010-10-17T10:12:59Z</time>
      </trkpt>
      <trkpt lat="43.15892" lon="0.05443">
        <ele>466.8574219</ele>
        <time>2010-10-17T10:13:06Z</time>
      </trkpt>
      <trkpt lat="43.15913" lon="0.05397">
        <ele>463.012085</ele>
        <time>2010-10-17T10:13:12Z</time>
      </trkpt>
      <trkpt lat="43.15923" lon="0.05348">
        <ele>460.6087646</ele>
        <time>2010-10-17T10:13:17Z</time>
      </trkpt>
      <trkpt lat="43.15935" lon="0.05312">
        <ele>458.6861572</ele>
        <time>2010-10-17T10:13:21Z</time>
      </trkpt>
      <trkpt lat="43.15944" lon="0.05276">
        <ele>456.7635498</ele>
        <time>2010-10-17T10:13:25Z</time>
      </trkpt>
      <trkpt lat="43.15948" lon="0.05235">
        <ele>456.7635498</ele>
        <time>2010-10-17T10:13:30Z</time>
      </trkpt>
      <trkpt lat="43.15956" lon="0.05199">
        <ele>458.2055664</ele>
        <time>2010-10-17T10:13:35Z</time>
      </trkpt>
      <trkpt lat="43.15961" lon="0.05183">
        <ele>457.2442627</ele>
        <time>2010-10-17T10:13:37Z</time>
      </trkpt>
      <trkpt lat="43.15972" lon="0.05163">
        <ele>456.7635498</ele>
        <time>2010-10-17T10:13:40Z</time>
      </trkpt>
      <trkpt lat="43.1599" lon="0.05148">
        <ele>456.7635498</ele>
        <time>2010-10-17T10:13:44Z</time>
      </trkpt>
      <trkpt lat="43.16006" lon="0.05147">
        <ele>456.282959</ele>
        <time>2010-10-17T10:13:48Z</time>
      </trkpt>
      <trkpt lat="43.16032" lon="0.05135">
        <ele>457.2442627</ele>
        <time>2010-10-17T10:13:53Z</time>
      </trkpt>
      <trkpt lat="43.16042" lon="0.05125">
        <ele>458.2055664</ele>
        <time>2010-10-17T10:13:55Z</time>
      </trkpt>
      <trkpt lat="43.16053" lon="0.05101">
        <ele>458.2055664</ele>
        <time>2010-10-17T10:14:00Z</time>
      </trkpt>
      <trkpt lat="43.16057" lon="0.05097">
        <ele>457.2442627</ele>
        <time>2010-10-17T10:14:02Z</time>
      </trkpt>
      <trkpt lat="43.16075" lon="0.05101">
        <ele>454.3602295</ele>
        <time>2010-10-17T10:14:06Z</time>
      </trkpt>
      <trkpt lat="43.16082" lon="0.05105">
        <ele>453.3989258</ele>
        <time>2010-10-17T10:14:07Z</time>
      </trkpt>
      <trkpt lat="43.16133" lon="0.05149">
        <ele>454.3602295</ele>
        <time>2010-10-17T10:14:13Z</time>
      </trkpt>
      <trkpt lat="43.16178" lon="0.052">
        <ele>450.9956055</ele>
        <time>2010-10-17T10:14:19Z</time>
      </trkpt>
      <trkpt lat="43.16226" lon="0.05271">
        <ele>445.708374</ele>
        <time>2010-10-17T10:14:26Z</time>
      </trkpt>
      <trkpt lat="43.16264" lon="0.05335">
        <ele>440.4212646</ele>
        <time>2010-10-17T10:14:32Z</time>
      </trkpt>
      <trkpt lat="43.16298" lon="0.05397">
        <ele>432.7307129</ele>
        <time>2010-10-17T10:14:37Z</time>
      </trkpt>
      <trkpt lat="43.16342" lon="0.05483">
        <ele>423.1174316</ele>
        <time>2010-10-17T10:14:43Z</time>
      </trkpt>
      <trkpt lat="43.16392" lon="0.0558">
        <ele>415.9074707</ele>
        <time>2010-10-17T10:14:50Z</time>
      </trkpt>
      <trkpt lat="43.16406" lon="0.05609">
        <ele>414.4654541</ele>
        <time>2010-10-17T10:14:53Z</time>
      </trkpt>
      <trkpt lat="43.16406" lon="0.05625">
        <ele>413.5042725</ele>
        <time>2010-10-17T10:14:56Z</time>
      </trkpt>
      <trkpt lat="43.16401" lon="0.05628">
        <ele>413.0235596</ele>
        <time>2010-10-17T10:14:57Z</time>
      </trkpt>
      <trkpt lat="43.16362" lon="0.05663">
        <ele>410.1396484</ele>
        <time>2010-10-17T10:15:04Z</time>
      </trkpt>
      <trkpt lat="43.16343" lon="0.05678">
        <ele>407.7363281</ele>
        <time>2010-10-17T10:15:07Z</time>
      </trkpt>
      <trkpt lat="43.16337" lon="0.05698">
        <ele>406.2943115</ele>
        <time>2010-10-17T10:15:10Z</time>
      </trkpt>
      <trkpt lat="43.16344" lon="0.05713">
        <ele>405.8137207</ele>
        <time>2010-10-17T10:15:12Z</time>
      </trkpt>
      <trkpt lat="43.16382" lon="0.05783">
        <ele>403.4104004</ele>
        <time>2010-10-17T10:15:20Z</time>
      </trkpt>
      <trkpt lat="43.16418" lon="0.05852">
        <ele>400.5264893</ele>
        <time>2010-10-17T10:15:27Z</time>
      </trkpt>
      <trkpt lat="43.16459" lon="0.05933">
        <ele>396.6811523</ele>
        <time>2010-10-17T10:15:34Z</time>
      </trkpt>
      <trkpt lat="43.16493" lon="0.05996">
        <ele>393.3165283</ele>
        <time>2010-10-17T10:15:40Z</time>
      </trkpt>
      <trkpt lat="43.16496" lon="0.06004">
        <ele>392.8359375</ele>
        <time>2010-10-17T10:15:41Z</time>
      </trkpt>
      <trkpt lat="43.16498" lon="0.06025">
        <ele>391.3937988</ele>
        <time>2010-10-17T10:15:44Z</time>
      </trkpt>
      <trkpt lat="43.16489" lon="0.06037">
        <ele>390.4326172</ele>
        <time>2010-10-17T10:15:46Z</time>
      </trkpt>
      <trkpt lat="43.16442" lon="0.06076">
        <ele>387.0679932</ele>
        <time>2010-10-17T10:15:53Z</time>
      </trkpt>
      <trkpt lat="43.16435" lon="0.06083">
        <ele>386.5874023</ele>
        <time>2010-10-17T10:15:54Z</time>
      </trkpt>
      <trkpt lat="43.1642" lon="0.06111">
        <ele>386.1066895</ele>
        <time>2010-10-17T10:15:57Z</time>
      </trkpt>
      <trkpt lat="43.16422" lon="0.06131">
        <ele>385.6259766</ele>
        <time>2010-10-17T10:16:00Z</time>
      </trkpt>
      <trkpt lat="43.16431" lon="0.06139">
        <ele>385.6259766</ele>
        <time>2010-10-17T10:16:03Z</time>
      </trkpt>
      <trkpt lat="43.16439" lon="0.06145">
        <ele>385.1453857</ele>
        <time>2010-10-17T10:16:08Z</time>
      </trkpt>
      <trkpt lat="43.1644" lon="0.06151">
        <ele>385.1453857</ele>
        <time>2010-10-17T10:16:14Z</time>
      </trkpt>
      <trkpt lat="43.1644" lon="0.06151">
        <ele>385.1453857</ele>
        <time>2010-10-17T10:16:15Z</time>
      </trkpt>
      <trkpt lat="43.1644" lon="0.06158">
        <ele>385.1453857</ele>
        <time>2010-10-17T10:16:21Z</time>
      </trkpt>
      <trkpt lat="43.16439" lon="0.06161">
        <ele>386.1066895</ele>
        <time>2010-10-17T10:16:25Z</time>
      </trkpt>
      <trkpt lat="43.16437" lon="0.06173">
        <ele>388.5100098</ele>
        <time>2010-10-17T10:16:33Z</time>
      </trkpt>
      <trkpt lat="43.16432" lon="0.06182">
        <ele>389.9519043</ele>
        <time>2010-10-17T10:16:40Z</time>
      </trkpt>
      <trkpt lat="43.16428" lon="0.06192">
        <ele>390.4326172</ele>
        <time>2010-10-17T10:16:45Z</time>
      </trkpt>
      <trkpt lat="43.16421" lon="0.06212">
        <ele>391.8745117</ele>
        <time>2010-10-17T10:16:52Z</time>
      </trkpt>
      <trkpt lat="43.16413" lon="0.06234">
        <ele>392.8359375</ele>
        <time>2010-10-17T10:16:58Z</time>
      </trkpt>
      <trkpt lat="43.16397" lon="0.0627">
        <ele>393.7972412</ele>
        <time>2010-10-17T10:17:08Z</time>
      </trkpt>
      <trkpt lat="43.16382" lon="0.0629">
        <ele>394.7585449</ele>
        <time>2010-10-17T10:17:15Z</time>
      </trkpt>
      <trkpt lat="43.16362" lon="0.06304">
        <ele>397.1617432</ele>
        <time>2010-10-17T10:17:21Z</time>
      </trkpt>
      <trkpt lat="43.16343" lon="0.06316">
        <ele>398.6037598</ele>
        <time>2010-10-17T10:17:27Z</time>
      </trkpt>
      <trkpt lat="43.16318" lon="0.06323">
        <ele>398.6037598</ele>
        <time>2010-10-17T10:17:34Z</time>
      </trkpt>
      <trkpt lat="43.16285" lon="0.06331">
        <ele>400.0458984</ele>
        <time>2010-10-17T10:17:43Z</time>
      </trkpt>
      <trkpt lat="43.16239" lon="0.06341">
        <ele>403.8911133</ele>
        <time>2010-10-17T10:17:56Z</time>
      </trkpt>
      <trkpt lat="43.16226" lon="0.06347">
        <ele>404.3717041</ele>
        <time>2010-10-17T10:18:00Z</time>
      </trkpt>
      <trkpt lat="43.16222" lon="0.06366">
        <ele>405.3330078</ele>
        <time>2010-10-17T10:18:05Z</time>
      </trkpt>
      <trkpt lat="43.16223" lon="0.06384">
        <ele>407.2556152</ele>
        <time>2010-10-17T10:18:11Z</time>
      </trkpt>
      <trkpt lat="43.16227" lon="0.0641">
        <ele>408.217041</ele>
        <time>2010-10-17T10:18:20Z</time>
      </trkpt>
      <trkpt lat="43.1623" lon="0.06438">
        <ele>408.217041</ele>
        <time>2010-10-17T10:18:28Z</time>
      </trkpt>
      <trkpt lat="43.16236" lon="0.06471">
        <ele>409.6590576</ele>
        <time>2010-10-17T10:18:39Z</time>
      </trkpt>
      <trkpt lat="43.16241" lon="0.06493">
        <ele>410.6202393</ele>
        <time>2010-10-17T10:18:47Z</time>
      </trkpt>
      <trkpt lat="43.16245" lon="0.06519">
        <ele>411.581665</ele>
        <time>2010-10-17T10:18:55Z</time>
      </trkpt>
      <trkpt lat="43.16249" lon="0.0655">
        <ele>412.0622559</ele>
        <time>2010-10-17T10:19:03Z</time>
      </trkpt>
      <trkpt lat="43.16255" lon="0.06591">
        <ele>412.5428467</ele>
        <time>2010-10-17T10:19:12Z</time>
      </trkpt>
      <trkpt lat="43.1626" lon="0.06629">
        <ele>411.1009521</ele>
        <time>2010-10-17T10:19:18Z</time>
      </trkpt>
      <trkpt lat="43.16266" lon="0.06683">
        <ele>407.2556152</ele>
        <time>2010-10-17T10:19:24Z</time>
      </trkpt>
      <trkpt lat="43.16274" lon="0.06745">
        <ele>401.9685059</ele>
        <time>2010-10-17T10:19:29Z</time>
      </trkpt>
      <trkpt lat="43.16288" lon="0.06839">
        <ele>397.6424561</ele>
        <time>2010-10-17T10:19:36Z</time>
      </trkpt>
      <trkpt lat="43.16295" lon="0.06884">
        <ele>397.1617432</ele>
        <time>2010-10-17T10:19:40Z</time>
      </trkpt>
      <trkpt lat="43.16298" lon="0.06901">
        <ele>396.6811523</ele>
        <time>2010-10-17T10:19:43Z</time>
      </trkpt>
      <trkpt lat="43.16304" lon="0.06901">
        <ele>396.2005615</ele>
        <time>2010-10-17T10:19:48Z</time>
      </trkpt>
      <trkpt lat="43.16307" lon="0.06898">
        <ele>396.2005615</ele>
        <time>2010-10-17T10:19:50Z</time>
      </trkpt>
      <trkpt lat="43.16324" lon="0.06887">
        <ele>395.7198486</ele>
        <time>2010-10-17T10:19:58Z</time>
      </trkpt>
      <trkpt lat="43.16343" lon="0.06876">
        <ele>395.7198486</ele>
        <time>2010-10-17T10:20:04Z</time>
      </trkpt>
      <trkpt lat="43.16366" lon="0.06861">
        <ele>395.2391357</ele>
        <time>2010-10-17T10:20:10Z</time>
      </trkpt>
      <trkpt lat="43.16408" lon="0.06839">
        <ele>394.7585449</ele>
        <time>2010-10-17T10:20:20Z</time>
      </trkpt>
      <trkpt lat="43.16442" lon="0.06821">
        <ele>394.7585449</ele>
        <time>2010-10-17T10:20:27Z</time>
      </trkpt>
      <trkpt lat="43.16482" lon="0.06802">
        <ele>395.2391357</ele>
        <time>2010-10-17T10:20:35Z</time>
      </trkpt>
      <trkpt lat="43.16523" lon="0.06782">
        <ele>395.7198486</ele>
        <time>2010-10-17T10:20:43Z</time>
      </trkpt>
      <trkpt lat="43.16568" lon="0.0676">
        <ele>395.7198486</ele>
        <time>2010-10-17T10:20:51Z</time>
      </trkpt>
      <trkpt lat="43.16593" lon="0.06733">
        <ele>396.2005615</ele>
        <time>2010-10-17T10:20:56Z</time>
      </trkpt>
      <trkpt lat="43.1663" lon="0.06705">
        <ele>395.2391357</ele>
        <time>2010-10-17T10:21:02Z</time>
      </trkpt>
      <trkpt lat="43.16678" lon="0.06677">
        <ele>394.7585449</ele>
        <time>2010-10-17T10:21:09Z</time>
      </trkpt>
      <trkpt lat="43.16721" lon="0.06645">
        <ele>394.2779541</ele>
        <time>2010-10-17T10:21:16Z</time>
      </trkpt>
      <trkpt lat="43.16772" lon="0.066">
        <ele>393.3165283</ele>
        <time>2010-10-17T10:21:25Z</time>
      </trkpt>
      <trkpt lat="43.16815" lon="0.06558">
        <ele>392.8359375</ele>
        <time>2010-10-17T10:21:33Z</time>
      </trkpt>
      <trkpt lat="43.16825" lon="0.06548">
        <ele>392.8359375</ele>
        <time>2010-10-17T10:21:35Z</time>
      </trkpt>
      <trkpt lat="43.16845" lon="0.06542">
        <ele>392.3553467</ele>
        <time>2010-10-17T10:21:39Z</time>
      </trkpt>
      <trkpt lat="43.16854" lon="0.06561">
        <ele>392.3553467</ele>
        <time>2010-10-17T10:21:42Z</time>
      </trkpt>
      <trkpt lat="43.16863" lon="0.06576">
        <ele>392.3553467</ele>
        <time>2010-10-17T10:21:44Z</time>
      </trkpt>
      <trkpt lat="43.16905" lon="0.0664">
        <ele>390.913208</ele>
        <time>2010-10-17T10:21:52Z</time>
      </trkpt>
      <trkpt lat="43.16948" lon="0.06708">
        <ele>388.5100098</ele>
        <time>2010-10-17T10:21:59Z</time>
      </trkpt>
      <trkpt lat="43.17002" lon="0.06796">
        <ele>385.6259766</ele>
        <time>2010-10-17T10:22:07Z</time>
      </trkpt>
      <trkpt lat="43.17047" lon="0.06874">
        <ele>383.2226563</ele>
        <time>2010-10-17T10:22:14Z</time>
      </trkpt>
      <trkpt lat="43.1709" lon="0.06946">
        <ele>380.3387451</ele>
        <time>2010-10-17T10:22:21Z</time>
      </trkpt>
      <trkpt lat="43.17112" lon="0.06988">
        <ele>377.9354248</ele>
        <time>2010-10-17T10:22:25Z</time>
      </trkpt>
      <trkpt lat="43.17155" lon="0.07063">
        <ele>375.0515137</ele>
        <time>2010-10-17T10:22:32Z</time>
      </trkpt>
      <trkpt lat="43.17196" lon="0.07133">
        <ele>374.5708008</ele>
        <time>2010-10-17T10:22:39Z</time>
      </trkpt>
      <trkpt lat="43.17223" lon="0.0718">
        <ele>373.1289063</ele>
        <time>2010-10-17T10:22:44Z</time>
      </trkpt>
      <trkpt lat="43.17238" lon="0.07229">
        <ele>372.1674805</ele>
        <time>2010-10-17T10:22:49Z</time>
      </trkpt>
      <trkpt lat="43.17257" lon="0.07297">
        <ele>371.6868896</ele>
        <time>2010-10-17T10:22:57Z</time>
      </trkpt>
      <trkpt lat="43.17273" lon="0.07358">
        <ele>374.5708008</ele>
        <time>2010-10-17T10:23:04Z</time>
      </trkpt>
      <trkpt lat="43.17286" lon="0.07414">
        <ele>375.0515137</ele>
        <time>2010-10-17T10:23:10Z</time>
      </trkpt>
      <trkpt lat="43.17296" lon="0.07494">
        <ele>375.0515137</ele>
        <time>2010-10-17T10:23:18Z</time>
      </trkpt>
      <trkpt lat="43.17304" lon="0.07584">
        <ele>375.0515137</ele>
        <time>2010-10-17T10:23:26Z</time>
      </trkpt>
      <trkpt lat="43.17311" lon="0.07684">
        <ele>375.0515137</ele>
        <time>2010-10-17T10:23:35Z</time>
      </trkpt>
      <trkpt lat="43.17311" lon="0.07757">
        <ele>374.5708008</ele>
        <time>2010-10-17T10:23:41Z</time>
      </trkpt>
      <trkpt lat="43.17311" lon="0.0785">
        <ele>374.0900879</ele>
        <time>2010-10-17T10:23:49Z</time>
      </trkpt>
      <trkpt lat="43.1732" lon="0.07912">
        <ele>374.0900879</ele>
        <time>2010-10-17T10:23:55Z</time>
      </trkpt>
      <trkpt lat="43.17339" lon="0.07979">
        <ele>373.6094971</ele>
        <time>2010-10-17T10:24:02Z</time>
      </trkpt>
      <trkpt lat="43.17352" lon="0.08016">
        <ele>374.0900879</ele>
        <time>2010-10-17T10:24:07Z</time>
      </trkpt>
      <trkpt lat="43.17362" lon="0.08039">
        <ele>375.0515137</ele>
        <time>2010-10-17T10:24:12Z</time>
      </trkpt>
    </trkseg>
  </trk>
</gpx>